[[{"header":{"parameterUnit":"m.s-1","parameterCategory":1,"la1":31.0,"la2":29.5877,"lo1":-88.7671,"lo2":-86.6584,"dy":0.0162,"dx":0.0185,"nx":115,"ny":88,"refTime":"2024-03-21T12:00:00:Z","depth":0,"parameterNumber":2,"parameterNumberName":"U-component_of_WINDS"},"data":[0.0,0.0,0.0,0.0,0.0,0.0,0.0,0.0,0.0,0.0,0.0,0.0,0.0,0.0,0.0,0.0,0.0,0.0,0.0,0.0,0.0,0.0,0.0,0.0,0.0,0.0,0.0,0.0,0.0,0.0,0.0,0.0,0.0,0.0,0.0,0.0,0.0,0.0,0.0,0.0,0.0,0.0,0.0,0.0,0.0,0.0,0.0,0.0,0.0,0.0,0.0,0.0,0.0,0.0,0.0,0.0,0.0,0.0,0.0,0.0,0.0,0.0,0.0,0.0,0.0,0.0,0.0,0.0,0.0,0.0,0.0,0.0,0.0,0.0,0.0,0.0,0.0,0.0,0.0,0.0,0.0,0.0,0.0,0.0,0.0,0.0,0.0,0.0,0.0,0.0,0.0,0.0,0.0,0.0,0.0,0.0,0.0,0.0,0.0,0.0,0.0,0.0,0.0,0.0,0.0,0.0,0.0,0.0,0.0,0.0,0.0,0.0,0.0,0.0,0.0,0.0,0.0,0.0,0.0,0.0,0.0,0.0,0.0,0.0,0.0,0.0,0.0,0.0,0.0,0.0,0.0,0.0,0.0,0.0,0.0,0.0,0.0,0.0,0.0,0.0,0.0,0.0,0.0,0.0,0.0,0.0,0.0,0.0,0.0,0.0,0.0,0.0,0.0,0.0,0.0,0.0,0.0,0.0,0.0,0.0,0.0,0.0,0.0,0.0,0.0,0.0,0.0,0.0,0.0,0.0,0.0,0.0,0.0,0.0,0.0,0.0,0.0,0.0,0.0,0.0,0.0,0.0,0.0,0.0,0.0,0.0,0.0,0.0,0.0,0.0,0.0,0.0,0.0,0.0,0.0,0.0,0.0,0.0,0.0,0.0,0.0,0.0,0.0,0.0,0.0,0.0,0.0,0.0,0.0,0.0,0.0,0.0,0.0,0.0,0.0,0.0,0.0,0.0,0.0,0.0,0.0,0.0,0.0,0.0,0.0,0.0,0.0,0.0,0.0,0.0,0.0,0.0,0.0,0.0,0.0,0.0,0.0,0.0,0.0,0.0,0.0,0.0,0.0,0.0,0.0,0.0,0.0,0.0,0.0,0.0,0.0,0.0,0.0,0.0,0.0,0.0,0.0,0.0,0.0,0.0,0.0,0.0,0.0,0.0,0.0,0.0,0.0,0.0,0.0,0.0,0.0,0.0,0.0,0.0,0.0,0.0,0.0,0.0,0.0,0.0,0.0,0.0,0.0,0.0,0.0,0.0,0.0,0.0,0.0,0.0,0.0,0.0,0.0,0.0,0.0,0.0,0.0,0.0,0.0,0.0,0.0,0.0,0.0,0.0,0.0,0.0,0.0,0.0,0.0,0.0,0.0,0.0,0.0,0.0,0.0,0.0,0.0,0.0,0.0,0.0,0.0,0.0,0.0,0.0,0.0,0.0,0.0,0.0,0.0,0.0,0.0,0.0,0.0,0.0,0.0,0.0,0.0,0.0,0.0,0.0,0.0,0.0,0.0,0.0,0.0,0.0,0.0,0.0,0.0,0.0,0.0,0.0,0.0,0.0,0.0,0.0,0.0,0.0,0.0,0.0,0.0,0.0,0.0,0.0,0.0,0.0,0.0,0.0,0.0,0.0,0.0,0.0,0.0,0.0,0.0,0.0,0.0,0.0,0.0,0.0,0.0,0.0,0.0,0.0,0.0,0.0,0.0,0.0,0.0,0.0,0.0,0.0,0.0,0.0,0.0,0.0,0.0,0.0,0.0,0.0,0.0,0.0,0.0,0.0,0.0,0.0,0.0,0.0,0.0,0.0,0.0,0.0,0.0,0.0,0.0,0.0,0.0,0.0,0.0,0.0,0.0,0.0,0.0,0.0,0.0,0.0,0.0,0.0,0.0,0.0,0.0,0.0,0.0,0.0,0.0,0.0,0.0,0.0,0.0,0.0,0.0,0.0,0.0,0.0,0.0,0.0,0.0,0.0,0.0,0.0,0.0,0.0,0.0,0.0,0.0,0.0,0.0,0.0,0.0,0.0,0.0,0.0,0.0,0.0,0.0,0.0,0.0,0.0,0.0,0.0,0.0,0.0,0.0,0.0,0.0,0.0,0.0,0.0,0.0,0.0,0.0,0.0,0.0,0.0,0.0,0.0,0.0,0.0,0.0,0.0,0.0,0.0,0.0,0.0,0.0,0.0,0.0,0.0,0.0,0.0,0.0,0.0,0.0,0.0,0.0,0.0,0.0,0.0,0.0,0.0,0.0,0.0,0.0,0.0,0.0,0.0,0.0,0.0,0.0,0.0,0.0,0.0,0.0,0.0,0.0,0.0,0.0,0.0,0.0,0.0,0.0,0.0,0.0,0.0,0.0,0.0,0.0,0.0,0.0,0.0,0.0,0.0,0.0,0.0,0.0,0.0,0.0,0.0,0.0,0.0,0.0,0.0,0.0,0.0,0.0,0.0,0.0,0.0,0.0,0.0,0.0,0.0,0.0,0.0,0.0,0.0,0.0,0.0,0.0,0.0,0.0,0.0,0.0,0.0,0.0,0.0,0.0,0.0,0.0,0.0,0.0,0.0,0.0,0.0,0.0,0.0,0.0,0.0,0.0,0.0,0.0,0.0,0.0,0.0,0.0,0.0,0.0,0.0,0.0,0.0,0.0,0.0,0.0,0.0,0.0,0.0,0.0,0.0,0.0,0.0,0.0,0.0,0.0,0.0,0.0,0.0,0.0,0.0,0.0,0.0,0.0,0.0,0.0,0.0,0.0,0.0,0.0,0.0,0.0,0.0,0.0,0.0,0.0,0.0,0.0,0.0,0.0,0.0,0.0,0.0,0.0,0.0,0.0,0.0,0.0,0.0,0.0,0.0,0.0,0.0,0.0,0.0,0.0,0.0,0.0,0.0,0.0,0.0,0.0,0.0,0.0,0.0,0.0,0.0,0.0,0.0,0.0,0.0,0.0,0.0,0.0,0.0,0.0,0.0,0.0,0.0,0.0,0.0,0.0,0.0,0.0,0.0,0.0,0.0,0.0,0.0,0.0,0.0,0.0,0.0,0.0,0.0,0.0,0.0,0.0,0.0,0.0,0.0,0.0,0.0,0.0,0.0,0.0,0.0,0.0,0.0,0.0,0.0,0.0,0.0,0.0,0.0,0.0,0.0,0.0,0.0,0.0,0.0,0.0,0.0,0.0,0.0,0.0,0.0,0.0,0.0,0.0,0.0,0.0,0.0,0.0,0.0,0.0,0.0,0.0,0.0,0.0,0.0,0.0,0.0,0.0,0.0,0.0,0.0,0.0,0.0,0.0,0.0,0.0,0.0,0.0,0.0,0.0,0.0,0.0,0.0,0.0,0.0,0.0,0.0,0.0,0.0,0.0,0.0,0.0,0.0,0.0,0.0,0.0,0.0,0.0,0.0,0.0,0.0,0.0,0.0,0.0,0.0,0.0,0.0,0.0,0.0,0.0,0.0,0.0,0.0,0.0,0.0,0.0,0.0,0.0,0.0,0.0,0.0,0.0,0.0,0.0,0.0,0.0,0.0,0.0,0.0,0.0,0.0,0.0,0.0,0.0,0.0,0.0,0.0,0.0,0.0,0.0,0.0,0.0,0.0,0.0,0.0,0.0,0.0,0.0,0.0,0.0,0.0,0.0,0.0,0.0,0.0,0.0,0.0,0.0,0.0,0.0,0.0,0.0,0.0,0.0,0.0,0.0,0.0,0.0,0.0,0.0,0.0,0.0,0.0,0.0,0.0,0.0,0.0,0.0,0.0,0.0,0.0,0.0,0.0,0.0,0.0,0.0,0.0,0.0,0.0,0.0,0.0,0.0,0.0,0.0,0.0,0.0,0.0,0.0,0.0,0.0,0.0,0.0,0.0,0.0,0.0,0.0,0.0,0.0,0.0,0.0,0.0,0.0,0.0,0.0,0.0,0.0,0.0,0.0,0.0,0.0,0.0,0.0,0.0,0.0,0.0,0.0,0.0,0.0,0.0,0.0,0.0,0.0,0.0,0.0,0.0,0.0,0.0,0.0,0.0,0.0,0.0,0.0,0.0,0.0,0.0,0.0,0.0,0.0,0.0,0.0,0.0,0.0,0.0,0.0,0.0,0.0,0.0,0.0,0.0,0.0,0.0,0.0,0.0,0.0,0.0,0.0,0.0,0.0,0.0,0.0,0.0,0.0,0.0,0.0,0.0,0.0,0.0,0.0,0.0,0.0,0.0,0.0,0.0,0.0,0.0,0.0,0.0,0.0,0.0,0.0,0.0,0.0,0.0,5.1741,0.0,0.0,0.0,0.0,0.0,0.0,0.0,0.0,0.0,0.0,0.0,0.0,0.0,0.0,0.0,0.0,0.0,0.0,0.0,0.0,0.0,0.0,0.0,0.0,0.0,0.0,0.0,0.0,0.0,0.0,0.0,0.0,0.0,0.0,0.0,0.0,0.0,0.0,0.0,0.0,0.0,0.0,0.0,0.0,0.0,0.0,0.0,0.0,0.0,0.0,0.0,0.0,0.0,0.0,0.0,0.0,0.0,0.0,0.0,0.0,0.0,0.0,0.0,0.0,0.0,0.0,0.0,0.0,0.0,0.0,0.0,0.0,0.0,0.0,0.0,0.0,0.0,0.0,0.0,0.0,0.0,0.0,0.0,0.0,0.0,0.0,0.0,0.0,0.0,0.0,0.0,0.0,0.0,0.0,0.0,0.0,0.0,0.0,0.0,0.0,0.0,0.0,0.0,0.0,0.0,0.0,0.0,0.0,0.0,0.0,5.4398,5.3933,5.3549,5.2895,5.1933,0.0,0.0,0.0,0.0,0.0,0.0,0.0,0.0,0.0,0.0,0.0,0.0,0.0,0.0,0.0,0.0,0.0,0.0,0.0,0.0,0.0,0.0,0.0,0.0,0.0,0.0,0.0,0.0,0.0,0.0,0.0,0.0,0.0,0.0,0.0,0.0,0.0,0.0,0.0,0.0,0.0,0.0,0.0,0.0,0.0,0.0,0.0,0.0,0.0,0.0,0.0,0.0,0.0,0.0,0.0,0.0,0.0,0.0,0.0,0.0,0.0,0.0,0.0,0.0,0.0,0.0,0.0,0.0,0.0,0.0,0.0,0.0,0.0,0.0,0.0,0.0,0.0,0.0,0.0,0.0,0.0,0.0,0.0,0.0,0.0,0.0,0.0,0.0,0.0,0.0,0.0,0.0,0.0,0.0,0.0,0.0,0.0,0.0,0.0,0.0,0.0,0.0,0.0,0.0,0.0,0.0,0.0,0.0,0.0,0.0,0.0,0.0,5.4587,5.3664,5.1972,0.0,0.0,0.0,0.0,0.0,0.0,0.0,0.0,0.0,0.0,0.0,0.0,0.0,0.0,0.0,0.0,0.0,0.0,0.0,0.0,0.0,0.0,0.0,0.0,0.0,0.0,0.0,0.0,0.0,0.0,0.0,0.0,0.0,0.0,0.0,0.0,0.0,0.0,0.0,0.0,0.0,0.0,0.0,0.0,0.0,0.0,0.0,0.0,0.0,0.0,0.0,0.0,0.0,0.0,0.0,0.0,0.0,0.0,0.0,0.0,0.0,0.0,0.0,0.0,0.0,0.0,0.0,0.0,0.0,0.0,0.0,0.0,0.0,0.0,0.0,0.0,0.0,0.0,0.0,0.0,0.0,0.0,0.0,0.0,0.0,0.0,0.0,0.0,0.0,0.0,0.0,0.0,0.0,0.0,0.0,0.0,0.0,0.0,0.0,0.0,0.0,0.0,0.0,0.0,0.0,0.0,0.0,0.0,0.0,0.0,5.5748,5.5671,5.4878,0.0,5.201,0.0,0.0,0.0,0.0,0.0,0.0,0.0,0.0,0.0,0.0,0.0,0.0,0.0,0.0,0.0,0.0,0.0,0.0,0.0,0.0,0.0,0.0,0.0,0.0,0.0,0.0,0.0,0.0,0.0,0.0,0.0,0.0,0.0,0.0,0.0,0.0,0.0,0.0,0.0,0.0,0.0,0.0,0.0,0.0,0.0,0.0,0.0,0.0,0.0,0.0,0.0,0.0,0.0,0.0,0.0,0.0,0.0,0.0,0.0,0.0,0.0,0.0,0.0,0.0,0.0,0.0,0.0,0.0,0.0,0.0,0.0,0.0,0.0,0.0,0.0,0.0,0.0,0.0,0.0,0.0,0.0,0.0,0.0,0.0,0.0,0.0,0.0,0.0,0.0,0.0,0.0,0.0,0.0,0.0,0.0,0.0,0.0,0.0,0.0,0.0,0.0,0.0,0.0,0.0,0.0,0.0,0.0,0.0,0.0,0.0,5.5865,5.5787,5.4475,5.3415,0.0,0.0,0.0,0.0,0.0,0.0,0.0,0.0,0.0,0.0,0.0,0.0,0.0,0.0,0.0,0.0,0.0,0.0,0.0,0.0,0.0,0.0,0.0,0.0,0.0,0.0,0.0,0.0,0.0,0.0,0.0,0.0,0.0,0.0,0.0,0.0,0.0,0.0,0.0,0.0,0.0,0.0,0.0,0.0,0.0,0.0,0.0,0.0,0.0,0.0,0.0,0.0,0.0,0.0,0.0,0.0,0.0,0.0,0.0,0.0,0.0,0.0,0.0,0.0,0.0,0.0,0.0,0.0,0.0,0.0,0.0,0.0,0.0,0.0,0.0,0.0,0.0,0.0,0.0,0.0,0.0,0.0,0.0,0.0,0.0,0.0,0.0,0.0,0.0,0.0,0.0,0.0,0.0,0.0,0.0,0.0,0.0,0.0,0.0,0.0,0.0,0.0,0.0,0.0,0.0,0.0,0.0,0.0,0.0,0.0,5.5961,5.5865,5.5689,5.4128,5.3243,5.3282,0.0,0.0,0.0,0.0,0.0,0.0,0.0,0.0,0.0,0.0,0.0,0.0,0.0,0.0,0.0,0.0,0.0,0.0,0.0,0.0,0.0,0.0,0.0,0.0,0.0,0.0,0.0,0.0,0.0,0.0,0.0,0.0,0.0,0.0,0.0,0.0,0.0,0.0,0.0,0.0,0.0,0.0,0.0,0.0,0.0,0.0,0.0,0.0,0.0,0.0,0.0,0.0,0.0,0.0,0.0,0.0,0.0,0.0,0.0,0.0,0.0,0.0,0.0,0.0,0.0,0.0,0.0,0.0,0.0,0.0,0.0,0.0,0.0,0.0,0.0,0.0,0.0,0.0,0.0,0.0,0.0,0.0,0.0,0.0,0.0,0.0,0.0,0.0,0.0,0.0,0.0,0.0,0.0,0.0,0.0,0.0,0.0,0.0,0.0,0.0,0.0,0.0,0.0,0.0,0.0,0.0,0.0,0.0,5.6101,5.598,5.5845,5.5686,5.4149,5.3282,0.0,0.0,0.0,0.0,0.0,0.0,0.0,0.0,0.0,0.0,0.0,0.0,0.0,0.0,0.0,0.0,0.0,0.0,0.0,0.0,0.0,0.0,0.0,0.0,0.0,0.0,0.0,0.0,0.0,0.0,0.0,0.0,0.0,0.0,0.0,0.0,0.0,0.0,0.0,0.0,0.0,0.0,0.0,0.0,0.0,0.0,0.0,0.0,0.0,0.0,0.0,0.0,0.0,0.0,0.0,0.0,0.0,0.0,0.0,0.0,0.0,0.0,0.0,0.0,0.0,0.0,0.0,0.0,0.0,0.0,0.0,0.0,0.0,0.0,0.0,0.0,0.0,0.0,0.0,0.0,0.0,0.0,0.0,0.0,0.0,0.0,0.0,0.0,0.0,0.0,0.0,0.0,0.0,0.0,0.0,0.0,0.0,0.0,0.0,0.0,0.0,0.0,0.0,0.0,0.0,0.0,0.0,0.0,0.0,5.6117,5.598,5.5807,5.5686,5.4149,5.3302,0.0,0.0,0.0,0.0,0.0,0.0,0.0,0.0,0.0,0.0,0.0,0.0,0.0,0.0,0.0,0.0,0.0,0.0,0.0,0.0,0.0,0.0,0.0,0.0,0.0,0.0,0.0,0.0,0.0,0.0,0.0,0.0,0.0,0.0,0.0,0.0,0.0,0.0,0.0,0.0,0.0,0.0,0.0,0.0,0.0,0.0,0.0,0.0,0.0,0.0,0.0,0.0,0.0,0.0,0.0,0.0,0.0,0.0,0.0,0.0,0.0,0.0,0.0,0.0,0.0,0.0,0.0,0.0,0.0,0.0,0.0,0.0,0.0,0.0,0.0,0.0,0.0,0.0,0.0,0.0,0.0,0.0,0.0,0.0,0.0,0.0,0.0,0.0,0.0,0.0,0.0,0.0,0.0,0.0,0.0,0.0,0.0,0.0,0.0,0.0,0.0,0.0,0.0,0.0,0.0,0.0,0.0,0.0,0.0,5.6437,0.0,5.621,5.6071,5.4862,5.3918,0.0,0.0,0.0,0.0,0.0,0.0,0.0,0.0,0.0,0.0,0.0,0.0,0.0,0.0,0.0,0.0,0.0,0.0,0.0,0.0,0.0,0.0,0.0,0.0,0.0,0.0,0.0,0.0,0.0,0.0,0.0,0.0,0.0,0.0,0.0,0.0,0.0,0.0,0.0,0.0,0.0,0.0,0.0,0.0,0.0,0.0,0.0,0.0,0.0,0.0,0.0,0.0,0.0,0.0,0.0,0.0,0.0,0.0,0.0,0.0,0.0,0.0,0.0,0.0,0.0,0.0,0.0,0.0,0.0,0.0,0.0,0.0,0.0,0.0,0.0,0.0,0.0,0.0,0.0,0.0,0.0,0.0,0.0,0.0,0.0,0.0,0.0,0.0,0.0,0.0,0.0,0.0,0.0,0.0,0.0,0.0,0.0,0.0,0.0,0.0,0.0,0.0,0.0,0.0,0.0,0.0,0.0,0.0,5.6566,5.7178,5.7156,5.7153,5.7033,5.6269,5.5113,0.0,0.0,0.0,0.0,0.0,0.0,0.0,0.0,0.0,0.0,0.0,0.0,0.0,0.0,0.0,0.0,0.0,0.0,0.0,0.0,0.0,0.0,0.0,0.0,0.0,0.0,0.0,0.0,0.0,0.0,0.0,0.0,0.0,0.0,0.0,0.0,0.0,0.0,0.0,0.0,0.0,0.0,0.0,0.0,0.0,0.0,0.0,0.0,0.0,0.0,0.0,0.0,0.0,0.0,0.0,0.0,0.0,0.0,0.0,0.0,0.0,0.0,0.0,0.0,0.0,0.0,0.0,0.0,0.0,0.0,0.0,0.0,0.0,0.0,0.0,0.0,0.0,0.0,0.0,0.0,0.0,0.0,0.0,0.0,0.0,0.0,0.0,0.0,0.0,0.0,0.0,0.0,0.0,0.0,0.0,0.0,0.0,0.0,0.0,0.0,0.0,0.0,0.0,0.0,0.0,0.0,0.0,0.0,0.0,5.8124,5.8645,5.8914,5.8796,5.7545,5.6,0.0,0.0,0.0,0.0,0.0,0.0,0.0,0.0,0.0,0.0,0.0,0.0,0.0,0.0,0.0,0.0,0.0,0.0,0.0,0.0,0.0,0.0,0.0,0.0,0.0,0.0,0.0,0.0,0.0,0.0,0.0,0.0,0.0,0.0,0.0,0.0,0.0,0.0,0.0,0.0,0.0,0.0,0.0,0.0,0.0,0.0,0.0,0.0,0.0,0.0,0.0,0.0,0.0,0.0,0.0,0.0,0.0,0.0,0.0,0.0,0.0,0.0,0.0,0.0,0.0,0.0,0.0,0.0,0.0,0.0,0.0,0.0,0.0,0.0,0.0,0.0,0.0,0.0,0.0,0.0,0.0,0.0,0.0,0.0,0.0,0.0,0.0,0.0,0.0,0.0,0.0,0.0,0.0,0.0,0.0,0.0,0.0,0.0,0.0,0.0,0.0,0.0,0.0,0.0,0.0,0.0,0.0,0.0,0.0,6.0848,6.1099,6.1195,6.1155,5.9862,5.8026,5.5727,0.0,0.0,0.0,0.0,0.0,0.0,0.0,0.0,0.0,0.0,0.0,0.0,0.0,0.0,0.0,0.0,0.0,0.0,0.0,0.0,0.0,0.0,0.0,0.0,0.0,0.0,0.0,0.0,0.0,0.0,0.0,0.0,0.0,0.0,0.0,0.0,0.0,0.0,0.0,0.0,0.0,0.0,0.0,0.0,0.0,0.0,0.0,0.0,0.0,0.0,0.0,0.0,0.0,0.0,0.0,0.0,0.0,0.0,0.0,0.0,0.0,0.0,0.0,0.0,0.0,0.0,0.0,0.0,0.0,0.0,0.0,0.0,0.0,0.0,0.0,0.0,0.0,0.0,0.0,0.0,0.0,0.0,0.0,0.0,0.0,0.0,0.0,0.0,0.0,0.0,0.0,0.0,0.0,0.0,0.0,0.0,0.0,0.0,0.0,0.0,0.0,0.0,0.0,0.0,0.0,0.0,0.0,0.0,6.5136,6.4539,6.4134,6.3902,6.3091,6.0963,0.0,0.0,0.0,0.0,0.0,0.0,0.0,0.0,0.0,0.0,0.0,0.0,0.0,0.0,0.0,0.0,0.0,0.0,0.0,0.0,0.0,0.0,0.0,0.0,0.0,0.0,0.0,0.0,0.0,0.0,0.0,0.0,0.0,0.0,0.0,0.0,0.0,0.0,0.0,0.0,0.0,0.0,0.0,0.0,0.0,0.0,0.0,0.0,0.0,0.0,0.0,0.0,0.0,0.0,0.0,0.0,0.0,0.0,0.0,0.0,0.0,0.0,0.0,0.0,0.0,0.0,0.0,0.0,0.0,0.0,0.0,0.0,0.0,0.0,0.0,0.0,0.0,0.0,0.0,0.0,0.0,0.0,0.0,0.0,0.0,0.0,0.0,0.0,0.0,0.0,0.0,0.0,0.0,0.0,0.0,0.0,0.0,0.0,0.0,0.0,0.0,0.0,0.0,0.0,0.0,0.0,0.0,0.0,0.0,6.8562,7.0369,7.0079,6.76,6.6051,6.3398,0.0,0.0,0.0,0.0,0.0,0.0,0.0,0.0,0.0,0.0,0.0,0.0,0.0,0.0,0.0,0.0,0.0,0.0,0.0,0.0,0.0,0.0,0.0,0.0,0.0,0.0,0.0,0.0,0.0,0.0,0.0,0.0,0.0,0.0,0.0,0.0,0.0,0.0,0.0,0.0,0.0,0.0,0.0,0.0,0.0,0.0,0.0,0.0,0.0,0.0,0.0,0.0,0.0,0.0,0.0,0.0,0.0,0.0,0.0,0.0,0.0,0.0,0.0,0.0,0.0,0.0,0.0,0.0,0.0,0.0,0.0,0.0,0.0,0.0,0.0,0.0,0.0,0.0,0.0,0.0,0.0,0.0,0.0,0.0,0.0,0.0,0.0,0.0,0.0,0.0,0.0,0.0,0.0,0.0,0.0,0.0,0.0,0.0,0.0,0.0,0.0,0.0,0.0,0.0,0.0,0.0,0.0,0.0,6.7132,7.0908,7.3966,7.4806,7.3196,6.9769,6.6126,0.0,0.0,0.0,0.0,0.0,0.0,0.0,0.0,0.0,0.0,0.0,0.0,0.0,0.0,0.0,0.0,0.0,0.0,0.0,0.0,0.0,0.0,0.0,0.0,0.0,0.0,0.0,0.0,0.0,0.0,0.0,0.0,0.0,0.0,0.0,0.0,0.0,0.0,0.0,0.0,0.0,0.0,0.0,0.0,0.0,0.0,0.0,0.0,0.0,0.0,0.0,0.0,0.0,0.0,0.0,0.0,0.0,0.0,0.0,0.0,0.0,0.0,0.0,0.0,0.0,0.0,0.0,0.0,0.0,0.0,0.0,0.0,0.0,0.0,0.0,0.0,0.0,0.0,0.0,0.0,0.0,0.0,0.0,0.0,0.0,0.0,0.0,0.0,0.0,0.0,0.0,0.0,0.0,0.0,0.0,0.0,0.0,0.0,0.0,0.0,0.0,0.0,0.0,0.0,0.0,0.0,0.0,0.0,6.8423,7.2623,7.6224,7.8471,7.906,7.3762,6.9088,0.0,0.0,0.0,0.0,0.0,0.0,0.0,0.0,0.0,0.0,0.0,0.0,0.0,0.0,0.0,0.0,0.0,0.0,0.0,0.0,0.0,0.0,0.0,0.0,0.0,0.0,0.0,0.0,0.0,0.0,0.0,0.0,0.0,0.0,0.0,0.0,0.0,0.0,0.0,0.0,0.0,0.0,0.0,0.0,0.0,0.0,0.0,0.0,0.0,0.0,0.0,0.0,0.0,0.0,0.0,0.0,0.0,0.0,0.0,0.0,0.0,0.0,0.0,0.0,0.0,0.0,0.0,0.0,0.0,0.0,0.0,0.0,0.0,0.0,0.0,0.0,0.0,0.0,0.0,0.0,0.0,0.0,0.0,0.0,0.0,0.0,0.0,0.0,0.0,0.0,0.0,0.0,0.0,0.0,0.0,0.0,0.0,0.0,0.0,0.0,0.0,0.0,0.0,0.0,0.0,0.0,0.0,0.0,7.1043,7.5204,7.8812,8.0769,8.0923,7.6609,7.1979,0.0,0.0,0.0,0.0,0.0,0.0,0.0,0.0,0.0,0.0,0.0,0.0,0.0,0.0,0.0,0.0,0.0,0.0,0.0,0.0,0.0,0.0,0.0,0.0,0.0,0.0,0.0,0.0,0.0,0.0,0.0,0.0,0.0,0.0,0.0,0.0,0.0,0.0,0.0,0.0,0.0,0.0,0.0,0.0,0.0,0.0,0.0,0.0,5.7886,0.0,0.0,0.0,0.0,0.0,0.0,0.0,0.0,0.0,0.0,0.0,0.0,0.0,0.0,0.0,0.0,0.0,0.0,0.0,0.0,0.0,0.0,0.0,0.0,0.0,0.0,0.0,0.0,0.0,0.0,0.0,0.0,0.0,0.0,0.0,0.0,0.0,0.0,0.0,0.0,0.0,0.0,0.0,0.0,0.0,0.0,0.0,0.0,0.0,0.0,0.0,0.0,0.0,0.0,0.0,0.0,0.0,0.0,0.0,7.2071,7.6646,8.0241,8.229,8.2509,7.9067,7.4518,0.0,0.0,0.0,0.0,0.0,0.0,0.0,0.0,0.0,0.0,0.0,0.0,0.0,0.0,0.0,0.0,0.0,0.0,0.0,0.0,0.0,0.0,0.0,0.0,0.0,0.0,0.0,0.0,0.0,0.0,0.0,0.0,0.0,0.0,0.0,0.0,0.0,0.0,0.0,0.0,0.0,0.0,0.0,0.0,0.0,0.0,0.0,0.0,0.0,0.0,0.0,0.0,0.0,0.0,0.0,0.0,0.0,0.0,0.0,0.0,0.0,0.0,0.0,0.0,0.0,0.0,0.0,0.0,0.0,0.0,0.0,0.0,0.0,0.0,0.0,0.0,0.0,0.0,0.0,0.0,0.0,0.0,0.0,0.0,0.0,0.0,0.0,0.0,0.0,0.0,0.0,0.0,0.0,0.0,0.0,0.0,0.0,0.0,0.0,0.0,0.0,0.0,0.0,0.0,0.0,0.0,0.0,6.7547,7.2662,7.7575,8.0975,8.3038,8.3747,8.0632,7.6185,7.0427,0.0,0.0,0.0,0.0,0.0,0.0,0.0,0.0,0.0,0.0,0.0,0.0,0.0,0.0,0.0,0.0,0.0,0.0,0.0,0.0,0.0,0.0,0.0,0.0,0.0,0.0,0.0,0.0,0.0,0.0,0.0,0.0,0.0,0.0,0.0,0.0,0.0,0.0,5.4791,5.8459,0.0,0.0,0.0,0.0,0.0,0.0,0.0,0.0,6.1249,0.0,0.0,0.0,0.0,0.0,0.0,0.0,0.0,0.0,0.0,0.0,0.0,0.0,0.0,0.0,0.0,0.0,0.0,0.0,0.0,0.0,0.0,0.0,0.0,0.0,0.0,0.0,0.0,0.0,0.0,0.0,0.0,0.0,0.0,0.0,0.0,0.0,0.0,0.0,0.0,0.0,0.0,0.0,0.0,0.0,0.0,0.0,0.0,0.0,0.0,0.0,0.0,0.0,0.0,0.0,0.0,6.3252,6.9069,7.4215,7.8464,8.131,8.2854,8.2932,7.9825,7.5624,7.0502,0.0,0.0,0.0,0.0,0.0,0.0,0.0,0.0,0.0,0.0,0.0,0.0,0.0,0.0,0.0,0.0,0.0,0.0,0.0,0.0,0.0,0.0,0.0,0.0,0.0,0.0,0.0,0.0,0.0,0.0,0.0,0.0,0.0,0.0,0.0,0.0,0.0,0.0,0.0,6.1784,6.3923,0.0,0.0,0.0,0.0,0.0,0.0,0.0,0.0,6.2166,0.0,0.0,0.0,0.0,0.0,0.0,0.0,0.0,0.0,0.0,0.0,0.0,0.0,0.0,0.0,0.0,0.0,0.0,0.0,0.0,0.0,0.0,0.0,0.0,0.0,0.0,0.0,0.0,0.0,0.0,0.0,0.0,0.0,0.0,0.0,0.0,0.0,0.0,0.0,0.0,0.0,0.0,0.0,0.0,0.0,0.0,0.0,0.0,0.0,0.0,0.0,0.0,0.0,0.0,0.0,6.359,6.9087,7.4027,7.8231,8.1342,8.2721,8.2195,7.8959,7.5023,0.0,0.0,0.0,0.0,0.0,0.0,0.0,0.0,0.0,0.0,0.0,0.0,0.0,0.0,0.0,0.0,0.0,0.0,0.0,0.0,0.0,0.0,0.0,0.0,0.0,0.0,0.0,0.0,0.0,0.0,0.0,0.0,0.0,0.0,0.0,0.0,0.0,0.0,0.0,0.0,6.3885,6.5948,6.7171,0.0,0.0,0.0,0.0,0.0,0.0,6.4879,6.442,0.0,0.0,0.0,0.0,0.0,0.0,0.0,0.0,0.0,0.0,0.0,0.0,0.0,0.0,0.0,0.0,0.0,0.0,0.0,0.0,0.0,0.0,0.0,0.0,0.0,0.0,0.0,0.0,0.0,0.0,0.0,0.0,0.0,0.0,0.0,0.0,0.0,0.0,0.0,0.0,0.0,0.0,0.0,0.0,0.0,0.0,0.0,0.0,0.0,0.0,0.0,0.0,0.0,0.0,0.0,6.396,6.9227,7.3995,7.8088,8.1289,8.2435,8.1485,7.8165,7.4399,0.0,0.0,0.0,0.0,0.0,0.0,0.0,0.0,0.0,0.0,0.0,0.0,0.0,0.0,0.0,0.0,0.0,0.0,0.0,0.0,0.0,0.0,0.0,0.0,0.0,0.0,0.0,0.0,0.0,0.0,0.0,0.0,0.0,0.0,0.0,0.0,0.0,0.0,0.0,0.0,0.0,6.805,6.9731,7.0113,0.0,0.0,0.0,0.0,6.7821,6.7591,0.0,0.0,0.0,0.0,0.0,0.0,0.0,0.0,0.0,0.0,0.0,0.0,0.0,0.0,0.0,0.0,0.0,0.0,0.0,0.0,0.0,0.0,0.0,0.0,0.0,0.0,0.0,0.0,0.0,0.0,0.0,0.0,0.0,0.0,0.0,0.0,0.0,0.0,0.0,0.0,0.0,0.0,0.0,0.0,0.0,0.0,0.0,0.0,0.0,0.0,0.0,0.0,0.0,0.0,0.0,0.0,6.5031,7.0837,7.5642,7.9096,8.1194,8.1792,8.0815,7.7447,7.3605,0.0,0.0,0.0,0.0,0.0,0.0,0.0,0.0,0.0,0.0,0.0,0.0,0.0,0.0,0.0,0.0,0.0,0.0,0.0,0.0,0.0,0.0,0.0,0.0,0.0,0.0,0.0,0.0,0.0,0.0,0.0,0.0,0.0,0.0,0.0,0.0,0.0,0.0,0.0,0.0,0.0,7.061,7.2329,7.317,7.3361,0.0,0.0,7.21,7.1259,7.0495,0.0,0.0,0.0,0.0,0.0,0.0,0.0,0.0,0.0,0.0,0.0,0.0,0.0,0.0,0.0,0.0,0.0,0.0,0.0,0.0,0.0,0.0,0.0,0.0,0.0,0.0,0.0,0.0,0.0,0.0,0.0,0.0,0.0,0.0,0.0,0.0,0.0,0.0,0.0,0.0,0.0,0.0,0.0,0.0,0.0,0.0,0.0,0.0,0.0,0.0,0.0,0.0,0.0,0.0,0.0,6.0336,6.5173,7.0732,7.5262,7.8598,8.0491,8.0736,7.9337,7.5937,7.2315,0.0,0.0,0.0,0.0,0.0,0.0,0.0,0.0,0.0,0.0,0.0,0.0,0.0,0.0,0.0,0.0,0.0,0.0,0.0,0.0,0.0,0.0,0.0,0.0,0.0,0.0,0.0,0.0,0.0,0.0,0.0,0.0,0.0,0.0,0.0,0.0,0.0,0.0,0.0,0.0,0.0,0.0,7.4775,7.6227,0.0,0.0,0.0,7.68,7.5462,0.0,0.0,0.0,0.0,0.0,0.0,0.0,0.0,0.0,0.0,0.0,0.0,0.0,0.0,0.0,0.0,0.0,0.0,0.0,0.0,0.0,0.0,0.0,0.0,0.0,0.0,0.0,0.0,0.0,0.0,0.0,0.0,0.0,0.0,0.0,0.0,0.0,0.0,0.0,0.0,0.0,0.0,0.0,0.0,0.0,0.0,0.0,0.0,0.0,0.0,0.0,0.0,0.0,0.0,0.0,0.0,0.0,6.522,7.0446,7.4789,7.8163,7.9764,7.986,7.8311,7.4878,0.0,0.0,0.0,0.0,0.0,0.0,0.0,0.0,0.0,0.0,0.0,0.0,0.0,0.0,0.0,0.0,0.0,0.0,0.0,0.0,0.0,0.0,0.0,0.0,0.0,0.0,0.0,4.3278,0.0,0.0,0.0,0.0,0.0,0.0,0.0,0.0,0.0,0.0,0.0,0.0,0.0,0.0,7.4622,7.7296,7.9283,8.0544,0.0,0.0,8.1156,7.9513,7.9436,7.8366,0.0,0.0,0.0,0.0,0.0,0.0,0.0,0.0,0.0,0.0,0.0,0.0,0.0,0.0,0.0,0.0,0.0,0.0,0.0,0.0,0.0,0.0,0.0,0.0,0.0,0.0,0.0,0.0,0.0,0.0,0.0,0.0,0.0,0.0,0.0,0.0,0.0,0.0,0.0,0.0,0.0,0.0,0.0,0.0,0.0,0.0,0.0,0.0,0.0,0.0,0.0,0.0,0.0,0.0,0.0,6.5387,7.0523,7.4888,7.8277,7.9314,7.9314,7.8363,7.5022,7.1564,0.0,0.0,0.0,0.0,0.0,0.0,0.0,0.0,0.0,0.0,0.0,0.0,0.0,0.0,0.0,0.0,0.0,0.0,0.0,0.0,0.0,0.0,0.0,0.0,0.0,0.0,0.0,0.0,0.0,0.0,0.0,0.0,0.0,0.0,0.0,0.0,0.0,0.0,0.0,0.0,0.0,7.6532,7.978,8.2378,8.3945,0.0,8.4632,8.4594,8.2913,8.1385,7.978,7.7946,0.0,0.0,0.0,0.0,0.0,0.0,0.0,0.0,0.0,0.0,0.0,0.0,0.0,0.0,0.0,0.0,0.0,0.0,0.0,0.0,0.0,0.0,0.0,0.0,0.0,0.0,0.0,0.0,0.0,0.0,0.0,0.0,0.0,0.0,0.0,0.0,0.0,0.0,0.0,0.0,0.0,0.0,0.0,0.0,0.0,0.0,0.0,0.0,0.0,0.0,0.0,0.0,0.0,6.1091,6.5397,7.0559,7.4882,7.8207,7.8735,7.8741,7.8422,7.4499,7.1004,0.0,0.0,0.0,0.0,0.0,0.0,0.0,0.0,0.0,0.0,0.0,0.0,0.0,0.0,0.0,0.0,0.0,0.0,0.0,0.0,0.0,0.0,0.0,0.0,0.0,0.0,0.0,0.0,4.9161,5.0572,5.2035,0.0,0.0,0.0,0.0,0.0,0.0,0.0,0.0,0.0,0.0,7.8323,8.1576,8.5169,0.0,0.0,8.7766,8.788,8.5664,8.4365,8.2646,7.9971,7.6456,0.0,0.0,0.0,0.0,0.0,0.0,0.0,0.0,0.0,0.0,0.0,0.0,0.0,0.0,0.0,0.0,0.0,0.0,0.0,0.0,0.0,0.0,0.0,0.0,0.0,0.0,0.0,0.0,0.0,0.0,0.0,0.0,0.0,0.0,0.0,0.0,0.0,0.0,0.0,0.0,0.0,0.0,0.0,0.0,0.0,0.0,0.0,0.0,0.0,0.0,0.0,0.0,6.1292,6.5004,7.0153,7.4506,7.7941,7.8032,7.8116,7.8272,7.4435,7.0987,0.0,0.0,0.0,0.0,0.0,0.0,0.0,0.0,0.0,0.0,0.0,0.0,0.0,0.0,0.0,0.0,0.0,0.0,0.0,0.0,0.0,0.0,0.0,0.0,0.0,0.0,0.0,0.0,5.0657,5.2005,5.3874,0.0,0.0,0.0,0.0,0.0,0.0,0.0,0.0,0.0,0.0,8.0231,8.3754,8.7235,8.934,8.8955,8.9829,8.9829,8.7536,8.6237,8.4441,8.1385,0.0,0.0,0.0,0.0,0.0,0.0,0.0,0.0,0.0,0.0,0.0,0.0,0.0,0.0,0.0,0.0,0.0,0.0,0.0,0.0,0.0,0.0,0.0,0.0,0.0,0.0,0.0,0.0,0.0,0.0,4.7549,0.0,0.0,0.0,0.0,0.0,0.0,0.0,0.0,0.0,0.0,0.0,0.0,0.0,0.0,0.0,0.0,0.0,0.0,0.0,0.0,0.0,0.0,6.1648,6.4236,6.9348,7.3654,7.6984,7.714,7.7531,7.8311,7.5071,7.1618,6.8117,0.0,0.0,0.0,0.0,0.0,0.0,0.0,0.0,0.0,0.0,0.0,0.0,0.0,0.0,0.0,0.0,0.0,0.0,0.0,0.0,0.0,0.0,0.0,0.0,0.0,0.0,5.0702,5.206,5.3292,0.0,0.0,0.0,0.0,0.0,0.0,0.0,0.0,0.0,0.0,7.847,8.2217,8.6391,8.8424,8.9839,9.0528,9.0638,9.0058,8.8377,8.6658,8.4671,0.0,0.0,0.0,0.0,0.0,0.0,0.0,0.0,0.0,0.0,0.0,0.0,0.0,0.0,0.0,0.0,0.0,0.0,0.0,0.0,0.0,0.0,0.0,0.0,0.0,0.0,0.0,4.9696,4.9657,0.0,0.0,0.0,0.0,0.0,0.0,0.0,0.0,0.0,0.0,0.0,5.8709,5.9558,0.0,0.0,0.0,0.0,0.0,0.0,0.0,0.0,0.0,0.0,0.0,0.0,6.1933,6.51,6.9634,7.3348,7.6125,7.6789,7.7531,7.8311,7.511,7.0831,6.558,0.0,0.0,0.0,0.0,0.0,0.0,0.0,0.0,0.0,0.0,0.0,0.0,0.0,0.0,0.0,0.0,0.0,0.0,0.0,0.0,0.0,0.0,0.0,0.0,0.0,5.1336,0.0,0.0,0.0,0.0,0.0,0.0,0.0,0.0,0.0,0.0,0.0,7.1357,7.5867,7.9987,8.3665,8.6697,8.9534,9.1414,0.0,0.0,0.0,0.0,0.0,0.0,0.0,0.0,0.0,0.0,0.0,0.0,0.0,0.0,7.7564,7.3667,7.2482,7.1833,7.103,0.0,0.0,0.0,0.0,0.0,0.0,0.0,0.0,0.0,0.0,0.0,0.0,0.0,0.0,5.321,0.0,5.2312,0.0,0.0,0.0,0.0,0.0,0.0,0.0,0.0,5.9222,6.0471,6.133,6.2184,6.2134,0.0,6.0723,5.8727,0.0,0.0,0.0,0.0,0.0,0.0,0.0,0.0,6.2413,6.5574,6.9796,7.3236,7.5696,7.6672,7.7492,7.8272,7.4747,7.0348,6.5191,6.1907,5.8817,0.0,0.0,0.0,0.0,0.0,0.0,0.0,0.0,0.0,0.0,0.0,0.0,0.0,0.0,0.0,0.0,0.0,0.0,0.0,0.0,0.0,0.0,0.0,5.3161,0.0,0.0,0.0,0.0,0.0,0.0,0.0,0.0,0.0,6.7959,7.0585,7.3942,7.819,8.1973,8.5266,8.7727,0.0,0.0,0.0,0.0,0.0,0.0,0.0,8.8683,8.7804,8.6543,8.5626,8.5626,8.5129,8.4862,8.5129,0.0,0.0,7.8634,7.722,7.6685,7.615,7.5806,7.5959,7.7029,7.7717,7.8328,0.0,0.0,0.0,0.0,0.0,0.0,0.0,0.0,5.6762,5.6762,0.0,5.5786,0.0,0.0,0.0,0.0,0.0,5.6372,0.0,0.0,6.1095,6.2306,6.3164,6.4062,6.4018,6.3182,6.3154,6.2178,6.0372,5.7094,0.0,0.0,0.0,0.0,0.0,0.0,6.3008,6.5663,6.984,7.3236,7.5657,7.6633,7.7453,7.8077,7.4141,7.0333,6.6939,6.4237,6.1226,5.7781,5.6575,0.0,0.0,0.0,0.0,0.0,0.0,0.0,0.0,0.0,0.0,0.0,0.0,0.0,0.0,0.0,0.0,0.0,0.0,0.0,0.0,5.3818,0.0,0.0,0.0,0.0,0.0,0.0,0.0,0.0,0.0,0.0,7.0846,7.3782,7.7483,8.1656,0.0,0.0,0.0,0.0,9.2295,9.2334,9.2909,9.3016,9.2212,9.1326,9.0402,8.9638,0.0,0.0,8.8339,8.8339,8.8606,8.9332,8.9447,8.7918,8.3181,8.2225,8.1996,8.192,8.127,8.1347,8.2722,8.3066,8.3372,6.3633,0.0,0.0,0.0,0.0,5.9222,5.969,6.0237,6.0237,6.0237,6.0159,5.8675,0.0,0.0,0.0,0.0,0.0,0.0,6.0822,6.1993,6.4258,6.5468,6.578,6.7224,6.7492,6.6616,6.5998,6.4827,6.3098,6.1543,5.9402,5.6758,0.0,0.0,0.0,0.0,6.3867,6.6483,7.0113,7.2924,7.4837,7.632,7.6594,7.5657,7.3204,7.0559,6.7755,6.5684,6.3249,6.0336,5.8076,0.0,0.0,0.0,0.0,0.0,0.0,0.0,0.0,0.0,0.0,0.0,0.0,0.0,0.0,0.0,0.0,0.0,0.0,0.0,5.4087,5.6242,5.7604,0.0,0.0,0.0,0.0,0.0,0.0,0.0,0.0,0.0,7.5833,7.7553,7.9928,0.0,0.0,8.7675,8.9633,9.1367,9.26,9.314,9.3409,0.0,9.3785,9.3051,9.2627,9.2886,9.3229,9.3459,9.3459,9.3459,9.3535,9.3726,9.3344,9.2427,9.109,8.8759,8.7078,8.6428,8.6084,8.6237,8.7231,8.7498,8.7766,6.9879,6.6561,6.4023,6.2735,6.254,6.3164,6.3555,6.375,6.4101,6.4062,6.3633,6.1915,6.1174,6.1056,5.9378,0.0,0.0,0.0,6.336,6.457,6.6444,6.7498,6.7888,6.8903,6.9132,6.8606,6.8066,6.6934,6.5211,6.4749,6.3115,6.0432,0.0,0.0,6.0198,6.2735,6.5116,6.7342,7.0738,7.3158,7.4486,7.5852,7.5735,7.4044,7.2619,7.0823,6.8593,6.675,6.4542,6.1895,5.9821,5.7854,0.0,0.0,0.0,0.0,0.0,0.0,0.0,0.0,0.0,0.0,0.0,4.7818,4.901,0.0,0.0,0.0,5.2721,5.4434,5.6973,5.8473,0.0,0.0,0.0,0.0,0.0,0.0,0.0,6.9961,7.2946,7.6194,7.9492,8.1298,8.3105,8.5488,8.7598,8.9402,9.0748,0.0,9.3672,9.4099,9.4715,9.5214,9.5511,9.5431,9.5423,9.5789,9.6248,9.6592,9.6592,9.6592,9.6592,9.6515,9.621,9.5789,9.5446,9.3688,9.1778,9.0402,9.0096,9.0249,9.0746,9.1319,9.1969,7.554,7.4285,6.9561,6.7029,6.6288,6.7771,6.7927,6.7264,6.7966,6.7849,6.699,6.5351,6.457,6.4375,6.2813,0.0,6.3438,6.4219,6.5468,6.7029,6.7888,6.8708,6.9489,6.9567,6.96,6.9582,6.9561,6.8664,6.7162,6.7063,6.617,6.4609,6.3086,6.2228,6.2149,6.4453,6.6522,6.82,7.148,7.3588,7.4486,7.5227,7.4831,7.325,7.2299,7.0979,6.9323,6.7554,6.5358,6.2749,6.1678,5.9572,5.6346,0.0,0.0,0.0,0.0,0.0,0.0,0.0,0.0,0.0,0.0,0.0,0.0,0.0,0.0,0.0,5.5028,0.0,5.9473,6.055,0.0,0.0,0.0,6.5487,6.7049,6.8102,6.9975,7.3236,0.0,0.0,8.2093,8.467,8.6594,8.7594,8.971,9.1556,9.2479,9.3903,9.498,9.4941,9.6251,9.721,9.705,9.7653,9.814,9.8044,9.8273,9.8311,9.8273,9.8197,9.8197,9.8158,9.8082,9.7738,9.7012,9.6554,9.6057,9.3612,9.3306,9.3382,9.3459,9.4567,9.556,7.7801,7.6318,7.5061,7.3016,7.0543,7.0894,7.0933,7.0738,7.027,6.9957,6.9645,6.7966,6.6834,6.617,6.578,6.6053,6.6873,6.7107,6.7771,6.8825,6.9684,7.0191,7.0426,7.1089,7.1357,7.126,7.0681,7.0174,6.9738,6.912,6.8267,6.7264,6.742,6.66,6.4804,6.5897,6.7381,6.9059,7.1206,7.3002,7.4447,7.4095,7.3699,7.3211,7.1706,7.0385,6.9251,6.8086,6.6237,6.355,6.2511,6.1,5.8792,5.6785,0.0,0.0,0.0,0.0,0.0,0.0,0.0,0.0,0.0,5.0699,5.2389,0.0,5.399,0.0,5.7819,6.0127,6.1358,6.282,0.0,0.0,6.609,6.7898,6.8948,7.0948,7.3322,7.6024,7.8031,8.0491,8.3862,8.5901,8.7902,8.9979,9.0825,9.1748,9.3172,9.4287,9.498,9.5095,9.5904,9.6674,9.7245,9.8298,9.9083,9.9114,9.9572,10.0031,9.9992,9.9496,9.9114,9.8999,9.8006,9.7203,9.6936,9.6401,9.5789,9.5178,9.5522,9.6019,9.6019,9.6783,9.7509,7.9617,7.8681,7.8291,7.6856,7.4733,7.4005,7.3459,7.3107,7.3002,7.2729,7.23,7.0582,6.9137,6.7966,6.7966,6.82,6.8708,6.9059,6.9528,7.0035,7.0894,7.1285,7.1285,7.1792,7.1982,7.1884,7.1455,7.1065,7.0675,7.0206,6.951,6.8708,6.9176,6.8903,6.7927,6.8318,6.902,6.9996,7.2065,7.3393,7.3939,7.39,7.3459,7.2611,7.0926,6.9752,6.9227,6.7903,6.6128,6.3806,6.3129,6.1808,5.9672,5.8187,5.6857,0.0,0.0,0.0,0.0,0.0,0.0,0.0,0.0,0.0,0.0,0.0,5.6797,5.8396,6.0589,6.2435,6.3666,6.532,6.6474,6.6859,6.9167,7.1014,7.186,7.4207,7.6592,7.8746,8.0792,8.3061,8.5709,8.7478,8.944,9.1941,9.2326,9.2787,9.4057,9.5018,9.5557,9.5595,9.6288,9.7058,9.7667,9.8331,9.8808,9.8846,9.919,9.9496,9.9496,9.9114,9.8808,9.877,9.8044,9.7318,9.6974,9.6554,9.6095,9.5789,9.6286,9.6821,9.6936,9.7853,9.8693,8.1012,8.0817,8.0076,7.9257,7.8321,7.6786,7.5624,7.4889,7.5534,7.5305,7.4408,7.2963,7.1441,6.9918,6.9879,6.984,6.9762,7.0504,7.0855,7.0933,7.1636,7.1987,7.1987,7.1987,7.1976,7.1884,7.1884,7.1572,7.087,7.087,7.0486,6.9762,6.9723,7.0113,7.0816,7.0855,7.0933,7.105,7.3236,7.3978,7.3354,7.3978,7.3576,7.194,7.0216,6.9275,6.9163,6.7447,6.5691,6.3961,6.3724,6.2535,6.0127,5.9896,5.9204,0.0,5.755,0.0,0.0,0.0,0.0,0.0,0.0,0.0,0.0,5.8212,5.9888,6.2397,6.3397,6.4628,6.6205,6.7898,6.9244,7.0167,7.236,7.4207,7.5284,7.74,7.9554,8.1362,8.3632,8.567,8.7325,8.894,9.0825,9.3056,9.3557,9.3941,9.5018,9.5788,9.6211,9.6288,9.6943,9.7558,9.805,9.814,9.8158,9.812,9.8197,9.8082,9.8197,9.8082,9.7929,9.7929,9.7738,9.7432,9.6859,9.6706,9.6439,9.5751,9.6286,9.6936,9.7203,9.8273,9.9381,8.1466,8.083,8.0635,8.0051,7.9205,7.8213,7.7355,7.6568,7.6028,7.5332,7.4486,7.4173,7.3471,7.2612,7.2573,7.2182,7.1519,7.1675,7.1753,7.1753,7.1948,7.1987,7.1987,7.1937,7.1891,7.1884,7.1909,7.1831,7.1689,7.1689,7.1618,7.1519,7.148,7.1597,7.1753,0.0,0.0,0.0,7.3275,7.3471,7.3315,7.3471,7.3029,7.1924,7.0224,0.0,6.9161,6.7461,6.5924,6.4774,6.4574,0.0,0.0,0.0,0.0,0.0,0.0,0.0,0.0,0.0,0.0,0.0,6.0819,6.0181,5.911,6.1003,6.3103,6.5013,6.6551,6.7859,6.8898,7.0514,7.1822,7.2745,7.4437,7.6399,7.8554,7.99,8.1516,8.3901,8.5209,8.6517,8.8171,8.9325,9.0864,9.3249,9.3672,9.4364,9.5826,9.6172,9.6288,9.6365,9.6828,9.7245,9.7396,9.7757,9.7929,9.8082,9.8082,9.8044,9.7967,9.7509,9.7127,9.7127,9.6554,9.6095,9.5904,9.5866,9.5828,9.5637,9.6286,9.7089,9.7776,9.8655,9.9572,8.1831,0.0,8.1442,8.0935,0.0,7.97,7.9071,7.8252,7.6989,7.595,7.5149,7.5149,7.4681,7.39,7.39,7.3666,7.3236,7.3236,7.3236,7.3236,7.3236,7.3236,7.3197,7.275,7.2541,7.2533,7.2119,7.1924,7.1893,7.1901,7.1916,7.1976,7.1982,7.2221,7.2651,7.3041,7.3236,7.3315,7.3705,7.39,7.39,7.39,7.3465,7.2548,7.0426,0.0,0.0,0.0,0.0,0.0,0.0,0.0,0.0,6.2921,0.0,6.2617,6.2208,6.1953,6.1953,6.2286,6.2708,6.322,6.3988,6.395,6.2694,6.418,6.5897,6.7628,6.8898,7.0167,7.1475,7.3091,7.4437,7.5322,7.6861,7.8592,8.0208,8.1554,8.2978,8.467,8.6363,8.7748,8.8594,8.9825,9.1325,9.3326,9.371,9.4326,9.5903,9.6288,9.6288,9.6288,9.6366,9.6552,9.659,9.6648,9.6898,9.6859,9.6859,9.6859,9.6859,9.6515,9.6248,9.621,9.5866,9.5598,9.5598,9.5598,9.5598,9.5637,9.5942,9.6515,9.7356,9.8502,9.9496,8.2104,8.2104,8.2104,8.1675,8.1052,8.0857,8.0324,7.95,0.0,0.0,0.0,7.6008,7.554,7.4759,7.472,7.4642,7.4486,7.4486,7.4486,7.4486,7.4486,7.4486,7.4447,7.3765,7.3438,7.3376,7.2686,7.2326,7.2374,7.2353,7.2377,7.2359,7.2411,7.2807,7.351,7.4173,7.4251,7.3783,7.4369,7.472,7.472,7.4564,7.4089,7.3218,7.0817,6.9527,6.9418,6.7866,6.6586,6.5759,6.5546,6.5131,6.434,6.4229,6.418,6.4103,6.4103,6.4051,6.4036,6.466,6.5043,6.5082,6.6615,6.7236,6.641,6.7179,6.8359,6.9783,7.0898,7.2245,7.3822,7.5322,7.663,7.763,7.9092,8.04,8.1477,8.2862,8.417,8.517,8.7171,8.8671,8.8748,9.0133,9.1825,9.3249,9.3672,9.4326,9.5826,9.6288,9.6288,9.6251,9.6135,9.5938,9.5859,9.5768,9.5598,9.5751,9.5675,9.5598,9.5598,9.5598,9.5598,9.5675,9.5598,9.5598,9.5598,9.5598,9.5598,9.5598,9.5598,9.5828,9.6592,9.7853,9.8961,8.2104,8.2104,8.2104,8.2026,8.1831,8.113,8.0324,7.9539,7.8612,7.7738,7.6926,7.6939,7.6438,7.5618,7.5618,7.5227,7.4525,7.4486,7.4486,7.4486,7.4486,7.4486,7.4486,7.4389,7.4297,7.4312,7.4138,7.409,7.4108,7.4117,7.4141,7.4128,7.4134,7.4212,7.433,7.4447,7.4798,7.5423,7.554,7.5618,7.5618,7.4876,7.4134,7.327,7.1448,7.0403,7.0406,6.9331,6.8606,6.8354,6.8236,6.8027,6.7793,6.7616,6.7679,6.7599,6.7543,6.7515,6.7487,6.7476,6.7553,6.7726,6.9212,6.9548,6.8175,6.9393,7.042,7.0821,7.2783,7.4553,7.5592,7.6553,7.7784,7.9208,8.0323,8.1516,8.2978,8.4016,8.4978,8.5824,8.7555,8.8671,8.8825,9.0133,9.1825,9.3249,9.3864,9.4403,9.5826,9.6288,9.6251,9.6136,9.5981,9.5859,9.5814,9.5686,9.5598,9.5598,9.5598,9.5598,9.5598,9.5598,9.5598,9.5598,9.5598,9.5598,9.5598,9.5598,9.5598,9.5598,9.5598,9.5713,9.5904,9.6706,9.7776,8.2104,8.2104,8.2104,8.2104,8.2065,8.1675,8.1025,8.0257,7.991,7.9002,7.7777,7.7329,7.6906,7.6516,7.6516,7.6281,7.593,7.593,7.5891,7.5891,7.593,7.5891,7.5852,7.5443,7.5194,7.5187,7.4702,7.4459,7.4507,7.4484,7.4499,7.4552,7.4948,7.4993,7.4603,7.5423,7.5852,7.5813,7.5813,7.6008,7.6477,7.5657,7.5032,7.4642,7.2931,7.1768,7.1312,7.0368,6.9585,6.8989,6.88,6.8651,6.8574,6.845,6.8345,6.8234,6.8244,6.8148,6.8059,6.8839,6.9719,7.0707,7.1472,7.1688,7.0984,7.165,7.239,7.288,7.4447,7.5938,7.7207,7.813,7.9169,8.0362,8.1246,8.2247,8.3439,8.4362,8.5209,8.6094,8.7632,8.8671,8.8671,9.0133,9.1825,9.3403,9.4403,9.5441,9.6172,9.6288,9.6251,9.6098,9.5981,9.5859,9.581,9.5724,9.5598,9.5598,9.5598,9.5598,9.5598,9.5598,9.5598,9.5598,9.5598,9.5598,9.5598,9.5598,9.5598,9.5598,9.5598,9.5598,9.5713,9.6286,9.7432,8.226,8.2104,8.2104,8.2104,8.2104,8.2104,8.1714,8.1091,8.097,8.0183,7.8932,7.7863,7.729,7.7101,7.7101,7.7101,7.7101,7.7101,7.7101,7.7101,7.7101,7.7101,7.7023,7.6386,7.6106,7.6021,7.5382,7.51,7.5061,7.5077,7.5092,7.5131,7.5768,7.5735,7.5149,7.6438,7.675,7.6125,7.6086,7.6399,7.7023,7.6242,7.5813,7.5696,7.4297,7.3172,7.2491,7.1743,7.0975,7.0188,6.9963,6.9794,6.9755,6.9605,6.947,6.9356,6.9327,6.9238,6.9152,7.0228,7.1565,7.2864,7.317,7.3357,7.3614,7.3935,7.4328,7.4896,7.5686,7.6908,7.8477,7.9323,8.0131,8.1016,8.2016,8.2824,8.3555,8.4516,8.5478,8.6401,8.7786,8.8748,8.9171,9.0248,9.1825,9.348,9.5211,9.6249,9.6288,9.6288,9.6251,9.6098,9.5941,9.5859,9.5772,9.5686,9.5598,9.5598,9.5598,9.5598,9.5598,9.5598,9.5598,9.5598,9.5598,9.5598,9.5598,9.5598,9.5598,9.5598,9.5598,9.5598,9.5637,9.6057,9.7012,8.2805,8.2143,8.2104,8.2104,8.2104,8.2104,8.2026,8.187,8.1243,8.0825,8.0446,7.8971,7.7863,7.7179,7.714,7.714,7.7101,7.7101,7.7101,7.7101,7.7101,7.7101,7.7101,7.6984,7.6972,7.6919,7.6802,7.6677,7.6685,7.6763,7.6848,7.6861,7.6945,7.6906,7.6867,7.7023,7.7062,7.6984,7.6984,7.7023,7.7023,7.6242,7.5813,7.5813,7.4921,7.4351,7.4264,7.4053,7.3853,7.3657,7.3333,7.3234,7.3151,7.2965,7.2793,7.2663,7.2601,7.262,7.2482,7.2673,7.2864,7.3017,7.3781,7.4507,7.523,7.6063,7.6312,7.614,7.6586,7.7808,7.9408,7.9785,8.0246,8.1131,8.2516,8.3516,8.3785,8.5016,8.6324,8.7171,8.8055,8.894,8.9671,9.071,9.1941,9.348,9.5211,9.6288,9.6288,9.6288,9.6213,9.5981,9.59,9.5818,9.5686,9.5598,9.5598,9.5598,9.5598,9.5598,9.5598,9.5598,9.5598,9.5598,9.5598,9.5598,9.5598,9.5598,9.5598,9.5598,9.5598,9.5598,9.5598,9.5751,9.6248,8.2883,8.2104,8.2104,8.2104,8.2104,8.2104,8.2104,8.2065,8.1766,8.1349,8.0864,8.0183,7.9158,7.7902,7.7863,7.7596,7.7101,7.7101,7.7101,7.7101,7.7101,7.7101,7.7101,7.7101,7.7095,7.7089,7.7089,7.7089,7.7089,7.7089,7.7095,7.7101,7.7101,7.7101,7.714,7.7609,7.7843,7.7882,7.835,7.8624,7.8546,7.7804,7.757,7.7999,7.7731,7.7004,7.6136,7.5884,7.5308,7.4239,7.3896,7.3775,7.3691,7.3437,7.3253,7.32,7.3111,7.3242,7.3705,7.4163,7.4698,7.5157,7.5959,7.6609,7.6914,7.7332,7.7632,7.7998,7.8366,7.8967,7.9691,8.0215,8.09,8.1785,8.2862,8.3785,8.4362,8.5401,8.644,8.7286,8.8171,8.9017,8.9979,9.1518,9.2826,9.3787,9.5211,9.6249,9.6288,9.6288,9.6174,9.5981,9.5862,9.5818,9.5643,9.5598,9.5598,9.5598,9.5598,9.5598,9.5598,9.5598,9.5598,9.5598,9.5598,9.5598,9.5598,9.5598,9.5598,9.5598,9.5598,9.5598,9.5598,9.5598,9.5828,8.3234,8.2494,8.2221,8.2104,8.2104,8.2104,8.2104,8.2104,8.2104,8.1766,8.1282,8.1243,8.0446,7.9197,7.8862,7.8409,7.7876,7.7804,7.7804,7.7804,7.7804,7.7804,7.7843,7.7804,7.7804,7.7804,7.7843,7.7843,7.7804,7.7804,7.7804,7.7804,7.7804,7.7804,7.7882,7.8468,7.8741,7.8819,7.9405,7.9795,7.9912,7.9444,7.9287,7.9672,7.9643,7.9032,7.7862,7.7637,7.698,7.5638,7.533,7.505,7.4732,7.4476,7.4267,7.4172,7.404,7.4393,7.5195,7.5844,7.6418,7.7029,7.7678,7.8099,7.829,7.8328,7.8746,7.9507,7.9876,7.9939,8.012,8.0645,8.1369,8.2208,8.3054,8.3939,8.4786,8.5632,8.6555,8.7594,8.8363,8.9248,9.0556,9.2326,9.371,9.4172,9.5365,9.6288,9.6288,9.6288,9.6213,9.5941,9.5862,9.5818,9.5643,9.5598,9.5598,9.5598,9.5598,9.5598,9.5598,9.5598,9.5598,9.5598,9.5598,9.5598,9.5598,9.5598,9.5598,9.5598,9.5598,9.5598,9.5598,9.5598,9.5598,8.413,8.3273,8.2455,8.2104,8.2104,8.2104,8.2104,8.2104,8.2104,8.2065,8.1999,8.1999,8.1544,8.0719,8.0016,7.9611,7.9533,7.9476,7.9444,7.9444,7.9483,7.9561,7.96,7.96,7.9522,7.9366,7.9326,7.9405,7.9444,7.9522,7.96,7.9522,7.9444,7.9522,7.9444,7.9561,7.9639,7.9678,7.9795,8.0146,8.0849,8.0888,8.0498,7.9906,7.9682,7.9656,7.9452,7.9351,7.9159,7.8979,7.8585,7.8167,7.7356,7.6985,7.6662,7.6491,7.6456,7.6838,7.7526,7.7755,7.787,7.7946,7.8099,7.8404,7.913,7.9245,7.9551,8.0353,8.0425,8.0531,8.0817,8.0965,8.1452,8.2324,8.3131,8.4016,8.4863,8.567,8.6863,8.8171,8.8786,8.9825,9.1979,9.3133,9.398,9.4749,9.5711,9.6288,9.6288,9.6288,9.6174,9.5981,9.59,9.5818,9.5643,9.5598,9.5598,9.5598,9.5598,9.5598,9.5598,9.5598,9.5598,9.5598,9.5598,9.5598,9.5598,9.5598,9.5598,9.5598,9.5598,9.5598,9.5598,9.5598,9.5598,8.4676,8.3312,8.2455,8.2104,8.2104,8.2104,8.2104,8.2104,8.2104,8.2104,8.2104,8.2104,8.1921,8.1661,8.1343,8.0679,7.9768,7.9697,7.9704,7.9717,7.9717,7.9717,7.9717,7.9717,7.9717,7.9717,7.9717,7.9717,7.9717,7.9717,7.9717,7.9717,7.9717,7.9717,7.9795,8.0263,8.0537,8.0576,8.1044,8.1513,8.1747,8.1825,8.1669,8.1396,8.129,8.1,8.0436,8.0324,7.9998,7.9304,7.9135,7.8843,7.8335,7.8023,7.7735,7.7561,7.7526,7.7678,7.7984,7.8519,7.8825,7.8863,7.9321,7.9665,7.9971,8.0047,8.02,8.043,8.0543,8.0769,8.1374,8.1666,8.2112,8.3054,8.3901,8.4747,8.5478,8.5978,8.6786,8.8402,8.9556,9.0941,9.2172,9.3172,9.4018,9.4903,9.5749,9.6211,9.6288,9.6288,9.6213,9.5981,9.59,9.5818,9.5643,9.5598,9.5598,9.5598,9.5598,9.5598,9.5598,9.5598,9.5598,9.5598,9.5598,9.5598,9.5598,9.5598,9.5598,9.5598,9.5598,9.5598,9.5598,9.5598,9.5598,8.4988,8.3429,8.2766,8.2338,8.2104,8.2104,8.2104,8.2104,8.2104,8.2104,8.2104,8.2104,8.2104,8.2104,8.2089,8.1577,8.0562,8.0532,8.0509,8.0524,8.0491,8.0491,8.0537,8.0537,8.0537,8.0576,8.0537,8.0537,8.0537,8.0537,8.0537,8.0537,8.0537,8.0537,8.0654,8.1122,8.1435,8.1552,8.202,8.2293,8.2293,8.2293,8.2293,8.2293,8.2241,8.1953,8.1334,8.1243,8.0883,8.0215,7.999,7.968,7.9158,7.8608,7.8348,7.8438,7.8404,7.8557,7.8825,7.936,7.9665,7.9704,8.043,8.0926,8.0926,8.1156,8.127,8.1308,8.1308,8.1613,8.2183,8.2674,8.3197,8.3874,8.4522,8.5247,8.6017,8.6363,8.7325,8.8902,9.0287,9.1556,9.2672,9.3326,9.421,9.5249,9.5942,9.6249,9.6288,9.6288,9.6174,9.5941,9.5862,9.5818,9.5686,9.5598,9.5598,9.5598,9.5598,9.5598,9.5598,9.5598,9.5598,9.5598,9.5598,9.5598,9.5598,9.5598,9.5598,9.5598,9.5598,9.5598,9.5598,9.5598,9.5789,8.5027,8.3624,8.339,8.2883,8.226,8.2143,8.2104,8.2104,8.2104,8.2104,8.2104,8.2104,8.2104,8.2104,8.2116,8.205,8.1917,8.187,8.1928,8.1953,8.1992,8.2039,8.2053,8.202,8.202,8.2059,8.2176,8.2215,8.2059,8.202,8.2059,8.2176,8.2059,8.1981,8.2215,8.2137,8.2215,8.2215,8.2254,8.2332,8.2332,8.2411,8.2489,8.2489,8.2489,8.2468,8.227,8.2101,8.1909,8.1748,8.1563,8.0987,7.9981,7.916,7.8765,7.9504,7.9471,7.978,8.0391,8.0582,8.0659,8.0735,8.1347,8.1805,8.1881,8.2378,8.2722,8.2684,8.276,8.2951,8.3218,8.3753,8.4284,8.4656,8.4873,8.5368,8.6055,8.6901,8.8017,8.9556,9.071,9.1902,9.3172,9.3787,9.448,9.5711,9.6211,9.6288,9.6288,9.6288,9.6174,9.5981,9.59,9.5818,9.5729,9.5598,9.5598,9.5598,9.5598,9.5598,9.5598,9.5598,9.5598,9.5598,9.5598,9.5598,9.5598,9.5598,9.5598,9.5598,9.5598,9.5713,9.5904,9.6057,9.6324,8.5689,8.5066,8.3858,8.3234,8.2922,8.2377,8.2104,8.2104,8.2104,8.2104,8.2104,8.2104,8.2104,8.2104,8.2104,8.2116,8.2077,8.2128,8.2162,8.224,8.2218,8.2226,8.2234,8.2287,8.2293,8.2293,8.2293,8.2332,8.2332,8.2332,8.2293,8.2293,8.2332,8.2293,8.2371,8.2293,8.2293,8.2293,8.2293,8.2567,8.3074,8.3113,8.3386,8.3972,8.4011,8.3997,8.3935,8.2806,8.214,8.2051,8.1904,8.173,8.1561,8.1253,8.1325,8.1877,8.1918,8.192,8.2149,8.2187,8.2149,8.2225,8.2455,8.2607,8.2607,8.2875,8.3066,8.3066,8.3028,8.3219,8.3831,8.4175,8.4554,8.4694,8.5262,8.5796,8.6401,8.744,8.8671,8.9825,9.1171,9.2479,9.348,9.4095,9.498,9.6019,9.6288,9.6288,9.6288,9.6288,9.6174,9.5941,9.59,9.5818,9.5686,9.5598,9.5598,9.5598,9.5598,9.5598,9.5598,9.5598,9.5598,9.5598,9.5598,9.5598,9.5598,9.5598,9.5598,9.5675,9.5713,9.5981,9.6363,9.6668,9.6936,8.6274,8.5884,8.4832,8.4169,8.3819,8.2961,8.2572,8.2533,8.2221,8.2104,8.2104,8.2104,8.2104,8.2143,8.2416,8.2572,8.2611,8.2883,8.3103,8.3059,8.2738,8.2678,8.2733,8.3107,8.323,8.323,8.323,8.323,8.323,8.323,8.323,8.323,8.323,8.3269,8.323,8.323,8.323,8.323,8.3269,8.3465,8.3855,8.3972,8.4245,8.4714,8.4792,8.4824,8.4732,8.3692,8.3147,8.3026,8.2893,8.2854,8.2968,8.281,8.289,8.3098,8.3103,8.299,8.299,8.2913,8.299,8.3028,8.3295,8.3448,8.3563,8.3677,8.3945,8.3945,8.3983,8.4174,8.4671,8.513,8.5322,8.547,8.6076,8.6761,8.7406,8.844,8.9671,9.0787,9.1864,9.2941,9.398,9.4557,9.5365,9.6057,9.6288,9.6288,9.6288,9.6288,9.6136,9.5981,9.59,9.5776,9.5643,9.5598,9.5598,9.5598,9.5598,9.5598,9.5598,9.5598,9.5598,9.5598,9.5598,9.5598,9.5598,9.5598,9.5598,9.5713,9.6095,9.6554,9.705,9.7318,9.7623,8.6741,8.6118,8.6001,8.5455,8.4676,8.3858,8.3468,8.3312,8.2727,8.2416,8.2377,8.2494,8.2416,8.2533,8.3195,8.3468,8.3585,8.413,8.4403,8.4299,8.3933,8.3664,8.367,8.42,8.448,8.4558,8.4597,8.4675,8.4519,8.4519,8.4792,8.4597,8.4558,8.4753,8.4558,8.4753,8.4597,8.4558,8.4636,8.4675,8.4831,8.487,8.4987,8.5104,8.5143,8.5182,8.5176,8.5028,8.4824,8.4663,8.4183,8.3995,8.3966,8.3787,8.3605,8.3665,8.3443,8.3448,8.3257,8.341,8.3372,8.3448,8.3983,8.4365,8.4403,8.4976,8.5397,8.5435,8.5588,8.5664,8.5893,8.6314,8.6814,8.7006,8.7194,8.799,8.9521,8.9863,9.0633,9.1941,9.2595,9.321,9.4711,9.5018,9.5557,9.6019,9.6288,9.6288,9.6288,9.6251,9.6175,9.6058,9.59,9.6006,9.5948,9.6095,9.6133,9.6554,9.6363,9.6095,9.5904,9.5828,9.6133,9.6057,9.5942,9.5866,9.5942,9.6172,9.6401,9.6745,9.7089,9.7432,9.7738,9.8082,9.8464,8.7053,8.6819,8.6235,8.5884,8.5533,8.4715,8.4364,8.4325,8.4091,8.3897,8.3974,8.4013,8.3897,8.4052,8.4208,8.4364,8.4442,8.4637,8.4676,8.4793,8.5195,8.493,8.4559,8.4668,8.487,8.487,8.4987,8.4831,8.4831,8.4948,8.4909,8.4831,8.4948,8.487,8.4831,8.4909,8.4831,8.4831,8.4831,8.5182,8.569,8.5768,8.6119,8.6666,8.6666,8.6666,8.6698,8.6667,8.5944,8.4727,8.4488,8.4629,8.4994,8.485,8.4882,8.5151,8.5127,8.4978,8.4901,8.4862,8.4824,8.4862,8.5129,8.5167,8.5206,8.597,8.639,8.6581,8.7001,8.7345,8.7422,8.7613,8.8076,8.8692,8.8651,8.8797,8.979,9.0517,9.1325,9.2364,9.3557,9.4403,9.4941,9.5518,9.598,9.6211,9.6288,9.6288,9.6288,9.6442,9.6405,9.6057,9.6015,9.6236,9.6413,9.656,9.6859,9.7471,9.7356,9.6898,9.6592,9.6286,9.6859,9.7318,9.7127,9.6974,9.7241,9.7547,9.7738,9.7662,9.7891,9.812,9.8655,9.9075,9.9419,8.7209,8.717,8.6702,8.6507,8.639,8.5611,8.526,8.5143,8.4832,8.4676,8.4676,8.4676,8.4676,8.4715,8.5066,8.526,8.5299,8.5611,8.5767,8.5845,8.6286,8.6256,8.5955,8.5871,8.5885,8.5885,8.5846,8.5924,8.5924,8.5885,8.5885,8.5963,8.5885,8.5885,8.5963,8.5885,8.5885,8.5924,8.5924,8.6197,8.6627,8.6627,8.6861,8.7329,8.7407,8.7401,8.7393,8.7321,8.6763,8.5896,8.5649,8.57,8.5956,8.6145,8.6315,8.6637,8.677,8.6815,8.6661,8.6621,8.6581,8.6581,8.6581,8.6581,8.6696,8.7116,8.7345,8.7422,8.7842,8.8033,8.8224,8.8683,8.9608,9.0455,9.057,9.0682,9.0982,9.1787,9.2595,9.348,9.4364,9.5172,9.5441,9.6019,9.6211,9.6288,9.6288,9.6288,9.6326,9.6557,9.6751,9.6596,9.6744,9.7116,9.7254,9.7401,9.7509,9.812,9.8273,9.7776,9.7509,9.7127,9.7471,9.8006,9.8082,9.8158,9.8273,9.8349,9.8311,9.8311,9.8502,9.8923,9.9496,9.9725,10.0107,8.7287,8.7209,8.7209,8.7209,8.7053,8.6429,8.6118,8.5962,8.5416,8.5104,8.5104,8.5027,8.5182,8.4988,8.5845,8.6118,8.6157,8.6663,8.7092,8.7261,8.7507,8.7582,8.7575,8.7151,8.7127,8.7134,8.7368,8.7251,8.7095,8.7212,8.7407,8.7368,8.7446,8.7603,8.7642,8.7681,8.7681,8.7681,8.7681,8.772,8.7837,8.7837,8.7915,8.7954,8.7993,8.7947,8.7893,8.7789,8.7593,8.7495,8.7261,8.7098,8.7087,8.7719,8.7814,8.7655,8.7987,8.819,8.8117,8.7884,8.7957,8.788,8.7918,8.811,8.7957,8.8033,8.8224,8.8186,8.8377,8.8874,8.9218,9.0135,9.1138,9.2065,9.2833,9.3141,9.3022,9.3403,9.4134,9.4864,9.5018,9.5557,9.598,9.6288,9.6288,9.6365,9.6442,9.6711,9.6903,9.7288,9.7443,9.7401,9.7779,9.827,9.8293,9.8235,9.8426,9.8693,9.8884,9.8732,9.8655,9.8426,9.8349,9.8541,9.8961,9.9037,9.8846,9.8884,9.8923,9.9152,9.9458,9.9878,10.0298,10.026,10.0451,8.7832,8.7209,8.7209,8.7209,8.717,8.7014,8.6936,8.6897,8.6741,8.6507,8.6624,8.6624,8.6585,8.6624,8.678,8.6936,8.6975,8.7287,8.752,8.83,8.9001,8.9208,8.8919,8.8101,8.751,8.7518,8.7446,8.7446,8.7486,8.7681,8.7759,8.8383,8.8461,8.8735,8.9242,8.9203,8.9437,8.9437,8.9398,8.9281,8.9281,8.9281,8.9281,8.9281,8.932,8.9359,8.9423,8.9398,8.933,8.9142,8.8676,8.8434,8.8711,8.891,8.8868,8.866,8.8584,8.8531,8.8309,8.8384,8.819,8.8339,8.853,8.811,8.8148,8.8874,8.9065,8.9294,9.0211,9.1013,9.1586,9.2198,9.2707,9.3174,9.3868,9.4407,9.4482,9.4595,9.4826,9.5095,9.5595,9.6095,9.6249,9.6365,9.6403,9.6403,9.6788,9.7173,9.7596,9.8019,9.8212,9.8324,9.8703,9.9155,9.9217,9.9159,9.9228,9.9343,9.9496,9.9572,9.9496,9.9458,9.9266,9.9572,10.0107,9.9954,9.9572,9.9801,9.9916,10.0145,10.0298,10.0566,10.0757,10.0718,10.0986,8.8845,8.8378,8.7988,8.7832,8.7754,8.7365,8.7209,8.7209,8.7209,8.7209,8.7209,8.7209,8.7209,8.7248,8.7598,8.7832,8.7949,8.8261,8.8651,8.9157,8.9612,8.9742,8.9715,8.9047,8.8531,8.8556,8.8603,8.8572,8.8618,8.8618,8.893,8.9242,8.932,8.9477,8.9945,9.0062,8.9945,8.9945,8.9984,8.9984,8.9984,8.9984,8.9984,8.9984,8.9984,8.9984,8.9945,8.9914,9.013,9.0256,9.0054,8.9644,8.9682,8.9874,8.9886,8.9658,8.9864,8.9748,8.961,8.9764,9.0028,8.9829,9.0173,9.0402,9.0478,9.0899,9.1052,9.1243,9.1854,9.2618,9.3077,9.3573,9.3736,9.4094,9.475,9.5328,9.5558,9.5595,9.5595,9.5672,9.6019,9.6211,9.6326,9.6673,9.6865,9.7057,9.775,9.8134,9.8365,9.8788,9.9096,9.9324,9.9626,9.9884,10.0059,10.0084,10.0069,10.0145,10.0183,10.0222,10.0183,10.0145,10.0107,10.0375,10.0566,10.0527,10.026,10.0566,10.0718,10.0642,10.0718,10.0986,10.1368,10.1712,10.2056,8.9936,8.9742,8.9001,8.8689,8.8573,8.7949,8.7715,8.7676,8.7598,8.7793,8.7637,8.7598,8.7832,8.7832,8.8378,8.8689,8.8923,8.9547,8.9975,9.0014,9.0326,9.0457,9.0404,9.03,9.0245,9.0247,8.9797,8.9766,8.9821,9.0023,8.9867,9.014,9.0179,9.0413,9.0413,9.0413,9.0609,9.0648,9.0648,9.0609,9.057,9.057,9.057,9.0609,9.0609,9.0609,9.0687,9.0781,9.0959,9.1515,9.1637,9.1208,9.0825,9.0752,9.109,9.0919,9.1445,9.165,9.1525,9.1797,9.2021,9.2049,9.2542,9.2924,9.2886,9.2733,9.2695,9.2886,9.3153,9.3382,9.3497,9.4146,9.4692,9.5128,9.5747,9.6211,9.6559,9.6673,9.6711,9.648,9.6634,9.6749,9.7057,9.7403,9.7557,9.7827,9.8519,9.9058,9.925,9.9596,9.9981,10.0132,10.0317,10.0645,10.0856,10.1346,10.1292,10.1177,10.1139,10.1139,10.1139,10.133,10.1292,10.068,10.068,10.0795,10.11,10.1406,10.1406,10.11,10.1368,10.1941,10.2361,10.2743,10.3011,9.0443,8.9781,8.9664,8.9586,8.9586,8.9391,8.9274,8.9352,8.9235,8.9352,8.9274,8.9313,8.9235,8.9352,8.9469,8.9586,8.9858,9.0521,9.0911,9.1028,9.1417,9.1729,9.1704,9.1626,9.1769,9.1571,9.0823,9.0148,9.0118,8.9977,9.057,9.0999,9.1077,9.1311,9.1741,9.2053,9.1858,9.1741,9.178,9.1819,9.1819,9.1936,9.2053,9.2053,9.2092,9.2092,9.2248,9.2741,9.3222,9.3348,9.3977,9.4081,9.3639,9.3162,9.2865,9.2716,9.307,9.3206,9.3054,9.3102,9.3098,9.3093,9.3234,9.3229,9.3229,9.3229,9.3497,9.365,9.407,9.4529,9.514,9.5446,9.5795,9.6385,9.6817,9.7245,9.7864,9.8096,9.7942,9.7596,9.7519,9.748,9.7827,9.8173,9.8442,9.8788,9.9365,9.975,9.9942,10.0442,10.1019,10.0978,10.0973,10.1296,10.1606,10.2294,10.2629,10.2476,10.24,10.24,10.2476,10.2743,10.2552,10.1712,10.1444,10.1674,10.1941,10.2209,10.2323,10.2209,10.2591,10.2973,10.3202,10.3469,10.3775,9.1534,9.1105,9.0677,9.0482,9.0404,8.9975,8.9781,8.9781,8.9781,8.9781,8.9781,8.9781,8.9781,8.9897,9.0326,9.0677,9.1183,9.1495,9.1768,9.1924,9.2197,9.243,9.243,9.243,9.2391,9.2185,9.1532,9.1145,9.1241,9.1328,9.1499,9.178,9.1936,9.2131,9.2404,9.2443,9.2522,9.2522,9.2522,9.2522,9.26,9.2873,9.3302,9.3732,9.381,9.3849,9.3927,9.4154,9.445,9.45,9.4792,9.494,9.4963,9.4907,9.4542,9.4156,9.4175,9.4141,9.3962,9.3906,9.406,9.3973,9.4195,9.4376,9.4376,9.449,9.4567,9.5102,9.5789,9.6477,9.6859,9.6821,9.7172,9.7533,9.7772,9.8089,9.8517,9.875,9.875,9.8673,9.8519,9.8481,9.8557,9.8942,9.9327,9.9788,10.025,10.0519,10.0712,10.1327,10.1981,10.1977,10.1971,10.2293,10.2562,10.3049,10.3622,10.3546,10.3508,10.3508,10.3431,10.3469,10.3126,10.2438,10.2438,10.2705,10.2629,10.282,10.3087,10.3355,10.3584,10.3775,10.3928,10.4157,10.4577,9.243,9.2352,9.1651,9.1378,9.1261,9.0638,9.0365,9.0326,9.0365,9.0443,9.0326,9.0365,9.0404,9.0521,9.1066,9.1729,9.2391,9.2352,9.2313,9.2313,9.2391,9.243,9.243,9.243,9.2391,9.2405,9.2263,9.2429,9.2266,9.2295,9.2428,9.2397,9.2482,9.2482,9.2482,9.2482,9.2522,9.2717,9.2756,9.2795,9.3185,9.3693,9.4356,9.4981,9.5098,9.502,9.4903,9.5215,9.5317,9.5417,9.5543,9.5678,9.5862,9.632,9.6293,9.5705,9.517,9.48,9.4943,9.5093,9.5521,9.5626,9.5921,9.6063,9.6095,9.6172,9.6363,9.7127,9.7547,9.7853,9.7815,9.8006,9.8204,9.8484,9.8653,9.8856,9.9207,9.9517,9.9865,9.975,9.9481,9.9596,9.9788,9.9827,10.0289,10.0558,10.1019,10.1404,10.1673,10.2366,10.2865,10.2976,10.308,10.3404,10.3603,10.3775,10.4195,10.4348,10.4348,10.4348,10.4157,10.3966,10.3699,10.3699,10.3737,10.3966,10.3737,10.366,10.4081,10.4386,10.4463,10.473,10.5151,10.5456,10.5838,9.243,9.2391,9.2274,9.2235,9.2197,9.2041,9.2041,9.2002,9.1963,9.208,9.1885,9.2002,9.1963,9.1963,9.2041,9.2274,9.2391,9.243,9.243,9.243,9.243,9.243,9.243,9.243,9.243,9.2469,9.2469,9.2419,9.2507,9.2549,9.2568,9.2576,9.2631,9.26,9.2873,9.2912,9.2912,9.3497,9.3654,9.4005,9.463,9.4864,9.5059,9.5215,9.5254,9.541,9.5645,9.6113,9.6418,9.6509,9.6997,9.7628,9.8201,9.8338,9.8818,9.8549,9.7843,9.6812,9.7124,9.7122,9.7212,9.7398,9.7729,9.7872,9.763,9.7623,9.7738,9.7891,9.8197,9.8349,9.8426,9.8273,9.8541,9.9013,9.9452,9.9922,10.0314,10.0595,10.0904,10.1096,10.0943,10.1019,10.1173,10.1173,10.1212,10.1481,10.1789,10.2212,10.2674,10.3289,10.3903,10.401,10.4116,10.44,10.4491,10.4664,10.4921,10.5112,10.5189,10.5265,10.5418,10.5418,10.5418,10.5418,10.5418,10.5265,10.5074,10.5074,10.5303,10.5533,10.5762,10.6144,10.6526,10.6832,10.6985,9.243,9.243,9.243,9.243,9.243,9.243,9.243,9.243,9.243,9.243,9.243,9.243,9.243,9.243,9.243,9.2391,9.243,9.243,9.243,9.243,9.243,9.243,9.243,9.243,9.243,9.2586,9.2859,9.3171,9.3055,9.2791,9.2666,9.3231,9.3256,9.3615,9.3732,9.3927,9.4161,9.4434,9.4591,9.4981,9.5606,9.5879,9.6074,9.6542,9.6542,9.6777,9.7245,9.7597,9.8182,9.8478,9.8997,9.9161,9.9475,9.9483,9.9596,9.9697,9.9063,9.8595,9.867,9.8494,9.8592,9.8517,9.8508,9.8178,9.8242,9.8541,9.8808,9.8846,9.9266,9.9458,9.9496,9.9534,9.9725,10.0039,10.0448,10.065,10.1158,10.1746,10.202,10.2212,10.2404,10.2443,10.2443,10.2327,10.2366,10.2635,10.2904,10.3212,10.3635,10.4097,10.4669,10.52,10.5262,10.5403,10.5342,10.539,10.5762,10.6029,10.622,10.6412,10.6985,10.7099,10.687,10.6946,10.7061,10.6794,10.6488,10.6335,10.6373,10.6717,10.7137,10.7329,10.752,10.7672,10.7863,9.243,9.243,9.243,9.243,9.243,9.243,9.243,9.243,9.243,9.243,9.243,9.243,9.243,9.243,9.243,9.243,9.243,9.243,9.243,9.243,9.243,9.243,9.2508,9.2547,9.2781,9.2742,9.3638,9.395,9.3822,9.3587,9.3621,9.4081,9.4099,9.4427,9.4864,9.4981,9.502,9.541,9.5723,9.6152,9.6621,9.6738,9.7245,9.7714,9.8104,9.8416,9.9158,9.9275,9.9666,9.9931,10.0012,10.0058,10.0397,10.0395,10.0565,10.0767,10.0706,10.0788,10.0429,10.0032,9.954,9.9327,9.9125,9.9135,9.9052,9.9427,9.9687,9.9687,10.0069,10.0527,10.0871,10.0871,10.11,10.1308,10.1597,10.1609,10.1733,10.2438,10.2904,10.2981,10.3251,10.3712,10.3635,10.3482,10.3558,10.3789,10.402,10.4289,10.4713,10.5174,10.5592,10.6199,10.626,10.6438,10.6605,10.6586,10.6843,10.6908,10.7137,10.7367,10.7787,10.794,10.7749,10.8016,10.8322,10.8207,10.7749,10.7558,10.7367,10.752,10.7749,10.8131,10.836,10.8551,10.8895,9.243,9.243,9.243,9.243,9.243,9.243,9.243,9.243,9.243,9.243,9.243,9.243,9.243,9.243,9.243,9.243,9.243,9.243,9.243,9.243,9.243,9.2547,9.2781,9.321,9.3638,9.3716,9.4418,9.4807,9.4861,9.4966,9.4847,9.4909,9.5017,9.5044,9.5286,9.5606,9.584,9.6347,9.6933,9.7362,9.7597,9.7753,9.8143,9.8729,9.9002,9.9314,10.0134,10.0212,10.0368,10.0603,10.0753,10.0955,10.1489,10.1657,10.1945,10.2361,10.283,10.2922,10.2642,10.1691,10.0954,10.0904,10.0893,10.0678,10.0627,10.0497,10.0566,10.068,10.1024,10.1253,10.1597,10.1865,10.2094,10.2379,10.2509,10.2643,10.285,10.336,10.3789,10.3789,10.4174,10.4713,10.5174,10.5059,10.4597,10.4789,10.5328,10.5597,10.6097,10.6559,10.6825,10.7164,10.7225,10.7473,10.8031,10.8049,10.7722,10.7787,10.8054,10.8169,10.8398,10.8437,10.878,10.8704,10.8933,10.901,10.9124,10.901,10.878,10.8322,10.8398,10.901,10.9545,10.9927,11.0232,9.243,9.243,9.243,9.243,9.243,9.243,9.243,9.243,9.243,9.243,9.243,9.243,9.243,9.243,9.243,9.243,9.243,9.243,9.243,9.2625,9.2859,9.3132,9.3482,9.3911,9.4457,9.4613,9.5275,9.5704,9.5743,9.6108,9.6525,9.6485,9.61,9.6362,9.6496,9.6582,9.6855,9.7245,9.7987,9.8494,9.8612,9.908,9.947,9.9744,9.9783,10.0212,10.0876,10.0993,10.1344,10.1805,10.2236,10.2566,10.2893,10.3269,10.3637,10.3975,10.4385,10.4502,10.4371,10.3508,10.3088,10.2826,10.2747,10.2505,10.2216,10.2234,10.2264,10.2256,10.2094,10.2247,10.2552,10.2705,10.282,10.3182,10.3428,10.364,10.404,10.4513,10.4982,10.5136,10.5482,10.5944,10.6367,10.6713,10.6174,10.579,10.6367,10.6905,10.7328,10.7675,10.7902,10.8048,10.8108,10.8247,10.8729,10.8623,10.8437,10.8704,10.8972,10.9086,10.9239,10.9736,10.9965,10.9774,10.9736,11.008,11.0309,11.0462,11.0232,10.9736,10.9774,11.0194,11.0729,11.1226,11.1455,9.243,9.243,9.243,9.243,9.243,9.243,9.243,9.243,9.243,9.243,9.243,9.243,9.243,9.243,9.243,9.243,9.2508,9.2664,9.2781,9.3132,9.3599,9.3989,9.434,9.4807,9.5314,9.5509,9.6093,9.66,9.6639,9.7223,9.733,9.7253,9.7093,9.7202,9.7464,9.7987,9.8065,9.8299,9.8885,9.9392,9.9509,9.99,10.0446,10.0563,10.0642,10.1344,10.2047,10.2437,10.2828,10.3444,10.3963,10.4282,10.4571,10.4843,10.5134,10.5256,10.5338,10.5437,10.5294,10.4803,10.4458,10.3932,10.3714,10.3555,10.3498,10.3404,10.3037,10.3067,10.3135,10.3278,10.3431,10.3546,10.3813,10.4205,10.4507,10.4758,10.5268,10.5819,10.621,10.6521,10.6944,10.7328,10.7482,10.7867,10.7713,10.729,10.7482,10.7905,10.8136,10.8482,10.8752,10.8936,10.9035,10.9175,10.9359,10.9437,10.9468,10.9621,10.985,11.0003,11.0271,11.0767,11.1073,11.0958,11.1035,11.134,11.157,11.1761,11.1531,11.1149,11.1302,11.1493,11.1799,11.2257,11.2449,9.243,9.243,9.243,9.243,9.243,9.243,9.243,9.243,9.243,9.243,9.243,9.243,9.243,9.243,9.243,9.2508,9.2742,9.3249,9.356,9.3833,9.4496,9.4807,9.5197,9.5665,9.6171,9.6405,9.6834,9.7223,9.734,9.7418,9.7525,9.7812,9.7799,9.7756,9.7758,9.8565,9.8963,9.908,9.9861,10.0173,10.0329,10.0524,10.1032,10.1578,10.1735,10.2437,10.3452,10.3765,10.4155,10.4732,10.5144,10.5319,10.5324,10.5481,10.5594,10.5523,10.6096,10.6351,10.6274,10.5205,10.4828,10.4752,10.4743,10.4369,10.398,10.3733,10.3657,10.3964,10.3679,10.3861,10.4081,10.4501,10.496,10.5276,10.558,10.6062,10.6649,10.6929,10.7322,10.7559,10.8213,10.879,10.8829,10.8906,10.9021,10.8944,10.8867,10.9021,10.9213,10.9444,10.979,10.982,11.0001,11.0019,11.0156,11.0422,11.0538,11.0614,11.0767,11.092,11.1188,11.1608,11.1875,11.199,11.2143,11.2296,11.2678,11.3098,11.2869,11.2716,11.264,11.2792,11.306,11.3251,11.3442,9.243,9.243,9.243,9.243,9.243,9.243,9.243,9.243,9.243,9.243,9.243,9.243,9.243,9.243,9.2508,9.2742,9.3288,9.3405,9.3833,9.4613,9.5353,9.5665,9.6015,9.6483,9.6989,9.7106,9.7457,9.7535,9.7457,9.7613,9.7964,9.8304,9.889,9.8977,9.889,9.9337,9.9861,10.0017,10.0603,10.111,10.1149,10.1657,10.232,10.3101,10.3179,10.3765,10.4858,10.4975,10.5209,10.5638,10.5924,10.6188,10.6283,10.6443,10.6831,10.6841,10.7277,10.7282,10.7228,10.671,10.6486,10.6311,10.5944,10.5631,10.5563,10.548,10.5268,10.5051,10.4921,10.5094,10.5227,10.5838,10.6259,10.6537,10.6863,10.7503,10.7979,10.8114,10.8317,10.8402,10.8867,10.9483,10.9713,11.0214,11.0444,11.0598,11.056,11.056,11.0714,11.0752,11.0944,11.0858,11.0885,11.0909,11.0999,11.1225,11.1379,11.1531,11.1684,11.1914,11.2219,11.2487,11.2678,11.2831,11.3022,11.3213,11.3518,11.39,11.4283,11.4321,11.3977,11.3824,11.3977,11.4168,11.4397,9.243,9.243,9.243,9.243,9.243,9.243,9.243,9.243,9.243,9.243,9.243,9.243,9.243,9.2469,9.2742,9.3015,9.3755,9.4418,9.469,9.547,9.6249,9.6561,9.6873,9.7184,9.734,9.7535,9.7574,9.7613,9.8042,9.7964,9.8431,9.9265,10.0138,10.0163,10.0129,10.043,10.072,10.0915,10.1461,10.2164,10.2476,10.3023,10.3648,10.4233,10.4623,10.4975,10.5599,10.5873,10.599,10.6333,10.6714,10.7056,10.7231,10.7481,10.7834,10.7859,10.8142,10.8173,10.816,10.8493,10.8327,10.8271,10.759,10.6956,10.6676,10.6334,10.6441,10.6342,10.6392,10.6528,10.6624,10.7187,10.7378,10.7607,10.7848,10.849,10.8976,10.9067,10.9431,10.9517,10.9867,11.0367,11.0829,11.1406,11.1945,11.2099,11.2252,11.2214,11.2175,11.2137,11.2137,11.205,11.2037,11.2052,11.2024,11.2029,11.2195,11.2372,11.2563,11.2716,11.2945,11.3174,11.3442,11.3748,11.4091,11.4321,11.4321,11.4588,11.4932,11.5008,11.4817,11.4779,11.4894,11.497,11.5085,9.243,9.243,9.243,9.243,9.243,9.243,9.243,9.243,9.243,9.243,9.243,9.243,9.2508,9.2664,9.3288,9.3794,9.4184,9.5431,9.5937,9.6366,9.6951,9.7223,9.734,9.7457,9.7652,9.7613,9.7769,9.8236,9.8782,9.9094,9.9522,10.0161,10.1008,10.1204,10.1317,10.1592,10.1766,10.2086,10.2437,10.3218,10.3765,10.4077,10.4623,10.517,10.5521,10.5951,10.6458,10.6771,10.7122,10.7512,10.7864,10.7924,10.7954,10.7944,10.7961,10.825,10.8834,10.9024,10.9186,10.9679,10.9817,10.9499,10.8414,10.7561,10.7227,10.7255,10.7374,10.7399,10.7417,10.7779,10.8098,10.8203,10.8257,10.8421,10.8585,10.9103,10.9657,11.0103,11.0539,11.0897,11.1363,11.1868,11.2291,11.2829,11.306,11.3483,11.3676,11.3868,11.3753,11.3368,11.3368,11.3324,11.3305,11.3356,11.3211,11.2832,11.2997,11.3174,11.3289,11.3442,11.3671,11.3977,11.4283,11.4703,11.5238,11.5391,11.5085,11.52,11.5467,11.5467,11.5276,11.5276,11.5276,11.5391,11.5505,9.243,9.243,9.243,9.243,9.243,9.243,9.243,9.243,9.243,9.243,9.243,9.243,9.2703,9.3327,9.3599,9.4418,9.5236,9.6015,9.6561,9.7028,9.734,9.7457,9.7535,9.7574,9.7847,9.8236,9.8509,9.8899,9.9717,10.0185,10.0613,10.112,10.1774,10.2127,10.2515,10.2988,10.3162,10.3374,10.3648,10.4194,10.478,10.5014,10.556,10.6068,10.6302,10.6771,10.7317,10.7512,10.7825,10.7981,10.8059,10.8168,10.887,10.8891,10.8948,10.9654,10.994,11.0029,11.0076,11.0221,11.0401,11.0478,10.9649,10.9254,10.8896,10.8625,10.8528,10.8491,10.8479,10.8734,10.9022,10.9159,10.9218,10.9323,10.9601,11.0175,11.0692,11.1016,11.1538,11.205,11.2517,11.3022,11.3483,11.3637,11.3907,11.4561,11.4984,11.5176,11.5176,11.4714,11.4484,11.4439,11.4226,11.4152,11.3748,11.3329,11.3699,11.3939,11.4053,11.4283,11.4703,11.5008,11.5238,11.5429,11.5582,11.5658,11.562,11.5696,11.5734,11.5734,11.5582,11.5658,11.5696,11.5773,11.5849,9.243,9.243,9.243,9.243,9.243,9.243,9.243,9.243,9.243,9.243,9.243,9.243,9.2859,9.3638,9.4067,9.4885,9.6054,9.66,9.7067,9.7262,9.7496,9.7496,9.7535,9.7886,9.8314,9.8743,9.9289,9.9756,10.0613,10.1354,10.186,10.1899,10.2514,10.2854,10.3232,10.3697,10.4392,10.4685,10.4967,10.5209,10.556,10.5951,10.6458,10.7005,10.7161,10.7512,10.7903,10.802,10.8176,10.8449,10.8527,10.8918,10.9581,10.9759,10.9778,11.038,11.0772,11.0862,11.0964,11.129,11.1294,11.1257,11.1159,11.1025,11.0457,10.9942,10.9746,10.9609,10.9571,10.9643,10.9859,11.0072,11.0134,11.0279,11.0846,11.1411,11.1689,11.1967,11.2491,11.3004,11.3516,11.4022,11.4291,11.4445,11.4753,11.5407,11.5792,11.5869,11.5907,11.5676,11.5484,11.5445,11.5148,11.4881,11.4437,11.4146,11.4412,11.4741,11.4894,11.52,11.5658,11.5658,11.5543,11.5582,11.5658,11.5773,11.5926,11.5773,11.5734,11.5926,11.6269,11.6499,11.6422,11.604,11.6155,9.2313,9.243,9.243,9.243,9.243,9.243,9.243,9.243,9.243,9.243,9.243,9.243,9.2937,9.3911,9.4496,9.5353,9.6366,9.7067,9.7301,9.7496,9.7496,9.7574,9.7964,9.8392,9.8899,9.925,9.9834,10.0652,10.1471,10.2055,10.2406,10.2601,10.2796,10.3177,10.3765,10.4415,10.5152,10.5885,10.6021,10.6146,10.6575,10.6888,10.7161,10.7786,10.7903,10.802,10.802,10.8176,10.8488,10.8996,10.9503,10.9777,11.0323,11.0831,11.0852,11.0988,11.159,11.1708,11.1915,11.222,11.2481,11.26,11.2776,11.2383,11.1686,11.1078,11.0794,11.0742,11.072,11.069,11.092,11.126,11.1445,11.1544,11.1953,11.2321,11.2503,11.2934,11.3612,11.4125,11.4516,11.4984,11.5215,11.5368,11.5407,11.6176,11.6369,11.6407,11.6369,11.6253,11.617,11.6131,11.5801,11.5456,11.5434,11.5204,11.5329,11.5582,11.5582,11.5582,11.5658,11.5696,11.5734,11.5926,11.6193,11.6193,11.6231,11.6346,11.6613,11.6881,11.7225,11.7492,11.7263,11.6843,11.6766,9.1807,9.2391,9.243,9.243,9.243,9.243,9.243,9.243,9.243,9.243,9.243,9.2508,9.321,9.4457,9.4846,9.5704,9.6989,9.7301,9.7457,9.7496,9.7496,9.7886,9.8353,9.8782,9.9522,10.0497,10.1159,10.1471,10.2094,10.2484,10.264,10.2718,10.3107,10.3707,10.4297,10.5065,10.6116,10.6763,10.7066,10.7122,10.7473,10.7629,10.7864,10.802,10.802,10.8059,10.8215,10.8684,10.8957,10.9308,10.9933,11.0596,11.1416,11.208,11.2392,11.25,11.251,11.2565,11.2605,11.2797,11.2866,11.2871,11.2853,11.2795,11.2521,11.2089,11.1843,11.1778,11.1808,11.1796,11.1923,11.2349,11.2656,11.28,11.3011,11.3228,11.3356,11.4065,11.4772,11.517,11.5522,11.5792,11.6022,11.6176,11.6292,11.6369,11.6446,11.6484,11.6446,11.6407,11.6432,11.6347,11.6176,11.5905,11.5958,11.5855,11.575,11.5696,11.5658,11.5658,11.5734,11.6078,11.6384,11.6575,11.6766,11.6843,11.711,11.7607,11.7874,11.7951,11.8065,11.8256,11.8371,11.8027,11.7951,9.1378,9.1846,9.2235,9.243,9.243,9.243,9.243,9.243,9.243,9.243,9.2508,9.2859,9.3716,9.4924,9.5275,9.6054,9.734,9.7496,9.7496,9.7496,9.7613,9.8081,9.8548,9.9211,10.0146,10.1159,10.1782,10.2211,10.2562,10.264,10.2718,10.3107,10.3731,10.4331,10.4946,10.6157,10.6806,10.722,10.7768,10.7942,10.802,10.802,10.802,10.802,10.802,10.8176,10.8644,10.9191,10.9699,11.0401,11.1299,11.1768,11.2353,11.2704,11.2978,11.3008,11.3028,11.3084,11.3009,11.3021,11.2976,11.2888,11.291,11.2892,11.2775,11.2361,11.2283,11.2258,11.2185,11.215,11.2633,11.3033,11.3426,11.3623,11.4155,11.4561,11.481,11.5302,11.5701,11.5862,11.6099,11.6138,11.633,11.633,11.6446,11.6446,11.6484,11.6599,11.6599,11.6823,11.6731,11.6675,11.6579,11.6212,11.5958,11.5855,11.5696,11.5696,11.5887,11.6078,11.6346,11.6766,11.7072,11.7377,11.7607,11.7721,11.8065,11.8485,11.8715,11.8753,11.8829,11.8982,11.9059,11.9211,11.9211,9.1066,9.1339,9.2119,9.243,9.243,9.243,9.243,9.243,9.243,9.2508,9.2781,9.3521,9.4262,9.4963,9.582,9.6678,9.7262,9.7457,9.7496,9.7496,9.7496,9.8275,9.9055,9.9717,10.0652,10.1471,10.2172,10.2406,10.2601,10.264,10.299,10.3731,10.4315,10.4861,10.6061,10.6753,10.7118,10.756,10.7944,10.7972,10.7981,10.802,10.802,10.802,10.8176,10.8566,10.9074,10.9777,11.0518,11.1338,11.2314,11.2704,11.2861,11.3017,11.3056,11.3095,11.3086,11.3056,11.3021,11.3021,11.2937,11.2905,11.2966,11.3083,11.3026,11.3088,11.3023,11.2969,11.2867,11.2913,11.3406,11.3932,11.4331,11.4583,11.5166,11.5653,11.6028,11.6316,11.6362,11.6446,11.6484,11.6522,11.6522,11.6522,11.6599,11.6599,11.6676,11.6753,11.6946,11.7354,11.7529,11.7433,11.7297,11.6813,11.6404,11.63,11.6384,11.6537,11.6804,11.6804,11.6957,11.7339,11.7798,11.8294,11.8485,11.86,11.8791,11.9135,11.9288,11.9517,11.967,11.9823,11.9976,12.0167,12.0434,9.0911,9.2158,9.2352,9.243,9.243,9.243,9.243,9.243,9.243,9.2781,9.3443,9.4223,9.4807,9.4963,9.582,9.6639,9.7379,9.7496,9.7496,9.7496,9.7652,9.8587,9.9561,10.0302,10.1081,10.186,10.2484,10.2562,10.2679,10.2679,10.3068,10.3926,10.4783,10.5484,10.6397,10.7012,10.7561,10.7899,10.7894,10.7924,10.8011,10.802,10.802,10.8254,10.8723,10.9035,10.9581,11.0674,11.1299,11.1924,11.2548,11.2978,11.3095,11.3095,11.3095,11.3095,11.3086,11.3173,11.3138,11.3191,11.3201,11.3373,11.3551,11.394,11.4117,11.445,11.4428,11.4517,11.4382,11.4188,11.4571,11.5211,11.5693,11.5699,11.6094,11.6321,11.6582,11.649,11.6484,11.6522,11.6599,11.6638,11.6676,11.683,11.7138,11.7253,11.7561,11.7638,11.8016,11.8191,11.8288,11.8178,11.8039,11.805,11.7852,11.7546,11.7568,11.7645,11.7721,11.7798,11.7912,11.7989,11.8447,11.9097,11.9364,11.9517,11.9708,11.9785,12.0052,12.0281,12.0472,12.0625,12.0778,12.0778,12.0778]},{"header":{"parameterUnit":"m.s-1","parameterCategory":1,"la1":31.0,"la2":29.5877,"lo1":-88.7671,"lo2":-86.6584,"dy":0.0162,"dx":0.0185,"nx":115,"ny":88,"refTime":"2024-03-21T12:00:00:Z","depth":0,"parameterNumber":3,"parameterNumberName":"V-component_of_WINDS"},"data":[0.0,0.0,0.0,0.0,0.0,0.0,0.0,0.0,0.0,0.0,0.0,0.0,0.0,0.0,0.0,0.0,0.0,0.0,0.0,0.0,0.0,0.0,0.0,0.0,0.0,0.0,0.0,0.0,0.0,0.0,0.0,0.0,0.0,0.0,0.0,0.0,0.0,0.0,0.0,0.0,0.0,0.0,0.0,0.0,0.0,0.0,0.0,0.0,0.0,0.0,0.0,0.0,0.0,0.0,0.0,0.0,0.0,0.0,0.0,0.0,0.0,0.0,0.0,0.0,0.0,0.0,0.0,0.0,0.0,0.0,0.0,0.0,0.0,0.0,0.0,0.0,0.0,0.0,0.0,0.0,0.0,0.0,0.0,0.0,0.0,0.0,0.0,0.0,0.0,0.0,0.0,0.0,0.0,0.0,0.0,0.0,0.0,0.0,0.0,0.0,0.0,0.0,0.0,0.0,0.0,0.0,0.0,0.0,0.0,0.0,0.0,0.0,0.0,0.0,0.0,0.0,0.0,0.0,0.0,0.0,0.0,0.0,0.0,0.0,0.0,0.0,0.0,0.0,0.0,0.0,0.0,0.0,0.0,0.0,0.0,0.0,0.0,0.0,0.0,0.0,0.0,0.0,0.0,0.0,0.0,0.0,0.0,0.0,0.0,0.0,0.0,0.0,0.0,0.0,0.0,0.0,0.0,0.0,0.0,0.0,0.0,0.0,0.0,0.0,0.0,0.0,0.0,0.0,0.0,0.0,0.0,0.0,0.0,0.0,0.0,0.0,0.0,0.0,0.0,0.0,0.0,0.0,0.0,0.0,0.0,0.0,0.0,0.0,0.0,0.0,0.0,0.0,0.0,0.0,0.0,0.0,0.0,0.0,0.0,0.0,0.0,0.0,0.0,0.0,0.0,0.0,0.0,0.0,0.0,0.0,0.0,0.0,0.0,0.0,0.0,0.0,0.0,0.0,0.0,0.0,0.0,0.0,0.0,0.0,0.0,0.0,0.0,0.0,0.0,0.0,0.0,0.0,0.0,0.0,0.0,0.0,0.0,0.0,0.0,0.0,0.0,0.0,0.0,0.0,0.0,0.0,0.0,0.0,0.0,0.0,0.0,0.0,0.0,0.0,0.0,0.0,0.0,0.0,0.0,0.0,0.0,0.0,0.0,0.0,0.0,0.0,0.0,0.0,0.0,0.0,0.0,0.0,0.0,0.0,0.0,0.0,0.0,0.0,0.0,0.0,0.0,0.0,0.0,0.0,0.0,0.0,0.0,0.0,0.0,0.0,0.0,0.0,0.0,0.0,0.0,0.0,0.0,0.0,0.0,0.0,0.0,0.0,0.0,0.0,0.0,0.0,0.0,0.0,0.0,0.0,0.0,0.0,0.0,0.0,0.0,0.0,0.0,0.0,0.0,0.0,0.0,0.0,0.0,0.0,0.0,0.0,0.0,0.0,0.0,0.0,0.0,0.0,0.0,0.0,0.0,0.0,0.0,0.0,0.0,0.0,0.0,0.0,0.0,0.0,0.0,0.0,0.0,0.0,0.0,0.0,0.0,0.0,0.0,0.0,0.0,0.0,0.0,0.0,0.0,0.0,0.0,0.0,0.0,0.0,0.0,0.0,0.0,0.0,0.0,0.0,0.0,0.0,0.0,0.0,0.0,0.0,0.0,0.0,0.0,0.0,0.0,0.0,0.0,0.0,0.0,0.0,0.0,0.0,0.0,0.0,0.0,0.0,0.0,0.0,0.0,0.0,0.0,0.0,0.0,0.0,0.0,0.0,0.0,0.0,0.0,0.0,0.0,0.0,0.0,0.0,0.0,0.0,0.0,0.0,0.0,0.0,0.0,0.0,0.0,0.0,0.0,0.0,0.0,0.0,0.0,0.0,0.0,0.0,0.0,0.0,0.0,0.0,0.0,0.0,0.0,0.0,0.0,0.0,0.0,0.0,0.0,0.0,0.0,0.0,0.0,0.0,0.0,0.0,0.0,0.0,0.0,0.0,0.0,0.0,0.0,0.0,0.0,0.0,0.0,0.0,0.0,0.0,0.0,0.0,0.0,0.0,0.0,0.0,0.0,0.0,0.0,0.0,0.0,0.0,0.0,0.0,0.0,0.0,0.0,0.0,0.0,0.0,0.0,0.0,0.0,0.0,0.0,0.0,0.0,0.0,0.0,0.0,0.0,0.0,0.0,0.0,0.0,0.0,0.0,0.0,0.0,0.0,0.0,0.0,0.0,0.0,0.0,0.0,0.0,0.0,0.0,0.0,0.0,0.0,0.0,0.0,0.0,0.0,0.0,0.0,0.0,0.0,0.0,0.0,0.0,0.0,0.0,0.0,0.0,0.0,0.0,0.0,0.0,0.0,0.0,0.0,0.0,0.0,0.0,0.0,0.0,0.0,0.0,0.0,0.0,0.0,0.0,0.0,0.0,0.0,0.0,0.0,0.0,0.0,0.0,0.0,0.0,0.0,0.0,0.0,0.0,0.0,0.0,0.0,0.0,0.0,0.0,0.0,0.0,0.0,0.0,0.0,0.0,0.0,0.0,0.0,0.0,0.0,0.0,0.0,0.0,0.0,0.0,0.0,0.0,0.0,0.0,0.0,0.0,0.0,0.0,0.0,0.0,0.0,0.0,0.0,0.0,0.0,0.0,0.0,0.0,0.0,0.0,0.0,0.0,0.0,0.0,0.0,0.0,0.0,0.0,0.0,0.0,0.0,0.0,0.0,0.0,0.0,0.0,0.0,0.0,0.0,0.0,0.0,0.0,0.0,0.0,0.0,0.0,0.0,0.0,0.0,0.0,0.0,0.0,0.0,0.0,0.0,0.0,0.0,0.0,0.0,0.0,0.0,0.0,0.0,0.0,0.0,0.0,0.0,0.0,0.0,0.0,0.0,0.0,0.0,0.0,0.0,0.0,0.0,0.0,0.0,0.0,0.0,0.0,0.0,0.0,0.0,0.0,0.0,0.0,0.0,0.0,0.0,0.0,0.0,0.0,0.0,0.0,0.0,0.0,0.0,0.0,0.0,0.0,0.0,0.0,0.0,0.0,0.0,0.0,0.0,0.0,0.0,0.0,0.0,0.0,0.0,0.0,0.0,0.0,0.0,0.0,0.0,0.0,0.0,0.0,0.0,0.0,0.0,0.0,0.0,0.0,0.0,0.0,0.0,0.0,0.0,0.0,0.0,0.0,0.0,0.0,0.0,0.0,0.0,0.0,0.0,0.0,0.0,0.0,0.0,0.0,0.0,0.0,0.0,0.0,0.0,0.0,0.0,0.0,0.0,0.0,0.0,0.0,0.0,0.0,0.0,0.0,0.0,0.0,0.0,0.0,0.0,0.0,0.0,0.0,0.0,0.0,0.0,0.0,0.0,0.0,0.0,0.0,0.0,0.0,0.0,0.0,0.0,0.0,0.0,0.0,0.0,0.0,0.0,0.0,0.0,0.0,0.0,0.0,0.0,0.0,0.0,0.0,0.0,0.0,0.0,0.0,0.0,0.0,0.0,0.0,0.0,0.0,0.0,0.0,0.0,0.0,0.0,0.0,0.0,0.0,0.0,0.0,0.0,0.0,0.0,0.0,0.0,0.0,0.0,0.0,0.0,0.0,0.0,0.0,0.0,0.0,0.0,0.0,0.0,0.0,0.0,0.0,0.0,0.0,0.0,0.0,0.0,0.0,0.0,0.0,0.0,0.0,0.0,0.0,0.0,0.0,0.0,0.0,0.0,0.0,0.0,0.0,0.0,0.0,0.0,0.0,0.0,0.0,0.0,0.0,0.0,0.0,0.0,0.0,0.0,0.0,0.0,0.0,0.0,0.0,0.0,0.0,0.0,0.0,0.0,0.0,0.0,0.0,0.0,0.0,0.0,0.0,0.0,0.0,0.0,0.0,0.0,0.0,0.0,0.0,0.0,0.0,0.0,0.0,0.0,0.0,0.0,0.0,0.0,0.0,0.0,0.0,0.0,0.0,0.0,0.0,0.0,0.0,0.0,0.0,0.0,0.0,0.0,0.0,0.0,0.0,0.0,0.0,0.0,0.0,0.0,0.0,0.0,0.0,0.0,0.0,0.0,0.0,0.0,0.0,0.0,0.0,0.0,0.0,0.0,0.0,0.0,0.0,0.0,0.0,0.0,0.0,0.0,0.0,0.0,0.0,0.0,0.0,0.0,0.0,0.0,0.0,0.0,0.0,0.0,0.0,0.0,0.0,0.0,0.0,0.0,0.0,0.0,0.0,0.0,0.0,0.0,0.0,0.0,0.0,0.0,0.0,0.0,-0.9123,0.0,0.0,0.0,0.0,0.0,0.0,0.0,0.0,0.0,0.0,0.0,0.0,0.0,0.0,0.0,0.0,0.0,0.0,0.0,0.0,0.0,0.0,0.0,0.0,0.0,0.0,0.0,0.0,0.0,0.0,0.0,0.0,0.0,0.0,0.0,0.0,0.0,0.0,0.0,0.0,0.0,0.0,0.0,0.0,0.0,0.0,0.0,0.0,0.0,0.0,0.0,0.0,0.0,0.0,0.0,0.0,0.0,0.0,0.0,0.0,0.0,0.0,0.0,0.0,0.0,0.0,0.0,0.0,0.0,0.0,0.0,0.0,0.0,0.0,0.0,0.0,0.0,0.0,0.0,0.0,0.0,0.0,0.0,0.0,0.0,0.0,0.0,0.0,0.0,0.0,0.0,0.0,0.0,0.0,0.0,0.0,0.0,0.0,0.0,0.0,0.0,0.0,0.0,0.0,0.0,0.0,0.0,0.0,0.0,0.0,-0.9347,-0.951,-0.9442,-0.9327,-0.9157,0.0,0.0,0.0,0.0,0.0,0.0,0.0,0.0,0.0,0.0,0.0,0.0,0.0,0.0,0.0,0.0,0.0,0.0,0.0,0.0,0.0,0.0,0.0,0.0,0.0,0.0,0.0,0.0,0.0,0.0,0.0,0.0,0.0,0.0,0.0,0.0,0.0,0.0,0.0,0.0,0.0,0.0,0.0,0.0,0.0,0.0,0.0,0.0,0.0,0.0,0.0,0.0,0.0,0.0,0.0,0.0,0.0,0.0,0.0,0.0,0.0,0.0,0.0,0.0,0.0,0.0,0.0,0.0,0.0,0.0,0.0,0.0,0.0,0.0,0.0,0.0,0.0,0.0,0.0,0.0,0.0,0.0,0.0,0.0,0.0,0.0,0.0,0.0,0.0,0.0,0.0,0.0,0.0,0.0,0.0,0.0,0.0,0.0,0.0,0.0,0.0,0.0,0.0,0.0,0.0,0.0,0.0,0.0,0.0,0.0,0.0,0.0,-0.9625,-0.9462,-0.9164,0.0,0.0,0.0,0.0,0.0,0.0,0.0,0.0,0.0,0.0,0.0,0.0,0.0,0.0,0.0,0.0,0.0,0.0,0.0,0.0,0.0,0.0,0.0,0.0,0.0,0.0,0.0,0.0,0.0,0.0,0.0,0.0,0.0,0.0,0.0,0.0,0.0,0.0,0.0,0.0,0.0,0.0,0.0,0.0,0.0,0.0,0.0,0.0,0.0,0.0,0.0,0.0,0.0,0.0,0.0,0.0,0.0,0.0,0.0,0.0,0.0,0.0,0.0,0.0,0.0,0.0,0.0,0.0,0.0,0.0,0.0,0.0,0.0,0.0,0.0,0.0,0.0,0.0,0.0,0.0,0.0,0.0,0.0,0.0,0.0,0.0,0.0,0.0,0.0,0.0,0.0,0.0,0.0,0.0,0.0,0.0,0.0,0.0,0.0,0.0,0.0,0.0,0.0,0.0,0.0,0.0,0.0,0.0,0.0,0.0,-0.9329,-0.9316,-0.9553,0.0,-0.9171,0.0,0.0,0.0,0.0,0.0,0.0,0.0,0.0,0.0,0.0,0.0,0.0,0.0,0.0,0.0,0.0,0.0,0.0,0.0,0.0,0.0,0.0,0.0,0.0,0.0,0.0,0.0,0.0,0.0,0.0,0.0,0.0,0.0,0.0,0.0,0.0,0.0,0.0,0.0,0.0,0.0,0.0,0.0,0.0,0.0,0.0,0.0,0.0,0.0,0.0,0.0,0.0,0.0,0.0,0.0,0.0,0.0,0.0,0.0,0.0,0.0,0.0,0.0,0.0,0.0,0.0,0.0,0.0,0.0,0.0,0.0,0.0,0.0,0.0,0.0,0.0,0.0,0.0,0.0,0.0,0.0,0.0,0.0,0.0,0.0,0.0,0.0,0.0,0.0,0.0,0.0,0.0,0.0,0.0,0.0,0.0,0.0,0.0,0.0,0.0,0.0,0.0,0.0,0.0,0.0,0.0,0.0,0.0,0.0,0.0,-0.9098,-0.9335,-0.9361,-0.9298,0.0,0.0,0.0,0.0,0.0,0.0,0.0,0.0,0.0,0.0,0.0,0.0,0.0,0.0,0.0,0.0,0.0,0.0,0.0,0.0,0.0,0.0,0.0,0.0,0.0,0.0,0.0,0.0,0.0,0.0,0.0,0.0,0.0,0.0,0.0,0.0,0.0,0.0,0.0,0.0,0.0,0.0,0.0,0.0,0.0,0.0,0.0,0.0,0.0,0.0,0.0,0.0,0.0,0.0,0.0,0.0,0.0,0.0,0.0,0.0,0.0,0.0,0.0,0.0,0.0,0.0,0.0,0.0,0.0,0.0,0.0,0.0,0.0,0.0,0.0,0.0,0.0,0.0,0.0,0.0,0.0,0.0,0.0,0.0,0.0,0.0,0.0,0.0,0.0,0.0,0.0,0.0,0.0,0.0,0.0,0.0,0.0,0.0,0.0,0.0,0.0,0.0,0.0,0.0,0.0,0.0,0.0,0.0,0.0,0.0,-0.8488,-0.9098,-0.9444,-0.9301,-0.9149,-0.8916,0.0,0.0,0.0,0.0,0.0,0.0,0.0,0.0,0.0,0.0,0.0,0.0,0.0,0.0,0.0,0.0,0.0,0.0,0.0,0.0,0.0,0.0,0.0,0.0,0.0,0.0,0.0,0.0,0.0,0.0,0.0,0.0,0.0,0.0,0.0,0.0,0.0,0.0,0.0,0.0,0.0,0.0,0.0,0.0,0.0,0.0,0.0,0.0,0.0,0.0,0.0,0.0,0.0,0.0,0.0,0.0,0.0,0.0,0.0,0.0,0.0,0.0,0.0,0.0,0.0,0.0,0.0,0.0,0.0,0.0,0.0,0.0,0.0,0.0,0.0,0.0,0.0,0.0,0.0,0.0,0.0,0.0,0.0,0.0,0.0,0.0,0.0,0.0,0.0,0.0,0.0,0.0,0.0,0.0,0.0,0.0,0.0,0.0,0.0,0.0,0.0,0.0,0.0,0.0,0.0,0.0,0.0,0.0,-0.751,-0.8366,-0.922,-0.9694,-0.9183,-0.8916,0.0,0.0,0.0,0.0,0.0,0.0,0.0,0.0,0.0,0.0,0.0,0.0,0.0,0.0,0.0,0.0,0.0,0.0,0.0,0.0,0.0,0.0,0.0,0.0,0.0,0.0,0.0,0.0,0.0,0.0,0.0,0.0,0.0,0.0,0.0,0.0,0.0,0.0,0.0,0.0,0.0,0.0,0.0,0.0,0.0,0.0,0.0,0.0,0.0,0.0,0.0,0.0,0.0,0.0,0.0,0.0,0.0,0.0,0.0,0.0,0.0,0.0,0.0,0.0,0.0,0.0,0.0,0.0,0.0,0.0,0.0,0.0,0.0,0.0,0.0,0.0,0.0,0.0,0.0,0.0,0.0,0.0,0.0,0.0,0.0,0.0,0.0,0.0,0.0,0.0,0.0,0.0,0.0,0.0,0.0,0.0,0.0,0.0,0.0,0.0,0.0,0.0,0.0,0.0,0.0,0.0,0.0,0.0,0.0,-0.7388,-0.8366,-0.9214,-0.9694,-0.9183,-0.88,0.0,0.0,0.0,0.0,0.0,0.0,0.0,0.0,0.0,0.0,0.0,0.0,0.0,0.0,0.0,0.0,0.0,0.0,0.0,0.0,0.0,0.0,0.0,0.0,0.0,0.0,0.0,0.0,0.0,0.0,0.0,0.0,0.0,0.0,0.0,0.0,0.0,0.0,0.0,0.0,0.0,0.0,0.0,0.0,0.0,0.0,0.0,0.0,0.0,0.0,0.0,0.0,0.0,0.0,0.0,0.0,0.0,0.0,0.0,0.0,0.0,0.0,0.0,0.0,0.0,0.0,0.0,0.0,0.0,0.0,0.0,0.0,0.0,0.0,0.0,0.0,0.0,0.0,0.0,0.0,0.0,0.0,0.0,0.0,0.0,0.0,0.0,0.0,0.0,0.0,0.0,0.0,0.0,0.0,0.0,0.0,0.0,0.0,0.0,0.0,0.0,0.0,0.0,0.0,0.0,0.0,0.0,0.0,0.0,-0.7932,0.0,-0.9406,-0.9761,-0.9181,-0.866,0.0,0.0,0.0,0.0,0.0,0.0,0.0,0.0,0.0,0.0,0.0,0.0,0.0,0.0,0.0,0.0,0.0,0.0,0.0,0.0,0.0,0.0,0.0,0.0,0.0,0.0,0.0,0.0,0.0,0.0,0.0,0.0,0.0,0.0,0.0,0.0,0.0,0.0,0.0,0.0,0.0,0.0,0.0,0.0,0.0,0.0,0.0,0.0,0.0,0.0,0.0,0.0,0.0,0.0,0.0,0.0,0.0,0.0,0.0,0.0,0.0,0.0,0.0,0.0,0.0,0.0,0.0,0.0,0.0,0.0,0.0,0.0,0.0,0.0,0.0,0.0,0.0,0.0,0.0,0.0,0.0,0.0,0.0,0.0,0.0,0.0,0.0,0.0,0.0,0.0,0.0,0.0,0.0,0.0,0.0,0.0,0.0,0.0,0.0,0.0,0.0,0.0,0.0,0.0,0.0,0.0,0.0,0.0,-0.7573,-0.9056,-0.9436,-0.9692,-0.9928,-0.929,-0.8606,0.0,0.0,0.0,0.0,0.0,0.0,0.0,0.0,0.0,0.0,0.0,0.0,0.0,0.0,0.0,0.0,0.0,0.0,0.0,0.0,0.0,0.0,0.0,0.0,0.0,0.0,0.0,0.0,0.0,0.0,0.0,0.0,0.0,0.0,0.0,0.0,0.0,0.0,0.0,0.0,0.0,0.0,0.0,0.0,0.0,0.0,0.0,0.0,0.0,0.0,0.0,0.0,0.0,0.0,0.0,0.0,0.0,0.0,0.0,0.0,0.0,0.0,0.0,0.0,0.0,0.0,0.0,0.0,0.0,0.0,0.0,0.0,0.0,0.0,0.0,0.0,0.0,0.0,0.0,0.0,0.0,0.0,0.0,0.0,0.0,0.0,0.0,0.0,0.0,0.0,0.0,0.0,0.0,0.0,0.0,0.0,0.0,0.0,0.0,0.0,0.0,0.0,0.0,0.0,0.0,0.0,0.0,0.0,0.0,-0.8816,-0.9026,-0.9331,-0.9575,-0.8986,-0.8494,0.0,0.0,0.0,0.0,0.0,0.0,0.0,0.0,0.0,0.0,0.0,0.0,0.0,0.0,0.0,0.0,0.0,0.0,0.0,0.0,0.0,0.0,0.0,0.0,0.0,0.0,0.0,0.0,0.0,0.0,0.0,0.0,0.0,0.0,0.0,0.0,0.0,0.0,0.0,0.0,0.0,0.0,0.0,0.0,0.0,0.0,0.0,0.0,0.0,0.0,0.0,0.0,0.0,0.0,0.0,0.0,0.0,0.0,0.0,0.0,0.0,0.0,0.0,0.0,0.0,0.0,0.0,0.0,0.0,0.0,0.0,0.0,0.0,0.0,0.0,0.0,0.0,0.0,0.0,0.0,0.0,0.0,0.0,0.0,0.0,0.0,0.0,0.0,0.0,0.0,0.0,0.0,0.0,0.0,0.0,0.0,0.0,0.0,0.0,0.0,0.0,0.0,0.0,0.0,0.0,0.0,0.0,0.0,0.0,-0.9094,-0.8995,-0.9146,-0.9413,-0.8813,-0.8413,-0.8204,0.0,0.0,0.0,0.0,0.0,0.0,0.0,0.0,0.0,0.0,0.0,0.0,0.0,0.0,0.0,0.0,0.0,0.0,0.0,0.0,0.0,0.0,0.0,0.0,0.0,0.0,0.0,0.0,0.0,0.0,0.0,0.0,0.0,0.0,0.0,0.0,0.0,0.0,0.0,0.0,0.0,0.0,0.0,0.0,0.0,0.0,0.0,0.0,0.0,0.0,0.0,0.0,0.0,0.0,0.0,0.0,0.0,0.0,0.0,0.0,0.0,0.0,0.0,0.0,0.0,0.0,0.0,0.0,0.0,0.0,0.0,0.0,0.0,0.0,0.0,0.0,0.0,0.0,0.0,0.0,0.0,0.0,0.0,0.0,0.0,0.0,0.0,0.0,0.0,0.0,0.0,0.0,0.0,0.0,0.0,0.0,0.0,0.0,0.0,0.0,0.0,0.0,0.0,0.0,0.0,0.0,0.0,0.0,-0.9735,-0.9501,-0.9299,-0.9265,-0.8867,-0.8568,0.0,0.0,0.0,0.0,0.0,0.0,0.0,0.0,0.0,0.0,0.0,0.0,0.0,0.0,0.0,0.0,0.0,0.0,0.0,0.0,0.0,0.0,0.0,0.0,0.0,0.0,0.0,0.0,0.0,0.0,0.0,0.0,0.0,0.0,0.0,0.0,0.0,0.0,0.0,0.0,0.0,0.0,0.0,0.0,0.0,0.0,0.0,0.0,0.0,0.0,0.0,0.0,0.0,0.0,0.0,0.0,0.0,0.0,0.0,0.0,0.0,0.0,0.0,0.0,0.0,0.0,0.0,0.0,0.0,0.0,0.0,0.0,0.0,0.0,0.0,0.0,0.0,0.0,0.0,0.0,0.0,0.0,0.0,0.0,0.0,0.0,0.0,0.0,0.0,0.0,0.0,0.0,0.0,0.0,0.0,0.0,0.0,0.0,0.0,0.0,0.0,0.0,0.0,0.0,0.0,0.0,0.0,0.0,0.0,-0.9788,-0.9264,-0.9071,-0.905,-0.8842,-0.8347,0.0,0.0,0.0,0.0,0.0,0.0,0.0,0.0,0.0,0.0,0.0,0.0,0.0,0.0,0.0,0.0,0.0,0.0,0.0,0.0,0.0,0.0,0.0,0.0,0.0,0.0,0.0,0.0,0.0,0.0,0.0,0.0,0.0,0.0,0.0,0.0,0.0,0.0,0.0,0.0,0.0,0.0,0.0,0.0,0.0,0.0,0.0,0.0,0.0,0.0,0.0,0.0,0.0,0.0,0.0,0.0,0.0,0.0,0.0,0.0,0.0,0.0,0.0,0.0,0.0,0.0,0.0,0.0,0.0,0.0,0.0,0.0,0.0,0.0,0.0,0.0,0.0,0.0,0.0,0.0,0.0,0.0,0.0,0.0,0.0,0.0,0.0,0.0,0.0,0.0,0.0,0.0,0.0,0.0,0.0,0.0,0.0,0.0,0.0,0.0,0.0,0.0,0.0,0.0,0.0,0.0,0.0,0.0,-1.0633,-1.0755,-1.0066,-0.9682,-0.9636,-0.8721,-0.8266,0.0,0.0,0.0,0.0,0.0,0.0,0.0,0.0,0.0,0.0,0.0,0.0,0.0,0.0,0.0,0.0,0.0,0.0,0.0,0.0,0.0,0.0,0.0,0.0,0.0,0.0,0.0,0.0,0.0,0.0,0.0,0.0,0.0,0.0,0.0,0.0,0.0,0.0,0.0,0.0,0.0,0.0,0.0,0.0,0.0,0.0,0.0,0.0,0.0,0.0,0.0,0.0,0.0,0.0,0.0,0.0,0.0,0.0,0.0,0.0,0.0,0.0,0.0,0.0,0.0,0.0,0.0,0.0,0.0,0.0,0.0,0.0,0.0,0.0,0.0,0.0,0.0,0.0,0.0,0.0,0.0,0.0,0.0,0.0,0.0,0.0,0.0,0.0,0.0,0.0,0.0,0.0,0.0,0.0,0.0,0.0,0.0,0.0,0.0,0.0,0.0,0.0,0.0,0.0,0.0,0.0,0.0,0.0,-1.145,-1.2153,-1.1392,-1.0854,-1.0584,-0.8894,-0.8177,0.0,0.0,0.0,0.0,0.0,0.0,0.0,0.0,0.0,0.0,0.0,0.0,0.0,0.0,0.0,0.0,0.0,0.0,0.0,0.0,0.0,0.0,0.0,0.0,0.0,0.0,0.0,0.0,0.0,0.0,0.0,0.0,0.0,0.0,0.0,0.0,0.0,0.0,0.0,0.0,0.0,0.0,0.0,0.0,0.0,0.0,0.0,0.0,0.0,0.0,0.0,0.0,0.0,0.0,0.0,0.0,0.0,0.0,0.0,0.0,0.0,0.0,0.0,0.0,0.0,0.0,0.0,0.0,0.0,0.0,0.0,0.0,0.0,0.0,0.0,0.0,0.0,0.0,0.0,0.0,0.0,0.0,0.0,0.0,0.0,0.0,0.0,0.0,0.0,0.0,0.0,0.0,0.0,0.0,0.0,0.0,0.0,0.0,0.0,0.0,0.0,0.0,0.0,0.0,0.0,0.0,0.0,0.0,-1.1889,-1.2585,-1.1779,-1.1351,-1.1373,-0.9746,-0.8678,0.0,0.0,0.0,0.0,0.0,0.0,0.0,0.0,0.0,0.0,0.0,0.0,0.0,0.0,0.0,0.0,0.0,0.0,0.0,0.0,0.0,0.0,0.0,0.0,0.0,0.0,0.0,0.0,0.0,0.0,0.0,0.0,0.0,0.0,0.0,0.0,0.0,0.0,0.0,0.0,0.0,0.0,0.0,0.0,0.0,0.0,0.0,0.0,-1.2304,0.0,0.0,0.0,0.0,0.0,0.0,0.0,0.0,0.0,0.0,0.0,0.0,0.0,0.0,0.0,0.0,0.0,0.0,0.0,0.0,0.0,0.0,0.0,0.0,0.0,0.0,0.0,0.0,0.0,0.0,0.0,0.0,0.0,0.0,0.0,0.0,0.0,0.0,0.0,0.0,0.0,0.0,0.0,0.0,0.0,0.0,0.0,0.0,0.0,0.0,0.0,0.0,0.0,0.0,0.0,0.0,0.0,0.0,0.0,-1.1899,-1.2483,-1.1992,-1.1748,-1.1596,-1.0234,-0.915,0.0,0.0,0.0,0.0,0.0,0.0,0.0,0.0,0.0,0.0,0.0,0.0,0.0,0.0,0.0,0.0,0.0,0.0,0.0,0.0,0.0,0.0,0.0,0.0,0.0,0.0,0.0,0.0,0.0,0.0,0.0,0.0,0.0,0.0,0.0,0.0,0.0,0.0,0.0,0.0,0.0,0.0,0.0,0.0,0.0,0.0,0.0,0.0,0.0,0.0,0.0,0.0,0.0,0.0,0.0,0.0,0.0,0.0,0.0,0.0,0.0,0.0,0.0,0.0,0.0,0.0,0.0,0.0,0.0,0.0,0.0,0.0,0.0,0.0,0.0,0.0,0.0,0.0,0.0,0.0,0.0,0.0,0.0,0.0,0.0,0.0,0.0,0.0,0.0,0.0,0.0,0.0,0.0,0.0,0.0,0.0,0.0,0.0,0.0,0.0,0.0,0.0,0.0,0.0,0.0,0.0,0.0,-1.1001,-1.1671,-1.2113,-1.2102,-1.204,-1.177,-1.0615,-0.9354,-0.8491,0.0,0.0,0.0,0.0,0.0,0.0,0.0,0.0,0.0,0.0,0.0,0.0,0.0,0.0,0.0,0.0,0.0,0.0,0.0,0.0,0.0,0.0,0.0,0.0,0.0,0.0,0.0,0.0,0.0,0.0,0.0,0.0,0.0,0.0,0.0,0.0,0.0,0.0,-1.1646,-1.2426,0.0,0.0,0.0,0.0,0.0,0.0,0.0,0.0,-1.3019,0.0,0.0,0.0,0.0,0.0,0.0,0.0,0.0,0.0,0.0,0.0,0.0,0.0,0.0,0.0,0.0,0.0,0.0,0.0,0.0,0.0,0.0,0.0,0.0,0.0,0.0,0.0,0.0,0.0,0.0,0.0,0.0,0.0,0.0,0.0,0.0,0.0,0.0,0.0,0.0,0.0,0.0,0.0,0.0,0.0,0.0,0.0,0.0,0.0,0.0,0.0,0.0,0.0,0.0,0.0,0.0,-1.016,-1.0631,-1.1091,-1.1727,-1.1427,-1.1092,-1.1102,-1.0155,-0.9118,-0.8189,0.0,0.0,0.0,0.0,0.0,0.0,0.0,0.0,0.0,0.0,0.0,0.0,0.0,0.0,0.0,0.0,0.0,0.0,0.0,0.0,0.0,0.0,0.0,0.0,0.0,0.0,0.0,0.0,0.0,0.0,0.0,0.0,0.0,0.0,0.0,0.0,0.0,0.0,0.0,-1.3133,-1.3587,0.0,0.0,0.0,0.0,0.0,0.0,0.0,0.0,-1.3214,0.0,0.0,0.0,0.0,0.0,0.0,0.0,0.0,0.0,0.0,0.0,0.0,0.0,0.0,0.0,0.0,0.0,0.0,0.0,0.0,0.0,0.0,0.0,0.0,0.0,0.0,0.0,0.0,0.0,0.0,0.0,0.0,0.0,0.0,0.0,0.0,0.0,0.0,0.0,0.0,0.0,0.0,0.0,0.0,0.0,0.0,0.0,0.0,0.0,0.0,0.0,0.0,0.0,0.0,0.0,-0.9504,-0.9709,-0.991,-1.0299,-0.9988,-0.9974,-1.0092,-0.952,-0.888,0.0,0.0,0.0,0.0,0.0,0.0,0.0,0.0,0.0,0.0,0.0,0.0,0.0,0.0,0.0,0.0,0.0,0.0,0.0,0.0,0.0,0.0,0.0,0.0,0.0,0.0,0.0,0.0,0.0,0.0,0.0,0.0,0.0,0.0,0.0,0.0,0.0,0.0,0.0,0.0,-1.3579,-1.4018,-1.4278,0.0,0.0,0.0,0.0,0.0,0.0,-1.379,-1.3693,0.0,0.0,0.0,0.0,0.0,0.0,0.0,0.0,0.0,0.0,0.0,0.0,0.0,0.0,0.0,0.0,0.0,0.0,0.0,0.0,0.0,0.0,0.0,0.0,0.0,0.0,0.0,0.0,0.0,0.0,0.0,0.0,0.0,0.0,0.0,0.0,0.0,0.0,0.0,0.0,0.0,0.0,0.0,0.0,0.0,0.0,0.0,0.0,0.0,0.0,0.0,0.0,0.0,0.0,0.0,-0.8563,-0.8653,-0.8594,-0.8552,-0.8365,-0.8301,-0.8744,-0.856,-0.8148,0.0,0.0,0.0,0.0,0.0,0.0,0.0,0.0,0.0,0.0,0.0,0.0,0.0,0.0,0.0,0.0,0.0,0.0,0.0,0.0,0.0,0.0,0.0,0.0,0.0,0.0,0.0,0.0,0.0,0.0,0.0,0.0,0.0,0.0,0.0,0.0,0.0,0.0,0.0,0.0,0.0,-1.4464,-1.4822,-1.4903,0.0,0.0,0.0,0.0,-1.4416,-1.4367,0.0,0.0,0.0,0.0,0.0,0.0,0.0,0.0,0.0,0.0,0.0,0.0,0.0,0.0,0.0,0.0,0.0,0.0,0.0,0.0,0.0,0.0,0.0,0.0,0.0,0.0,0.0,0.0,0.0,0.0,0.0,0.0,0.0,0.0,0.0,0.0,0.0,0.0,0.0,0.0,0.0,0.0,0.0,0.0,0.0,0.0,0.0,0.0,0.0,0.0,0.0,0.0,0.0,0.0,0.0,0.0,-0.7553,-0.7289,-0.7117,-0.7094,-0.639,-0.6258,-0.6715,-0.7116,-0.7087,0.0,0.0,0.0,0.0,0.0,0.0,0.0,0.0,0.0,0.0,0.0,0.0,0.0,0.0,0.0,0.0,0.0,0.0,0.0,0.0,0.0,0.0,0.0,0.0,0.0,0.0,0.0,0.0,0.0,0.0,0.0,0.0,0.0,0.0,0.0,0.0,0.0,0.0,0.0,0.0,0.0,-1.5009,-1.5374,-1.5553,-1.5593,0.0,0.0,-1.5325,-1.5147,-1.4984,0.0,0.0,0.0,0.0,0.0,0.0,0.0,0.0,0.0,0.0,0.0,0.0,0.0,0.0,0.0,0.0,0.0,0.0,0.0,0.0,0.0,0.0,0.0,0.0,0.0,0.0,0.0,0.0,0.0,0.0,0.0,0.0,0.0,0.0,0.0,0.0,0.0,0.0,0.0,0.0,0.0,0.0,0.0,0.0,0.0,0.0,0.0,0.0,0.0,0.0,0.0,0.0,0.0,0.0,0.0,-0.7008,-0.6994,-0.6344,-0.6088,-0.6013,-0.5276,-0.5115,-0.5548,-0.5976,-0.6168,0.0,0.0,0.0,0.0,0.0,0.0,0.0,0.0,0.0,0.0,0.0,0.0,0.0,0.0,0.0,0.0,0.0,0.0,0.0,0.0,0.0,0.0,0.0,0.0,0.0,0.0,0.0,0.0,0.0,0.0,0.0,0.0,0.0,0.0,0.0,0.0,0.0,0.0,0.0,0.0,0.0,0.0,-1.5894,-1.6202,0.0,0.0,0.0,-1.6324,-1.604,0.0,0.0,0.0,0.0,0.0,0.0,0.0,0.0,0.0,0.0,0.0,0.0,0.0,0.0,0.0,0.0,0.0,0.0,0.0,0.0,0.0,0.0,0.0,0.0,0.0,0.0,0.0,0.0,0.0,0.0,0.0,0.0,0.0,0.0,0.0,0.0,0.0,0.0,0.0,0.0,0.0,0.0,0.0,0.0,0.0,0.0,0.0,0.0,0.0,0.0,0.0,0.0,0.0,0.0,0.0,0.0,0.0,-0.6136,-0.5544,-0.5066,-0.4952,-0.4355,-0.4011,-0.4447,-0.4908,0.0,0.0,0.0,0.0,0.0,0.0,0.0,0.0,0.0,0.0,0.0,0.0,0.0,0.0,0.0,0.0,0.0,0.0,0.0,0.0,0.0,0.0,0.0,0.0,0.0,0.0,0.0,-0.7631,0.0,0.0,0.0,0.0,0.0,0.0,0.0,0.0,0.0,0.0,0.0,0.0,0.0,0.0,-1.5861,-1.643,-1.6852,-1.712,0.0,0.0,-1.725,-1.6901,-1.6885,-1.6657,0.0,0.0,0.0,0.0,0.0,0.0,0.0,0.0,0.0,0.0,0.0,0.0,0.0,0.0,0.0,0.0,0.0,0.0,0.0,0.0,0.0,0.0,0.0,0.0,0.0,0.0,0.0,0.0,0.0,0.0,0.0,0.0,0.0,0.0,0.0,0.0,0.0,0.0,0.0,0.0,0.0,0.0,0.0,0.0,0.0,0.0,0.0,0.0,0.0,0.0,0.0,0.0,0.0,0.0,0.0,-0.4572,-0.4468,-0.4089,-0.3589,-0.3116,-0.3116,-0.3421,-0.3768,-0.4064,0.0,0.0,0.0,0.0,0.0,0.0,0.0,0.0,0.0,0.0,0.0,0.0,0.0,0.0,0.0,0.0,0.0,0.0,0.0,0.0,0.0,0.0,0.0,0.0,0.0,0.0,0.0,0.0,0.0,0.0,0.0,0.0,0.0,0.0,0.0,0.0,0.0,0.0,0.0,0.0,0.0,-1.6267,-1.6958,-1.751,-1.7843,0.0,-1.7989,-1.7981,-1.7624,-1.7299,-1.6958,-1.6568,0.0,0.0,0.0,0.0,0.0,0.0,0.0,0.0,0.0,0.0,0.0,0.0,0.0,0.0,0.0,0.0,0.0,0.0,0.0,0.0,0.0,0.0,0.0,0.0,0.0,0.0,0.0,0.0,0.0,0.0,0.0,0.0,0.0,0.0,0.0,0.0,0.0,0.0,0.0,0.0,0.0,0.0,0.0,0.0,0.0,0.0,0.0,0.0,0.0,0.0,0.0,0.0,0.0,-0.4406,-0.443,-0.3852,-0.3433,-0.3415,-0.2921,-0.275,-0.291,-0.3253,-0.3566,0.0,0.0,0.0,0.0,0.0,0.0,0.0,0.0,0.0,0.0,0.0,0.0,0.0,0.0,0.0,0.0,0.0,0.0,0.0,0.0,0.0,0.0,0.0,0.0,0.0,0.0,0.0,0.0,-0.9333,-1.0059,-1.0705,0.0,0.0,0.0,0.0,0.0,0.0,0.0,0.0,0.0,0.0,-1.6291,-1.7339,-1.7715,0.0,0.0,-1.8655,-1.868,-1.8208,-1.7932,-1.7567,-1.6998,-1.6251,0.0,0.0,0.0,0.0,0.0,0.0,0.0,0.0,0.0,0.0,0.0,0.0,0.0,0.0,0.0,0.0,0.0,0.0,0.0,0.0,0.0,0.0,0.0,0.0,0.0,0.0,0.0,0.0,0.0,0.0,0.0,0.0,0.0,0.0,0.0,0.0,0.0,0.0,0.0,0.0,0.0,0.0,0.0,0.0,0.0,0.0,0.0,0.0,0.0,0.0,0.0,0.0,-0.3749,-0.3833,-0.337,-0.309,-0.3233,-0.2895,-0.2728,-0.2733,-0.2925,-0.3099,0.0,0.0,0.0,0.0,0.0,0.0,0.0,0.0,0.0,0.0,0.0,0.0,0.0,0.0,0.0,0.0,0.0,0.0,0.0,0.0,0.0,0.0,0.0,0.0,0.0,0.0,0.0,0.0,-0.9618,-1.0462,-1.1451,0.0,0.0,0.0,0.0,0.0,0.0,0.0,0.0,0.0,0.0,-1.6323,-1.723,-1.7947,-1.8379,-1.8503,-1.9094,-1.9094,-1.8606,-1.833,-1.7949,-1.7299,0.0,0.0,0.0,0.0,0.0,0.0,0.0,0.0,0.0,0.0,0.0,0.0,0.0,0.0,0.0,0.0,0.0,0.0,0.0,0.0,0.0,0.0,0.0,0.0,0.0,0.0,0.0,0.0,0.0,0.0,-0.166,0.0,0.0,0.0,0.0,0.0,0.0,0.0,0.0,0.0,0.0,0.0,0.0,0.0,0.0,0.0,0.0,0.0,0.0,0.0,0.0,0.0,0.0,-0.2961,-0.2805,-0.3028,-0.2894,-0.2688,-0.2694,-0.2707,-0.2735,-0.2622,-0.297,-0.3421,0.0,0.0,0.0,0.0,0.0,0.0,0.0,0.0,0.0,0.0,0.0,0.0,0.0,0.0,0.0,0.0,0.0,0.0,0.0,0.0,0.0,0.0,0.0,0.0,0.0,0.0,-0.894,-0.9766,-1.06,0.0,0.0,0.0,0.0,0.0,0.0,0.0,0.0,0.0,0.0,-1.5965,-1.6354,-1.6793,-1.7589,-1.8278,-1.8418,-1.8853,-1.9142,-1.8785,-1.842,-1.7997,0.0,0.0,0.0,0.0,0.0,0.0,0.0,0.0,0.0,0.0,0.0,0.0,0.0,0.0,0.0,0.0,0.0,0.0,0.0,0.0,0.0,0.0,0.0,0.0,0.0,0.0,0.0,-0.1735,-0.1734,0.0,0.0,0.0,0.0,0.0,0.0,0.0,0.0,0.0,0.0,0.0,-0.2178,-0.247,0.0,0.0,0.0,0.0,0.0,0.0,0.0,0.0,0.0,0.0,0.0,0.0,-0.2704,-0.27,-0.2736,-0.2722,-0.2658,-0.2682,-0.2707,-0.2735,-0.2623,-0.3093,-0.4011,0.0,0.0,0.0,0.0,0.0,0.0,0.0,0.0,0.0,0.0,0.0,0.0,0.0,0.0,0.0,0.0,0.0,0.0,0.0,0.0,0.0,0.0,0.0,0.0,0.0,-0.9167,0.0,0.0,0.0,0.0,0.0,0.0,0.0,0.0,0.0,0.0,0.0,-1.468,-1.5435,-1.5548,-1.6074,-1.6852,-1.7201,-1.7769,0.0,0.0,0.0,0.0,0.0,0.0,0.0,0.0,0.0,0.0,0.0,0.0,0.0,0.0,-1.6487,-1.5658,-1.5407,-1.5268,-1.5098,0.0,0.0,0.0,0.0,0.0,0.0,0.0,0.0,0.0,0.0,0.0,0.0,0.0,0.0,-0.1858,0.0,-0.1827,0.0,0.0,0.0,0.0,0.0,0.0,0.0,0.0,-0.2068,-0.2112,-0.2142,-0.2307,-0.2577,0.0,-0.2651,-0.2692,0.0,0.0,0.0,0.0,0.0,0.0,0.0,0.0,-0.2452,-0.2576,-0.259,-0.2557,-0.2643,-0.2677,-0.2706,-0.2733,-0.2937,-0.3379,-0.3987,-0.5008,-0.5793,0.0,0.0,0.0,0.0,0.0,0.0,0.0,0.0,0.0,0.0,0.0,0.0,0.0,0.0,0.0,0.0,0.0,0.0,0.0,0.0,0.0,0.0,0.0,-0.9613,0.0,0.0,0.0,0.0,0.0,0.0,0.0,0.0,0.0,-1.4136,-1.4361,-1.4708,-1.5376,-1.5563,-1.5803,-1.6457,0.0,0.0,0.0,0.0,0.0,0.0,0.0,-1.885,-1.8663,-1.8395,-1.82,-1.82,-1.8095,-1.8038,-1.8095,0.0,0.0,-1.6714,-1.6414,-1.63,-1.6186,-1.6113,-1.6146,-1.6373,-1.6519,-1.6649,0.0,0.0,0.0,0.0,0.0,0.0,0.0,0.0,-0.1982,-0.1982,0.0,-0.1948,0.0,0.0,0.0,0.0,0.0,-0.1969,0.0,0.0,-0.2133,-0.2176,-0.2206,-0.2237,-0.2375,-0.2759,-0.2481,-0.2443,-0.2636,-0.2493,0.0,0.0,0.0,0.0,0.0,0.0,-0.22,-0.2293,-0.2439,-0.2557,-0.2642,-0.2676,-0.2705,-0.2727,-0.3399,-0.3686,-0.3508,-0.4774,-0.5626,-0.5946,-0.7197,0.0,0.0,0.0,0.0,0.0,0.0,0.0,0.0,0.0,0.0,0.0,0.0,0.0,0.0,0.0,0.0,0.0,0.0,0.0,0.0,-0.949,0.0,0.0,0.0,0.0,0.0,0.0,0.0,0.0,0.0,0.0,-1.4253,-1.4509,-1.4711,-1.5134,0.0,0.0,0.0,0.0,-1.7106,-1.7113,-1.806,-1.8924,-1.8761,-1.8996,-1.9216,-1.9053,0.0,0.0,-1.8777,-1.8777,-1.8834,-1.8988,-1.9013,-1.8688,-1.7681,-1.7478,-1.7429,-1.7413,-1.7274,-1.7291,-1.7583,-1.7656,-1.7721,-0.2222,0.0,0.0,0.0,0.0,-0.2068,-0.2084,-0.2104,-0.2104,-0.2104,-0.2101,-0.2049,0.0,0.0,0.0,0.0,0.0,0.0,-0.2124,-0.2165,-0.2244,-0.2286,-0.2297,-0.2348,-0.2504,-0.2909,-0.2737,-0.2689,-0.2893,-0.2687,-0.2464,-0.2106,0.0,0.0,0.0,0.0,-0.223,-0.2322,-0.2448,-0.2547,-0.2613,-0.2665,-0.2675,-0.2642,-0.3356,-0.3852,-0.4292,-0.5314,-0.6229,-0.7008,-0.7775,0.0,0.0,0.0,0.0,0.0,0.0,0.0,0.0,0.0,0.0,0.0,0.0,0.0,0.0,0.0,0.0,0.0,0.0,0.0,-0.9537,-0.9917,-1.0287,0.0,0.0,0.0,0.0,0.0,0.0,0.0,0.0,0.0,-1.4397,-1.4549,-1.4814,0.0,0.0,-1.5657,-1.5805,-1.6316,-1.6745,-1.7263,-1.7523,0.0,-1.8868,-1.9143,-1.9266,-1.9743,-1.9817,-1.9865,-1.9865,-1.9865,-1.9882,-1.9922,-1.9841,-1.9646,-1.9362,-1.8866,-1.8509,-1.8371,-1.8298,-1.833,-1.8541,-1.8598,-1.8655,-0.244,-0.2324,-0.2236,-0.2191,-0.2184,-0.2206,-0.2219,-0.2226,-0.2238,-0.2237,-0.2222,-0.2162,-0.2136,-0.2132,-0.2074,0.0,0.0,0.0,-0.2213,-0.2255,-0.232,-0.2357,-0.2371,-0.2406,-0.2565,-0.2995,-0.2823,-0.2776,-0.2847,-0.2685,-0.248,-0.211,0.0,0.0,-0.2102,-0.2191,-0.2274,-0.2352,-0.247,-0.2555,-0.2601,-0.2649,-0.2645,-0.2909,-0.3329,-0.4022,-0.4646,-0.5693,-0.6641,-0.7463,-0.8274,-0.8775,0.0,0.0,0.0,0.0,0.0,0.0,0.0,0.0,0.0,0.0,0.0,-0.8647,-0.8862,0.0,0.0,0.0,-0.9415,-0.9598,-1.0046,-1.031,0.0,0.0,0.0,0.0,0.0,0.0,0.0,-1.3283,-1.3684,-1.395,-1.4374,-1.4701,-1.5028,-1.5459,-1.5643,-1.5764,-1.6001,0.0,-1.6517,-1.7016,-1.7341,-1.7862,-1.8998,-1.9199,-1.9631,-2.0361,-2.0458,-2.0531,-2.0531,-2.0531,-2.0531,-2.0515,-2.045,-2.0361,-2.0288,-1.9914,-1.9508,-1.9216,-1.9151,-1.9183,-1.9289,-1.941,-1.9549,-0.2638,-0.2756,-0.2581,-0.2341,-0.2315,-0.2367,-0.2372,-0.2349,-0.2373,-0.2369,-0.2339,-0.2282,-0.2255,-0.2248,-0.2193,0.0,-0.2215,-0.2243,-0.2286,-0.2341,-0.2371,-0.2399,-0.2427,-0.2429,-0.2583,-0.3038,-0.2581,-0.2548,-0.2932,-0.2488,-0.2311,-0.2256,-0.2203,-0.2173,-0.217,-0.2251,-0.2323,-0.2382,-0.2496,-0.257,-0.2601,-0.2627,-0.2777,-0.3198,-0.3473,-0.403,-0.4848,-0.591,-0.6725,-0.7566,-0.8531,-0.9169,-0.9303,0.0,0.0,0.0,0.0,0.0,0.0,0.0,0.0,0.0,0.0,0.0,0.0,0.0,0.0,0.0,-0.9827,0.0,-1.0487,-1.0677,0.0,0.0,0.0,-1.1695,-1.2276,-1.2162,-1.2338,-1.3408,0.0,0.0,-1.4475,-1.493,-1.5269,-1.5445,-1.5818,-1.6144,-1.6307,-1.6558,-1.6748,-1.6741,-1.7405,-1.8236,-1.8865,-1.9646,-2.019,-2.084,-2.0889,-2.0897,-2.0889,-2.0872,-2.0872,-2.0864,-2.0848,-2.0775,-2.0621,-2.0523,-2.0418,-1.9898,-1.9833,-1.9849,-1.9865,-2.0101,-2.0312,-0.3737,-0.3666,-0.377,-0.3188,-0.2463,-0.2476,-0.2477,-0.247,-0.2454,-0.2443,-0.2432,-0.2373,-0.2334,-0.2311,-0.2297,-0.2307,-0.2335,-0.2343,-0.2367,-0.2403,-0.2433,-0.2451,-0.2459,-0.2482,-0.2648,-0.3111,-0.2932,-0.291,-0.3045,-0.2867,-0.2682,-0.2349,-0.2354,-0.2326,-0.2263,-0.2301,-0.2353,-0.2412,-0.2487,-0.2549,-0.26,-0.2587,-0.2735,-0.3196,-0.3601,-0.4151,-0.5298,-0.6106,-0.6962,-0.8085,-0.8785,-0.9389,-0.9838,-0.9757,0.0,0.0,0.0,0.0,0.0,0.0,0.0,0.0,0.0,-0.9396,-0.971,0.0,-0.9641,0.0,-1.0195,-1.0602,-1.0819,-1.1077,0.0,0.0,-1.1653,-1.1972,-1.2313,-1.267,-1.2929,-1.3576,-1.411,-1.4555,-1.4787,-1.5147,-1.5499,-1.5866,-1.6015,-1.6178,-1.6429,-1.6625,-1.6748,-1.6768,-1.7126,-1.7699,-1.8682,-1.9999,-2.0835,-2.1067,-2.1165,-2.1262,-2.1254,-2.1148,-2.1067,-2.1043,-2.0832,-2.0661,-2.0604,-2.0491,-2.0361,-2.0231,-2.0304,-2.0409,-2.0409,-2.0572,-2.0726,-0.4173,-0.4123,-0.4103,-0.386,-0.3263,-0.2908,-0.2886,-0.2872,-0.2549,-0.254,-0.2525,-0.2465,-0.2414,-0.2373,-0.2373,-0.2382,-0.2399,-0.2412,-0.2428,-0.2446,-0.2476,-0.2489,-0.2489,-0.2507,-0.2671,-0.3139,-0.312,-0.3103,-0.3086,-0.3065,-0.2883,-0.2399,-0.2416,-0.2406,-0.2372,-0.2386,-0.241,-0.2444,-0.2517,-0.2563,-0.2582,-0.2581,-0.2886,-0.3488,-0.3562,-0.4266,-0.56,-0.6389,-0.7242,-0.8542,-0.9153,-0.9789,-1.0254,-1.0129,-1.0025,0.0,0.0,0.0,0.0,0.0,0.0,0.0,0.0,0.0,0.0,0.0,-1.0143,-1.0297,-1.0683,-1.1009,-1.1226,-1.1518,-1.1721,-1.1789,-1.2196,-1.2522,-1.2671,-1.3085,-1.3505,-1.3885,-1.4428,-1.4833,-1.5113,-1.5425,-1.5771,-1.6212,-1.6279,-1.6361,-1.6585,-1.6754,-1.6849,-1.6856,-1.6978,-1.7551,-1.8763,-2.0229,-2.1002,-2.101,-2.1083,-2.1148,-2.1148,-2.1067,-2.1002,-2.0994,-2.084,-2.0686,-2.0612,-2.0523,-2.0426,-2.0361,-2.0466,-2.058,-2.0604,-2.0799,-2.0978,-0.4423,-0.4412,-0.4372,-0.4327,-0.4276,-0.3688,-0.3467,-0.327,-0.2803,-0.263,-0.2598,-0.2548,-0.2495,-0.2442,-0.244,-0.2439,-0.2436,-0.2462,-0.2474,-0.2477,-0.2502,-0.2514,-0.2514,-0.2514,-0.2828,-0.3139,-0.3139,-0.3125,-0.3094,-0.3094,-0.2923,-0.2436,-0.2435,-0.2448,-0.2473,-0.2474,-0.2477,-0.2481,-0.2557,-0.2583,-0.2562,-0.2583,-0.2891,-0.3613,-0.368,-0.4389,-0.5899,-0.6643,-0.763,-0.8847,-0.9666,-1.0185,-1.0602,-1.0561,-1.0439,0.0,-1.0148,0.0,0.0,0.0,0.0,0.0,0.0,0.0,0.0,-1.0658,-1.083,-1.1002,-1.1179,-1.1396,-1.1674,-1.1972,-1.221,-1.2372,-1.2759,-1.3085,-1.3275,-1.3648,-1.4027,-1.4346,-1.4746,-1.5106,-1.5398,-1.5683,-1.6015,-1.6408,-1.6497,-1.6564,-1.6754,-1.689,-1.6965,-1.6978,-1.7312,-1.7861,-1.8837,-2.019,-2.0864,-2.0856,-2.0872,-2.0848,-2.0872,-2.0848,-2.0815,-2.0815,-2.0775,-2.071,-2.0588,-2.0556,-2.0499,-2.0353,-2.0466,-2.0604,-2.0661,-2.0889,-2.1124,-0.534,-0.5475,-0.5462,-0.5422,-0.5191,-0.4784,-0.4054,-0.3343,-0.3153,-0.296,-0.2601,-0.259,-0.2566,-0.2536,-0.2534,-0.2521,-0.2497,-0.2503,-0.2506,-0.2506,-0.2512,-0.2514,-0.2514,-0.2826,-0.2982,-0.3139,-0.3454,-0.345,-0.313,-0.313,-0.297,-0.2497,-0.2496,-0.25,-0.2506,0.0,0.0,0.0,-0.2559,-0.2566,-0.256,-0.2566,-0.2869,-0.314,-0.3527,0.0,-0.5443,-0.6496,-0.7657,-0.8959,-0.9795,0.0,0.0,0.0,0.0,0.0,0.0,0.0,0.0,0.0,0.0,0.0,-1.0724,-1.0747,-1.0955,-1.1031,-1.1269,-1.1463,-1.1735,-1.1965,-1.2149,-1.2433,-1.2664,-1.2827,-1.3125,-1.3471,-1.3851,-1.4089,-1.4373,-1.4794,-1.5025,-1.5255,-1.5547,-1.575,-1.6022,-1.6442,-1.6517,-1.6639,-1.6897,-1.6958,-1.6978,-1.6992,-1.7728,-1.8682,-1.8932,-2.0111,-2.0815,-2.0848,-2.0848,-2.084,-2.0824,-2.0726,-2.0645,-2.0645,-2.0523,-2.0426,-2.0385,-2.0377,-2.0369,-2.0328,-2.0466,-2.0637,-2.0783,-2.097,-2.1165,-0.5722,0.0,-0.5695,-0.566,0.0,-0.5398,-0.4836,-0.4101,-0.353,-0.315,-0.2624,-0.2624,-0.2608,-0.2581,-0.2581,-0.2572,-0.2557,-0.2557,-0.2557,-0.2557,-0.2557,-0.2557,-0.2556,-0.3017,-0.3326,-0.3484,-0.3937,-0.3927,-0.3768,-0.3611,-0.3297,-0.2828,-0.2671,-0.2522,-0.2537,-0.2551,-0.2557,-0.256,-0.2574,-0.2581,-0.2581,-0.2581,-0.2726,-0.3168,-0.3383,0.0,0.0,0.0,0.0,0.0,0.0,0.0,0.0,-1.0953,0.0,-1.1323,-1.1389,-1.1482,-1.1482,-1.1825,-1.1905,-1.1717,-1.186,-1.1852,-1.1337,-1.1461,-1.1619,-1.1925,-1.2149,-1.2372,-1.2603,-1.2888,-1.3125,-1.3281,-1.3553,-1.3858,-1.4143,-1.438,-1.4631,-1.493,-1.5228,-1.5472,-1.5622,-1.5839,-1.6103,-1.6456,-1.6524,-1.6632,-1.691,-1.6978,-1.6978,-1.6978,-1.8078,-1.8768,-1.8775,-1.9883,-2.0596,-2.0588,-2.0588,-2.0588,-2.0588,-2.0515,-2.0458,-2.045,-2.0377,-2.032,-2.032,-2.032,-2.032,-2.0328,-2.0393,-2.0515,-2.0694,-2.0937,-2.1148,-0.5741,-0.5741,-0.5741,-0.5711,-0.5668,-0.5654,-0.5441,-0.4862,0.0,0.0,0.0,-0.2654,-0.2638,-0.2611,-0.2609,-0.2607,-0.2601,-0.2601,-0.2601,-0.2601,-0.2601,-0.2601,-0.26,-0.3059,-0.3367,-0.3845,-0.4287,-0.4424,-0.4268,-0.395,-0.3477,-0.3001,-0.2687,-0.2542,-0.2567,-0.259,-0.2593,-0.2577,-0.2597,-0.2609,-0.2609,-0.2604,-0.2749,-0.3037,-0.3402,-0.41,-0.5159,-0.5937,-0.6998,-0.8366,-0.9358,-1.0025,-1.0767,-1.1181,-1.1461,-1.1881,-1.1881,-1.216,-1.2447,-1.2715,-1.279,-1.2798,-1.3099,-1.2765,-1.1859,-1.1997,-1.2054,-1.2305,-1.2501,-1.2739,-1.3017,-1.3281,-1.3512,-1.3688,-1.3946,-1.4177,-1.4367,-1.4611,-1.4841,-1.5018,-1.5371,-1.5635,-1.5649,-1.5893,-1.6191,-1.6442,-1.6517,-1.6632,-1.6897,-1.6978,-1.6978,-1.7188,-1.8035,-1.8649,-1.885,-1.9702,-2.032,-2.0353,-2.0336,-2.032,-2.032,-2.032,-2.032,-2.0336,-2.032,-2.032,-2.032,-2.032,-2.032,-2.032,-2.032,-2.0369,-2.0531,-2.0799,-2.1035,-0.5741,-0.5741,-0.5741,-0.5736,-0.5722,-0.5673,-0.5441,-0.4865,-0.3948,-0.3394,-0.3191,-0.2855,-0.2669,-0.2641,-0.2641,-0.2627,-0.2602,-0.2601,-0.2601,-0.2601,-0.2601,-0.2601,-0.2601,-0.3085,-0.3406,-0.3895,-0.421,-0.4369,-0.4046,-0.3884,-0.3399,-0.2751,-0.2589,-0.2592,-0.2596,-0.26,-0.2612,-0.2634,-0.2638,-0.2641,-0.2641,-0.2615,-0.2589,-0.2719,-0.3276,-0.3844,-0.446,-0.5761,-0.7211,-0.8393,-0.959,-1.047,-1.1193,-1.177,-1.2086,-1.2529,-1.2823,-1.2971,-1.3118,-1.3575,-1.359,-1.3318,-1.3453,-1.3361,-1.2635,-1.2705,-1.2734,-1.2488,-1.2834,-1.3146,-1.3329,-1.3498,-1.3715,-1.3966,-1.4163,-1.4373,-1.4631,-1.4814,-1.4984,-1.5133,-1.5438,-1.5635,-1.5662,-1.5893,-1.6191,-1.6442,-1.6551,-1.6646,-1.6897,-1.6978,-1.7188,-1.7601,-1.8222,-1.885,-1.9276,-1.9903,-2.032,-2.032,-2.032,-2.032,-2.032,-2.032,-2.032,-2.032,-2.032,-2.032,-2.032,-2.032,-2.032,-2.032,-2.032,-2.0344,-2.0385,-2.0556,-2.0783,-0.5741,-0.5741,-0.5741,-0.5741,-0.5739,-0.5711,-0.5488,-0.526,-0.4538,-0.3968,-0.3396,-0.2869,-0.2686,-0.2672,-0.2672,-0.2664,-0.2652,-0.2652,-0.265,-0.265,-0.2652,-0.265,-0.2649,-0.3129,-0.3447,-0.3611,-0.3915,-0.4065,-0.3905,-0.3578,-0.3253,-0.2929,-0.2781,-0.2619,-0.2605,-0.2634,-0.2649,-0.2647,-0.2647,-0.2654,-0.2671,-0.2642,-0.262,-0.2607,-0.3344,-0.3918,-0.4362,-0.5538,-0.6854,-0.8013,-0.921,-1.026,-1.1014,-1.1762,-1.2359,-1.2955,-1.3111,-1.3401,-1.3847,-1.4319,-1.4501,-1.4546,-1.4704,-1.4422,-1.3959,-1.3603,-1.3253,-1.3179,-1.3295,-1.339,-1.3614,-1.3777,-1.396,-1.417,-1.4326,-1.4502,-1.4713,-1.4875,-1.5025,-1.5181,-1.5452,-1.5635,-1.5635,-1.5893,-1.6191,-1.6469,-1.6646,-1.6829,-1.6958,-1.6978,-1.7188,-1.7811,-1.8222,-1.885,-1.9493,-1.9911,-2.032,-2.032,-2.032,-2.032,-2.032,-2.032,-2.032,-2.032,-2.032,-2.032,-2.032,-2.032,-2.032,-2.032,-2.032,-2.032,-2.0344,-2.0466,-2.071,-0.5752,-0.5741,-0.5741,-0.5741,-0.5741,-0.5741,-0.5714,-0.567,-0.513,-0.4553,-0.3791,-0.3229,-0.2868,-0.2692,-0.2692,-0.2692,-0.2692,-0.2692,-0.2692,-0.2692,-0.2692,-0.2692,-0.269,-0.3001,-0.3157,-0.3319,-0.3621,-0.3772,-0.377,-0.3442,-0.3114,-0.3116,-0.2811,-0.2645,-0.2624,-0.2669,-0.268,-0.2658,-0.2657,-0.2668,-0.269,-0.2662,-0.2647,-0.2643,-0.3406,-0.3995,-0.4275,-0.5489,-0.6678,-0.7842,-0.9056,-1.0275,-1.1048,-1.196,-1.2719,-1.3325,-1.3476,-1.3929,-1.4541,-1.4927,-1.5212,-1.5488,-1.5553,-1.5425,-1.5144,-1.4539,-1.3944,-1.3881,-1.3686,-1.3734,-1.3838,-1.3987,-1.4129,-1.4285,-1.4462,-1.4604,-1.4733,-1.4903,-1.5072,-1.5235,-1.5479,-1.5649,-1.5723,-1.5913,-1.6191,-1.6483,-1.6788,-1.6971,-1.6978,-1.6978,-1.7188,-1.7811,-1.8432,-1.885,-1.9485,-1.9903,-2.032,-2.032,-2.032,-2.032,-2.032,-2.032,-2.032,-2.032,-2.032,-2.032,-2.032,-2.032,-2.032,-2.032,-2.032,-2.032,-2.0328,-2.0418,-2.0621,-0.579,-0.5744,-0.5741,-0.5741,-0.5741,-0.5741,-0.5736,-0.5725,-0.5147,-0.4943,-0.4744,-0.3793,-0.3229,-0.2695,-0.2694,-0.2694,-0.2692,-0.2692,-0.2692,-0.2692,-0.2692,-0.2692,-0.2692,-0.2688,-0.3024,-0.3358,-0.3353,-0.3515,-0.3348,-0.3352,-0.3187,-0.2852,-0.2687,-0.2686,-0.2684,-0.269,-0.2691,-0.2688,-0.2688,-0.269,-0.269,-0.2662,-0.2647,-0.2647,-0.3435,-0.3897,-0.4055,-0.5503,-0.6949,-0.7742,-0.9492,-1.0782,-1.1586,-1.2702,-1.3656,-1.4124,-1.4441,-1.494,-1.5407,-1.5447,-1.5488,-1.552,-1.5683,-1.5837,-1.5819,-1.5648,-1.5006,-1.4456,-1.4194,-1.4245,-1.418,-1.4068,-1.415,-1.4306,-1.455,-1.4726,-1.4774,-1.4991,-1.5221,-1.5371,-1.5527,-1.5683,-1.5811,-1.5995,-1.6212,-1.6483,-1.6788,-1.6978,-1.6978,-1.6978,-1.7398,-1.8222,-1.8641,-1.9059,-1.9903,-2.032,-2.032,-2.032,-2.032,-2.032,-2.032,-2.032,-2.032,-2.032,-2.032,-2.032,-2.032,-2.032,-2.032,-2.032,-2.032,-2.032,-2.032,-2.0353,-2.0458,-0.5796,-0.5741,-0.5741,-0.5741,-0.5741,-0.5741,-0.5741,-0.5739,-0.5538,-0.5332,-0.4946,-0.4553,-0.3975,-0.3231,-0.3229,-0.3049,-0.2692,-0.2692,-0.2692,-0.2692,-0.2692,-0.2692,-0.2692,-0.2692,-0.2861,-0.3029,-0.3029,-0.3029,-0.3029,-0.3029,-0.2861,-0.2692,-0.2692,-0.2692,-0.2694,-0.271,-0.2718,-0.272,-0.2736,-0.2746,-0.2743,-0.2717,-0.2709,-0.2724,-0.3564,-0.4036,-0.4157,-0.5639,-0.692,-0.7803,-0.9401,-1.0861,-1.1671,-1.2949,-1.3742,-1.4229,-1.4875,-1.5401,-1.5666,-1.5764,-1.5878,-1.5975,-1.6146,-1.6284,-1.6349,-1.6261,-1.5971,-1.5338,-1.4878,-1.4636,-1.459,-1.4325,-1.4265,-1.4421,-1.4611,-1.4774,-1.4875,-1.5059,-1.5242,-1.5391,-1.5547,-1.5696,-1.5866,-1.6137,-1.6368,-1.6537,-1.6788,-1.6971,-1.6978,-1.6978,-1.7391,-1.8222,-1.8634,-1.9059,-2.0111,-2.032,-2.032,-2.032,-2.032,-2.032,-2.032,-2.032,-2.032,-2.032,-2.032,-2.032,-2.032,-2.032,-2.032,-2.032,-2.032,-2.032,-2.032,-2.032,-2.0369,-0.582,-0.5769,-0.5749,-0.5741,-0.5741,-0.5741,-0.5741,-0.5741,-0.5741,-0.5538,-0.5149,-0.5147,-0.4744,-0.3977,-0.3616,-0.3252,-0.289,-0.2717,-0.2717,-0.2717,-0.2717,-0.2717,-0.2718,-0.2717,-0.2717,-0.2717,-0.2718,-0.2718,-0.2717,-0.2717,-0.2717,-0.2717,-0.2717,-0.2717,-0.272,-0.274,-0.275,-0.2752,-0.2773,-0.2787,-0.2791,-0.2774,-0.2769,-0.2956,-0.3651,-0.4142,-0.4081,-0.5769,-0.7073,-0.795,-0.9583,-1.1049,-1.1836,-1.3132,-1.4268,-1.4754,-1.54,-1.5813,-1.5983,-1.6121,-1.6243,-1.6373,-1.6511,-1.66,-1.6641,-1.6649,-1.6559,-1.6357,-1.5707,-1.5177,-1.4849,-1.4583,-1.4531,-1.4496,-1.4645,-1.4801,-1.495,-1.5099,-1.5262,-1.5445,-1.5581,-1.5737,-1.5967,-1.6279,-1.6524,-1.6605,-1.6815,-1.6978,-1.6978,-1.6978,-1.7398,-1.8432,-1.8634,-1.9059,-2.0111,-2.032,-2.032,-2.032,-2.032,-2.032,-2.032,-2.032,-2.032,-2.032,-2.032,-2.032,-2.032,-2.032,-2.032,-2.032,-2.032,-2.032,-2.032,-2.032,-2.032,-0.5883,-0.5823,-0.5766,-0.5741,-0.5741,-0.5741,-0.5741,-0.5741,-0.5741,-0.5739,-0.5554,-0.5554,-0.5345,-0.476,-0.4018,-0.3476,-0.3473,-0.2949,-0.2774,-0.2774,-0.2776,-0.2778,-0.278,-0.278,-0.2777,-0.2772,-0.277,-0.2773,-0.2774,-0.2777,-0.278,-0.2777,-0.2774,-0.2777,-0.2774,-0.2778,-0.2781,-0.2782,-0.2787,-0.2799,-0.2823,-0.2825,-0.2811,-0.2965,-0.3653,-0.4175,-0.4338,-0.5897,-0.7274,-0.8301,-0.9997,-1.1334,-1.2252,-1.3748,-1.5249,-1.6084,-1.6251,-1.6332,-1.6479,-1.6527,-1.6552,-1.6568,-1.66,-1.6665,-1.682,-1.6844,-1.6909,-1.708,-1.6545,-1.6019,-1.5161,-1.5006,-1.4729,-1.4516,-1.4658,-1.4814,-1.4964,-1.5106,-1.5316,-1.5547,-1.5655,-1.5839,-1.6218,-1.6422,-1.6571,-1.6707,-1.6876,-1.6978,-1.6978,-1.6978,-1.7391,-1.8222,-1.8641,-1.9059,-2.0111,-2.032,-2.032,-2.032,-2.032,-2.032,-2.032,-2.032,-2.032,-2.032,-2.032,-2.032,-2.032,-2.032,-2.032,-2.032,-2.032,-2.032,-2.032,-2.032,-2.032,-0.5921,-0.5826,-0.5766,-0.5741,-0.5741,-0.5741,-0.5741,-0.5741,-0.5741,-0.5741,-0.5741,-0.5741,-0.5549,-0.5352,-0.4797,-0.4052,-0.3483,-0.3305,-0.3132,-0.2784,-0.2784,-0.2784,-0.2784,-0.2784,-0.2784,-0.2784,-0.2784,-0.2784,-0.2784,-0.2784,-0.2784,-0.2784,-0.2784,-0.2784,-0.2787,-0.2803,-0.2812,-0.2814,-0.283,-0.2846,-0.2855,-0.2857,-0.2852,-0.2842,-0.3549,-0.3891,-0.4215,-0.5441,-0.6647,-0.7811,-0.9366,-1.073,-1.2057,-1.3933,-1.5462,-1.6309,-1.6479,-1.6511,-1.6576,-1.669,-1.6755,-1.6763,-1.686,-1.6933,-1.6998,-1.7015,-1.7047,-1.7096,-1.6936,-1.6616,-1.6186,-1.5505,-1.5033,-1.4645,-1.4794,-1.4943,-1.5072,-1.516,-1.5303,-1.5588,-1.5791,-1.6035,-1.6252,-1.6429,-1.6578,-1.6734,-1.6883,-1.6965,-1.6978,-1.6978,-1.7398,-1.8222,-1.8641,-1.9059,-2.0111,-2.032,-2.032,-2.032,-2.032,-2.032,-2.032,-2.032,-2.032,-2.032,-2.032,-2.032,-2.032,-2.032,-2.032,-2.032,-2.032,-2.032,-2.032,-2.032,-2.032,-0.5943,-0.5834,-0.5788,-0.5758,-0.5741,-0.5741,-0.5741,-0.5741,-0.5741,-0.5741,-0.5741,-0.5741,-0.5741,-0.5741,-0.538,-0.4811,-0.4046,-0.3868,-0.3515,-0.3164,-0.2987,-0.2987,-0.2812,-0.2812,-0.2812,-0.2814,-0.2812,-0.2812,-0.2812,-0.2812,-0.2812,-0.2812,-0.2812,-0.2812,-0.2816,-0.2833,-0.2844,-0.2848,-0.2864,-0.2874,-0.2874,-0.2874,-0.2874,-0.2874,-0.3231,-0.3578,-0.4263,-0.5147,-0.6366,-0.7724,-0.9114,-1.0667,-1.236,-1.4215,-1.5584,-1.6315,-1.6665,-1.6698,-1.6755,-1.6868,-1.6933,-1.6942,-1.7096,-1.7201,-1.7201,-1.725,-1.7274,-1.7283,-1.7283,-1.7161,-1.672,-1.6258,-1.5607,-1.5167,-1.5094,-1.5031,-1.5167,-1.5228,-1.5398,-1.5676,-1.592,-1.6144,-1.6341,-1.6456,-1.6612,-1.6795,-1.6917,-1.6971,-1.6978,-1.6978,-1.7391,-1.8432,-1.8634,-1.9059,-1.9903,-2.032,-2.032,-2.032,-2.032,-2.032,-2.032,-2.032,-2.032,-2.032,-2.032,-2.032,-2.032,-2.032,-2.032,-2.032,-2.032,-2.032,-2.032,-2.032,-2.0361,-0.5946,-0.5848,-0.5831,-0.5796,-0.5752,-0.5744,-0.5741,-0.5741,-0.5741,-0.5741,-0.5741,-0.5741,-0.5741,-0.5741,-0.5562,-0.5378,-0.501,-0.447,-0.4114,-0.3578,-0.358,-0.3403,-0.3045,-0.2864,-0.2864,-0.2866,-0.287,-0.2871,-0.2866,-0.2864,-0.2866,-0.287,-0.2866,-0.2863,-0.2871,-0.2868,-0.2871,-0.2871,-0.2872,-0.2875,-0.2875,-0.2878,-0.2881,-0.2881,-0.2881,-0.342,-0.4312,-0.5201,-0.6267,-0.7691,-0.9113,-1.1202,-1.3384,-1.4671,-1.5489,-1.6175,-1.653,-1.6958,-1.7088,-1.7128,-1.7145,-1.7161,-1.7291,-1.7388,-1.7218,-1.7322,-1.7583,-1.7575,-1.7591,-1.7443,-1.712,-1.704,-1.6574,-1.5881,-1.5348,-1.5245,-1.5174,-1.5323,-1.552,-1.5791,-1.5995,-1.6205,-1.6429,-1.6537,-1.6659,-1.6876,-1.6965,-1.6978,-1.6978,-1.6978,-1.7391,-1.8222,-1.8641,-1.9059,-1.9694,-2.032,-2.032,-2.032,-2.032,-2.032,-2.032,-2.032,-2.032,-2.032,-2.032,-2.032,-2.032,-2.032,-2.032,-2.032,-2.032,-2.0344,-2.0385,-2.0418,-2.0474,-0.5992,-0.5948,-0.5864,-0.582,-0.5798,-0.576,-0.5741,-0.5741,-0.5741,-0.5741,-0.5741,-0.5741,-0.5741,-0.5741,-0.5741,-0.5562,-0.5559,-0.5383,-0.4845,-0.413,-0.3769,-0.359,-0.3411,-0.3053,-0.2874,-0.2874,-0.2874,-0.2875,-0.2875,-0.2875,-0.2874,-0.2874,-0.2875,-0.2874,-0.2876,-0.2874,-0.2874,-0.2874,-0.2874,-0.2883,-0.2901,-0.2902,-0.2912,-0.2932,-0.2934,-0.33,-0.3848,-0.4521,-0.5204,-0.6458,-0.7706,-1.0035,-1.2918,-1.451,-1.5624,-1.6658,-1.7039,-1.7413,-1.7461,-1.7469,-1.7461,-1.7478,-1.7526,-1.7559,-1.7559,-1.7616,-1.7656,-1.7656,-1.7648,-1.7499,-1.7628,-1.7317,-1.6819,-1.5888,-1.561,-1.5514,-1.5235,-1.5418,-1.5635,-1.5839,-1.6076,-1.6307,-1.6483,-1.6592,-1.6748,-1.6931,-1.6978,-1.6978,-1.6978,-1.6978,-1.7391,-1.8432,-1.8641,-1.9059,-1.9903,-2.032,-2.032,-2.032,-2.032,-2.032,-2.032,-2.032,-2.032,-2.032,-2.032,-2.032,-2.032,-2.032,-2.032,-2.0336,-2.0344,-2.0401,-2.0483,-2.0547,-2.0604,-0.6033,-0.6006,-0.5932,-0.5886,-0.5861,-0.5801,-0.5774,-0.5771,-0.5749,-0.5741,-0.5741,-0.5741,-0.5741,-0.5744,-0.5763,-0.5774,-0.5777,-0.5796,-0.5447,-0.4898,-0.4336,-0.3971,-0.3612,-0.3084,-0.2906,-0.2906,-0.2906,-0.2906,-0.2906,-0.2906,-0.2906,-0.2906,-0.2906,-0.2908,-0.2906,-0.2906,-0.2906,-0.2906,-0.2908,-0.2915,-0.2928,-0.2932,-0.2942,-0.2958,-0.2961,-0.3147,-0.3514,-0.402,-0.4721,-0.5988,-0.7617,-1.0173,-1.277,-1.4229,-1.555,-1.6529,-1.7096,-1.7451,-1.764,-1.7624,-1.764,-1.7648,-1.7705,-1.7737,-1.7762,-1.7786,-1.7843,-1.7843,-1.7851,-1.7892,-1.7997,-1.7901,-1.7359,-1.6614,-1.6148,-1.5884,-1.5609,-1.5594,-1.5811,-1.6008,-1.6198,-1.6388,-1.6571,-1.6673,-1.6815,-1.6937,-1.6978,-1.6978,-1.6978,-1.6978,-1.7601,-1.8222,-1.8641,-1.9268,-2.0111,-2.032,-2.032,-2.032,-2.032,-2.032,-2.032,-2.032,-2.032,-2.032,-2.032,-2.032,-2.032,-2.032,-2.032,-2.0344,-2.0426,-2.0523,-2.0629,-2.0686,-2.0751,-0.6066,-0.6022,-0.6014,-0.5976,-0.5921,-0.5864,-0.5837,-0.5826,-0.5785,-0.5763,-0.576,-0.5769,-0.5763,-0.5771,-0.5818,-0.5837,-0.5845,-0.5883,-0.5902,-0.571,-0.5317,-0.4568,-0.3653,-0.3124,-0.295,-0.2953,-0.2954,-0.2957,-0.2951,-0.2951,-0.2961,-0.2954,-0.2953,-0.296,-0.2953,-0.296,-0.2954,-0.2953,-0.2956,-0.2957,-0.2962,-0.2964,-0.2968,-0.2972,-0.2973,-0.2975,-0.316,-0.3898,-0.4817,-0.6106,-0.8477,-1.0499,-1.2174,-1.3833,-1.5118,-1.6074,-1.6598,-1.7167,-1.7507,-1.7729,-1.7721,-1.7737,-1.7851,-1.7932,-1.794,-1.8062,-1.8152,-1.816,-1.8192,-1.8208,-1.8257,-1.8347,-1.8057,-1.7702,-1.6752,-1.611,-1.5986,-1.5845,-1.5981,-1.6212,-1.6327,-1.6435,-1.67,-1.6754,-1.6849,-1.6931,-1.6978,-1.6978,-1.6978,-1.7188,-1.7608,-1.802,-1.8641,-1.9315,-2.0176,-2.0426,-2.0434,-2.0523,-2.0483,-2.0426,-2.0385,-2.0369,-2.0434,-2.0418,-2.0393,-2.0377,-2.0393,-2.0442,-2.0491,-2.0564,-2.0637,-2.071,-2.0775,-2.0848,-2.0929,-0.6087,-0.6071,-0.603,-0.6006,-0.5981,-0.5924,-0.5899,-0.5897,-0.588,-0.5867,-0.5872,-0.5875,-0.5867,-0.5878,-0.5888,-0.5899,-0.5905,-0.5918,-0.5921,-0.5929,-0.5771,-0.5009,-0.3877,-0.3142,-0.2964,-0.2964,-0.2968,-0.2962,-0.2962,-0.2966,-0.2965,-0.2962,-0.2966,-0.2964,-0.2962,-0.2965,-0.2962,-0.2962,-0.2962,-0.2975,-0.2992,-0.2995,-0.3007,-0.3026,-0.3026,-0.3026,-0.3217,-0.3973,-0.5068,-0.6296,-0.7763,-0.9455,-1.1001,-1.287,-1.4395,-1.5782,-1.674,-1.7482,-1.7853,-1.8038,-1.803,-1.8038,-1.8095,-1.8103,-1.8111,-1.8273,-1.8363,-1.8403,-1.8493,-1.8566,-1.8582,-1.8623,-1.832,-1.7642,-1.6831,-1.6257,-1.6035,-1.5961,-1.6103,-1.6286,-1.6497,-1.6646,-1.6741,-1.6842,-1.6924,-1.6965,-1.6978,-1.6978,-1.6978,-1.7005,-1.7433,-1.8237,-1.8663,-1.9361,-2.0054,-2.0304,-2.0588,-2.0718,-2.0694,-2.0596,-2.0531,-2.0466,-2.0588,-2.0686,-2.0645,-2.0612,-2.0669,-2.0734,-2.0775,-2.0759,-2.0807,-2.0856,-2.097,-2.1059,-2.1132,-0.6098,-0.6096,-0.6063,-0.6049,-0.6041,-0.5987,-0.5962,-0.5954,-0.5932,-0.5921,-0.5921,-0.5921,-0.5921,-0.5924,-0.5948,-0.5962,-0.5965,-0.5987,-0.5997,-0.6003,-0.5845,-0.5087,-0.4129,-0.3374,-0.2999,-0.2999,-0.2998,-0.3001,-0.3001,-0.2999,-0.2999,-0.3002,-0.2999,-0.2999,-0.3002,-0.2999,-0.2999,-0.3001,-0.3001,-0.301,-0.3025,-0.3025,-0.3033,-0.305,-0.3052,-0.3243,-0.3434,-0.4194,-0.5117,-0.6383,-0.7493,-0.9007,-1.0554,-1.2107,-1.3864,-1.5471,-1.6474,-1.7269,-1.8025,-1.8214,-1.8403,-1.8403,-1.8403,-1.8403,-1.8428,-1.8517,-1.8566,-1.8582,-1.8671,-1.8712,-1.8753,-1.885,-1.8435,-1.7788,-1.74,-1.6807,-1.6247,-1.6185,-1.6327,-1.6483,-1.6639,-1.6781,-1.6829,-1.6931,-1.6965,-1.6978,-1.6978,-1.6978,-1.6985,-1.7026,-1.7495,-1.8121,-1.8805,-1.9538,-2.0229,-2.0481,-2.0726,-2.0856,-2.0889,-2.0783,-2.0726,-2.0645,-2.0718,-2.0832,-2.0848,-2.0864,-2.0889,-2.0905,-2.0897,-2.0897,-2.0937,-2.1027,-2.1148,-2.1197,-2.1278,-0.6104,-0.6098,-0.6098,-0.6098,-0.6087,-0.6044,-0.6022,-0.6011,-0.5973,-0.5951,-0.5951,-0.5946,-0.5957,-0.5943,-0.6003,-0.6022,-0.6025,-0.606,-0.609,-0.5911,-0.5736,-0.5165,-0.459,-0.3615,-0.3233,-0.3043,-0.3051,-0.3047,-0.3041,-0.3046,-0.3052,-0.3051,-0.3054,-0.3059,-0.3061,-0.3062,-0.3062,-0.3062,-0.3062,-0.3063,-0.3067,-0.3067,-0.307,-0.3071,-0.3073,-0.3263,-0.3645,-0.4217,-0.4974,-0.5926,-0.7443,-0.877,-1.0307,-1.1548,-1.3124,-1.4865,-1.5911,-1.6743,-1.7728,-1.828,-1.8696,-1.868,-1.8688,-1.8728,-1.8696,-1.8712,-1.8753,-1.8744,-1.8785,-1.8891,-1.8964,-1.9159,-1.8749,-1.8104,-1.8045,-1.7683,-1.6821,-1.6469,-1.6598,-1.6727,-1.6754,-1.6849,-1.6924,-1.6978,-1.6978,-1.6992,-1.7005,-1.7053,-1.7087,-1.7154,-1.7621,-1.8492,-1.9006,-1.9547,-2.0221,-2.088,-2.0921,-2.0978,-2.1019,-2.0986,-2.097,-2.0921,-2.0905,-2.0945,-2.1035,-2.1051,-2.101,-2.1019,-2.1027,-2.1075,-2.114,-2.123,-2.1319,-2.1311,-2.1352,-0.6142,-0.6098,-0.6098,-0.6098,-0.6096,-0.6085,-0.6079,-0.6076,-0.6066,-0.6049,-0.6057,-0.6057,-0.6055,-0.6057,-0.6068,-0.6079,-0.6082,-0.6104,-0.612,-0.6175,-0.5638,-0.5456,-0.5049,-0.4232,-0.3438,-0.3247,-0.3054,-0.3054,-0.3055,-0.3062,-0.3065,-0.3086,-0.3089,-0.3099,-0.3116,-0.3115,-0.3123,-0.3123,-0.3122,-0.3118,-0.3118,-0.3118,-0.3118,-0.3118,-0.3119,-0.312,-0.3513,-0.4099,-0.4682,-0.5257,-0.6395,-0.7931,-0.9128,-1.0523,-1.2094,-1.4042,-1.5222,-1.6408,-1.7566,-1.7982,-1.8344,-1.8777,-1.8818,-1.8728,-1.8736,-1.8891,-1.8931,-1.898,-1.9175,-1.9345,-1.9467,-1.9597,-1.9072,-1.8534,-1.8246,-1.7924,-1.6872,-1.668,-1.672,-1.6768,-1.6856,-1.6944,-1.6971,-1.6992,-1.6998,-1.6998,-1.7066,-1.7134,-1.7209,-1.7283,-1.776,-1.8445,-1.8962,-1.9498,-2.0186,-2.0851,-2.1092,-2.1116,-2.1148,-2.1165,-2.1148,-2.114,-2.11,-2.1165,-2.1278,-2.1246,-2.1165,-2.1213,-2.1238,-2.1287,-2.1319,-2.1376,-2.1416,-2.1408,-2.1465,-0.6213,-0.618,-0.6153,-0.6142,-0.6136,-0.6109,-0.6098,-0.6098,-0.6098,-0.6098,-0.6098,-0.6098,-0.6098,-0.6101,-0.6125,-0.6142,-0.615,-0.6172,-0.6199,-0.6234,-0.5873,-0.5685,-0.5487,-0.4862,-0.4252,-0.3673,-0.3481,-0.3286,-0.3095,-0.3095,-0.3106,-0.3116,-0.3119,-0.3125,-0.3141,-0.3145,-0.3141,-0.3141,-0.3142,-0.3142,-0.3142,-0.3142,-0.3142,-0.3142,-0.3142,-0.3142,-0.3141,-0.3926,-0.4329,-0.4928,-0.5705,-0.7055,-0.8438,-0.9644,-1.1236,-1.32,-1.4434,-1.5825,-1.7013,-1.8059,-1.8521,-1.9094,-1.9167,-1.9216,-1.9232,-1.9321,-1.9354,-1.9394,-1.9524,-1.9687,-1.9784,-1.989,-1.9497,-1.8716,-1.8417,-1.8099,-1.7065,-1.6856,-1.6856,-1.687,-1.6931,-1.6965,-1.6985,-1.7046,-1.708,-1.7114,-1.7236,-1.7304,-1.7344,-1.7419,-1.7919,-1.8409,-1.8915,-1.9642,-2.0357,-2.0818,-2.127,-2.1287,-2.1295,-2.1303,-2.1295,-2.1287,-2.1278,-2.1335,-2.1376,-2.1368,-2.1311,-2.1376,-2.1408,-2.1392,-2.1408,-2.1465,-2.1546,-2.162,-2.1693,-0.6289,-0.6275,-0.6224,-0.6202,-0.6194,-0.615,-0.6134,-0.6131,-0.6125,-0.6139,-0.6128,-0.6125,-0.6142,-0.6142,-0.618,-0.6202,-0.6218,-0.6262,-0.6292,-0.6294,-0.6316,-0.6127,-0.5727,-0.5523,-0.5124,-0.4335,-0.3921,-0.3723,-0.3333,-0.3144,-0.3138,-0.3148,-0.3149,-0.3157,-0.3157,-0.3157,-0.3164,-0.3165,-0.3165,-0.3164,-0.3163,-0.3163,-0.3163,-0.3164,-0.3164,-0.3164,-0.3167,-0.3765,-0.417,-0.4796,-0.5404,-0.6578,-0.7946,-0.9138,-1.0378,-1.2374,-1.3667,-1.5131,-1.6757,-1.7844,-1.8722,-1.9356,-1.967,-1.9752,-1.9743,-1.9711,-1.9703,-1.9743,-1.98,-1.9849,-1.9873,-2.0011,-1.9696,-1.8922,-1.8611,-1.8266,-1.7461,-1.7046,-1.7053,-1.7012,-1.7039,-1.706,-1.7114,-1.7175,-1.7202,-1.7249,-1.7372,-1.7467,-1.75,-1.7561,-1.7854,-1.8333,-1.9046,-2.002,-2.0749,-2.108,-2.153,-2.1506,-2.1498,-2.1498,-2.1498,-2.1538,-2.153,-2.14,-2.14,-2.1425,-2.149,-2.1555,-2.1555,-2.149,-2.1546,-2.1668,-2.1758,-2.1839,-2.1896,-0.6324,-0.6278,-0.627,-0.6264,-0.6264,-0.6251,-0.6243,-0.6248,-0.624,-0.6248,-0.6243,-0.6245,-0.624,-0.6248,-0.6256,-0.6264,-0.6284,-0.633,-0.6357,-0.6365,-0.6393,-0.6414,-0.6212,-0.6206,-0.5814,-0.52,-0.4561,-0.3936,-0.3738,-0.3339,-0.3163,-0.3178,-0.318,-0.3189,-0.3204,-0.3215,-0.3208,-0.3204,-0.3205,-0.3206,-0.3206,-0.321,-0.3215,-0.3215,-0.3216,-0.3216,-0.3221,-0.3644,-0.4274,-0.4892,-0.5542,-0.6373,-0.7575,-0.856,-0.9965,-1.1589,-1.308,-1.4554,-1.6199,-1.7676,-1.8518,-1.894,-1.9605,-1.9817,-1.9817,-1.9817,-1.9873,-1.9906,-1.9995,-2.0093,-2.0223,-2.0288,-2.0144,-1.961,-1.9039,-1.8682,-1.8138,-1.7518,-1.727,-1.7209,-1.7195,-1.7188,-1.7249,-1.7311,-1.7358,-1.7419,-1.7521,-1.7589,-1.7623,-1.7711,-1.7812,-1.8487,-1.8942,-2.0149,-2.1365,-2.151,-2.1814,-2.1782,-2.1766,-2.1766,-2.1782,-2.1839,-2.1798,-2.162,-2.1563,-2.1611,-2.1668,-2.1725,-2.1749,-2.1725,-2.1806,-2.1888,-2.1936,-2.1993,-2.2058,-0.6401,-0.6371,-0.6341,-0.6327,-0.6322,-0.6292,-0.6278,-0.6278,-0.6278,-0.6278,-0.6278,-0.6278,-0.6278,-0.6286,-0.6316,-0.6341,-0.6376,-0.6398,-0.6417,-0.6428,-0.6447,-0.6463,-0.6463,-0.6463,-0.6461,-0.6042,-0.5198,-0.4378,-0.3984,-0.3788,-0.3395,-0.3205,-0.321,-0.3217,-0.3227,-0.3228,-0.3231,-0.3231,-0.3231,-0.3231,-0.3234,-0.3243,-0.3258,-0.3273,-0.3276,-0.3277,-0.328,-0.3494,-0.3917,-0.4539,-0.4968,-0.5807,-0.664,-0.7886,-0.9312,-1.0728,-1.2189,-1.386,-1.5513,-1.6981,-1.8283,-1.9119,-1.9593,-2.006,-2.006,-2.0085,-2.0101,-2.0214,-2.0361,-2.0507,-2.0588,-2.058,-2.0433,-1.9843,-1.9448,-1.8845,-1.8259,-1.7857,-1.7635,-1.7399,-1.7372,-1.7365,-1.7378,-1.7446,-1.7514,-1.7595,-1.7677,-1.7724,-1.7758,-1.7867,-1.7982,-1.867,-1.9129,-2.0347,-2.1566,-2.1904,-2.2026,-2.2009,-2.2001,-2.2001,-2.1985,-2.1993,-2.192,-2.1774,-2.1774,-2.1831,-2.1814,-2.1855,-2.1912,-2.1969,-2.2017,-2.2058,-2.2091,-2.2139,-2.2229,-0.6463,-0.6458,-0.6409,-0.639,-0.6382,-0.6338,-0.6319,-0.6316,-0.6319,-0.6324,-0.6316,-0.6319,-0.6322,-0.633,-0.6368,-0.6414,-0.6461,-0.6458,-0.6455,-0.6455,-0.6461,-0.6463,-0.6463,-0.6463,-0.6461,-0.6259,-0.6047,-0.5248,-0.4634,-0.403,-0.3632,-0.3428,-0.323,-0.323,-0.323,-0.323,-0.3231,-0.3238,-0.3239,-0.324,-0.3254,-0.3272,-0.3295,-0.3317,-0.3321,-0.3318,-0.3314,-0.3325,-0.3745,-0.4166,-0.4798,-0.5224,-0.6073,-0.7369,-0.8636,-0.9848,-1.1475,-1.3112,-1.4825,-1.6554,-1.7919,-1.9021,-1.9733,-2.02,-2.0426,-2.0442,-2.0483,-2.0645,-2.0734,-2.0799,-2.0791,-2.0832,-2.065,-2.0261,-1.9623,-1.8992,-1.8611,-1.822,-1.7834,-1.7589,-1.7765,-1.7561,-1.7595,-1.7602,-1.7684,-1.7731,-1.7812,-1.788,-1.7928,-1.805,-1.8369,-1.8853,-1.957,-2.0568,-2.1549,-2.2058,-2.2147,-2.218,-2.218,-2.218,-2.2139,-2.2099,-2.2042,-2.2042,-2.205,-2.2099,-2.205,-2.2034,-2.2123,-2.2188,-2.2204,-2.2261,-2.235,-2.2415,-2.2497,-0.6463,-0.6461,-0.6452,-0.645,-0.6447,-0.6436,-0.6436,-0.6433,-0.6431,-0.6439,-0.6425,-0.6433,-0.6431,-0.6431,-0.6436,-0.6452,-0.6461,-0.6463,-0.6463,-0.6463,-0.6463,-0.6463,-0.6463,-0.6463,-0.6463,-0.6466,-0.6466,-0.6057,-0.5253,-0.4445,-0.4042,-0.384,-0.3437,-0.3234,-0.3243,-0.3245,-0.3245,-0.3265,-0.327,-0.3283,-0.3305,-0.3313,-0.332,-0.3325,-0.3326,-0.3332,-0.334,-0.3356,-0.3578,-0.4214,-0.4659,-0.533,-0.6221,-0.7092,-0.7994,-0.9272,-1.1148,-1.3391,-1.4515,-1.6035,-1.7579,-1.8712,-1.9661,-2.0135,-2.0529,-2.0751,-2.0775,-2.0807,-2.0872,-2.0905,-2.0921,-2.0889,-2.0945,-2.0595,-2.0008,-1.9649,-1.9272,-1.8191,-1.7792,-1.7826,-1.7799,-1.7812,-1.784,-1.784,-1.7846,-1.7894,-1.7948,-1.8023,-1.8104,-1.8213,-1.8555,-1.9277,-1.9767,-2.0766,-2.1496,-2.2008,-2.2302,-2.2342,-2.2359,-2.2375,-2.2407,-2.2407,-2.2407,-2.2407,-2.2407,-2.2375,-2.2334,-2.2334,-2.2383,-2.2432,-2.248,-2.2562,-2.2643,-2.2708,-2.274,-0.6463,-0.6463,-0.6463,-0.6463,-0.6463,-0.6463,-0.6463,-0.6463,-0.6463,-0.6463,-0.6463,-0.6463,-0.6463,-0.6463,-0.6463,-0.6461,-0.6463,-0.6463,-0.6463,-0.6463,-0.6463,-0.6463,-0.6463,-0.6463,-0.6463,-0.6474,-0.6493,-0.6515,-0.5895,-0.5066,-0.4451,-0.4071,-0.346,-0.3269,-0.3273,-0.328,-0.3288,-0.3298,-0.3303,-0.3317,-0.3339,-0.3348,-0.3355,-0.3371,-0.3371,-0.338,-0.3396,-0.3408,-0.3429,-0.3869,-0.4539,-0.5197,-0.5866,-0.6957,-0.8057,-0.8722,-1.0412,-1.2106,-1.3648,-1.538,-1.672,-1.8259,-1.9148,-2.0198,-2.0658,-2.0945,-2.1002,-2.101,-2.11,-2.114,-2.1148,-2.1157,-2.1197,-2.1036,-2.0208,-1.9792,-1.9434,-1.8628,-1.7989,-1.8023,-1.8057,-1.8063,-1.8063,-1.8043,-1.805,-1.8097,-1.8145,-1.8199,-1.8274,-1.8355,-1.8927,-1.9498,-2.0223,-2.0727,-2.1432,-2.2161,-2.248,-2.2537,-2.2578,-2.2618,-2.274,-2.2765,-2.2716,-2.2732,-2.2757,-2.27,-2.2635,-2.2602,-2.261,-2.2683,-2.2773,-2.2813,-2.2854,-2.2886,-2.2927,-0.6463,-0.6463,-0.6463,-0.6463,-0.6463,-0.6463,-0.6463,-0.6463,-0.6463,-0.6463,-0.6463,-0.6463,-0.6463,-0.6463,-0.6463,-0.6463,-0.6463,-0.6463,-0.6463,-0.6463,-0.6463,-0.6463,-0.6469,-0.6472,-0.6488,-0.6485,-0.6548,-0.657,-0.6149,-0.5519,-0.4906,-0.4313,-0.3903,-0.3504,-0.3313,-0.3317,-0.3318,-0.3332,-0.3343,-0.3358,-0.3374,-0.3378,-0.3396,-0.3412,-0.3426,-0.3437,-0.3463,-0.3467,-0.348,-0.3708,-0.4585,-0.5244,-0.5481,-0.68,-0.7694,-0.8594,-0.9697,-1.0816,-1.2554,-1.4059,-1.5766,-1.7514,-1.9044,-2.0394,-2.0603,-2.0907,-2.1189,-2.1189,-2.127,-2.1368,-2.1441,-2.1441,-2.149,-2.1072,-2.0439,-1.9981,-1.9545,-1.8755,-1.8145,-1.8158,-1.8206,-1.8287,-1.8274,-1.8247,-1.826,-1.8301,-1.8342,-1.8389,-1.8464,-1.8545,-1.9094,-1.9683,-2.0414,-2.0931,-2.1689,-2.217,-2.2467,-2.2724,-2.2773,-2.2822,-2.2911,-2.2943,-2.2903,-2.296,-2.3025,-2.3,-2.2903,-2.2862,-2.2822,-2.2854,-2.2903,-2.2984,-2.3033,-2.3073,-2.3146,-0.6463,-0.6463,-0.6463,-0.6463,-0.6463,-0.6463,-0.6463,-0.6463,-0.6463,-0.6463,-0.6463,-0.6463,-0.6463,-0.6463,-0.6463,-0.6463,-0.6463,-0.6463,-0.6463,-0.6463,-0.6463,-0.6472,-0.6488,-0.6518,-0.6548,-0.6553,-0.6602,-0.663,-0.6425,-0.6016,-0.5386,-0.4974,-0.4356,-0.3734,-0.3536,-0.3339,-0.3347,-0.3365,-0.3385,-0.34,-0.3408,-0.3414,-0.3427,-0.3448,-0.3457,-0.3468,-0.3497,-0.3499,-0.3505,-0.3513,-0.4619,-0.5291,-0.5541,-0.6663,-0.7576,-0.8281,-0.877,-0.991,-1.1468,-1.3162,-1.5313,-1.7565,-1.9155,-2.0255,-2.0701,-2.1132,-2.1376,-2.14,-2.1473,-2.1522,-2.1595,-2.1652,-2.1701,-2.1295,-2.0856,-2.0184,-1.9527,-1.8923,-1.8301,-1.8301,-1.8369,-1.8464,-1.8545,-1.8525,-1.8443,-1.8477,-1.8572,-1.862,-1.8708,-1.8789,-1.9077,-1.962,-2.0357,-2.1134,-2.1734,-2.2229,-2.2652,-2.2911,-2.2968,-2.2992,-2.3041,-2.3049,-2.3122,-2.3106,-2.3154,-2.3171,-2.3195,-2.3171,-2.3122,-2.3025,-2.3041,-2.3171,-2.3284,-2.3366,-2.3431,-0.6463,-0.6463,-0.6463,-0.6463,-0.6463,-0.6463,-0.6463,-0.6463,-0.6463,-0.6463,-0.6463,-0.6463,-0.6463,-0.6463,-0.6463,-0.6463,-0.6463,-0.6463,-0.6463,-0.6477,-0.6493,-0.6512,-0.6537,-0.6567,-0.6605,-0.6616,-0.6662,-0.6692,-0.6695,-0.651,-0.6115,-0.5479,-0.4616,-0.3997,-0.3581,-0.3373,-0.3382,-0.3396,-0.3422,-0.344,-0.3444,-0.346,-0.3474,-0.3483,-0.3484,-0.3499,-0.3523,-0.3527,-0.3539,-0.3777,-0.4687,-0.5151,-0.5618,-0.6542,-0.7474,-0.8183,-0.8444,-0.9373,-1.074,-1.248,-1.4488,-1.6977,-1.858,-1.9461,-2.0332,-2.1032,-2.1271,-2.1502,-2.1701,-2.1733,-2.1798,-2.1831,-2.1855,-2.1462,-2.1043,-2.038,-1.9753,-1.9135,-1.8511,-1.8538,-1.8599,-1.8681,-1.8755,-1.8816,-1.8721,-1.8654,-1.8755,-1.885,-1.8925,-1.8986,-1.9269,-1.9782,-2.0525,-2.1041,-2.1628,-2.2347,-2.3049,-2.3106,-2.3163,-2.3187,-2.3219,-2.3325,-2.3374,-2.3333,-2.3325,-2.3398,-2.3447,-2.3479,-2.3431,-2.3325,-2.3333,-2.3422,-2.3536,-2.3642,-2.3691,-0.6463,-0.6463,-0.6463,-0.6463,-0.6463,-0.6463,-0.6463,-0.6463,-0.6463,-0.6463,-0.6463,-0.6463,-0.6463,-0.6463,-0.6463,-0.6463,-0.6469,-0.648,-0.6488,-0.6512,-0.6545,-0.6572,-0.6597,-0.663,-0.6665,-0.6679,-0.6719,-0.6755,-0.6758,-0.6799,-0.6379,-0.5735,-0.5088,-0.4456,-0.3829,-0.3422,-0.3425,-0.3433,-0.3453,-0.3471,-0.3475,-0.3489,-0.3508,-0.3512,-0.3514,-0.3539,-0.3564,-0.3577,-0.3591,-0.3838,-0.4539,-0.5237,-0.5709,-0.6412,-0.7352,-0.7822,-0.829,-0.8993,-1.0139,-1.2172,-1.3984,-1.5997,-1.7589,-1.8726,-1.9884,-2.0568,-2.1197,-2.1438,-2.1687,-2.1953,-2.1985,-2.2009,-2.2066,-2.1912,-2.1025,-2.0363,-1.9986,-1.9374,-1.8967,-1.8782,-1.8857,-1.8925,-1.8952,-1.902,-1.8993,-1.8918,-1.8952,-1.9027,-1.9067,-1.9128,-1.9176,-1.9699,-2.0455,-2.0974,-2.1257,-2.2265,-2.3268,-2.3301,-2.3349,-2.3382,-2.3439,-2.3544,-2.3609,-2.3585,-2.3601,-2.3666,-2.3715,-2.3755,-2.3707,-2.3626,-2.3658,-2.3699,-2.3764,-2.3861,-2.3902,-0.6463,-0.6463,-0.6463,-0.6463,-0.6463,-0.6463,-0.6463,-0.6463,-0.6463,-0.6463,-0.6463,-0.6463,-0.6463,-0.6463,-0.6463,-0.6469,-0.6485,-0.6521,-0.6542,-0.6561,-0.6608,-0.663,-0.6657,-0.669,-0.6725,-0.6741,-0.6771,-0.6799,-0.6807,-0.6812,-0.6392,-0.6197,-0.5767,-0.5123,-0.4268,-0.3657,-0.3456,-0.346,-0.3487,-0.3498,-0.3504,-0.351,-0.3528,-0.3547,-0.3553,-0.3577,-0.3613,-0.3624,-0.3637,-0.3886,-0.4361,-0.4829,-0.552,-0.6221,-0.6921,-0.7379,-0.8117,-0.837,-0.8831,-1.1754,-1.3568,-1.4722,-1.6121,-1.7465,-1.8568,-1.9694,-2.1089,-2.1152,-2.1565,-2.184,-2.2123,-2.2212,-2.231,-2.2137,-2.1241,-2.0616,-2.0248,-1.9818,-1.9407,-1.8966,-1.9081,-1.9183,-1.9189,-1.9203,-1.9223,-1.921,-1.9196,-1.9223,-1.9257,-1.9298,-1.9359,-1.9859,-2.0388,-2.1137,-2.1662,-2.2717,-2.3496,-2.3512,-2.3544,-2.3577,-2.3634,-2.3723,-2.378,-2.3804,-2.3837,-2.3869,-2.395,-2.404,-2.3991,-2.3959,-2.3942,-2.3975,-2.4032,-2.4072,-2.4113,-0.6463,-0.6463,-0.6463,-0.6463,-0.6463,-0.6463,-0.6463,-0.6463,-0.6463,-0.6463,-0.6463,-0.6463,-0.6463,-0.6463,-0.6469,-0.6485,-0.6523,-0.6531,-0.6561,-0.6616,-0.6668,-0.669,-0.6714,-0.6747,-0.6782,-0.679,-0.6815,-0.682,-0.6815,-0.6826,-0.685,-0.6443,-0.5832,-0.4971,-0.4318,-0.3903,-0.3487,-0.3493,-0.3513,-0.3531,-0.3532,-0.355,-0.3573,-0.36,-0.3603,-0.3624,-0.3662,-0.3666,-0.3674,-0.3689,-0.4393,-0.4636,-0.5105,-0.5811,-0.6534,-0.7003,-0.7502,-0.7972,-0.8674,-1.051,-1.1897,-1.3053,-1.4654,-1.6258,-1.7902,-1.8836,-1.9986,-2.0896,-2.1346,-2.186,-2.2367,-2.2497,-2.2586,-2.2402,-2.1984,-2.1384,-2.0989,-2.0282,-1.9831,-1.9358,-1.9196,-1.9305,-1.9345,-1.9434,-1.9474,-1.9501,-1.9495,-1.9495,-1.9522,-1.9529,-1.9563,-2.0046,-2.0551,-2.1057,-2.1827,-2.2882,-2.3674,-2.3707,-2.3739,-2.3788,-2.3853,-2.391,-2.395,-2.3983,-2.4023,-2.4064,-2.4129,-2.421,-2.4292,-2.43,-2.4227,-2.4194,-2.4227,-2.4267,-2.4316,-0.6463,-0.6463,-0.6463,-0.6463,-0.6463,-0.6463,-0.6463,-0.6463,-0.6463,-0.6463,-0.6463,-0.6463,-0.6463,-0.6466,-0.6485,-0.6504,-0.6556,-0.6602,-0.6621,-0.6676,-0.673,-0.6752,-0.6774,-0.6796,-0.6807,-0.682,-0.6823,-0.6826,-0.6856,-0.685,-0.6883,-0.6724,-0.5905,-0.5468,-0.4591,-0.3946,-0.3517,-0.3524,-0.3543,-0.3568,-0.3579,-0.3598,-0.3619,-0.364,-0.3654,-0.3666,-0.3688,-0.3697,-0.3701,-0.3946,-0.4193,-0.444,-0.4916,-0.5398,-0.6123,-0.6361,-0.6851,-0.7564,-0.8275,-0.9015,-1.0431,-1.138,-1.321,-1.5032,-1.6657,-1.7794,-1.9008,-2.019,-2.1163,-2.1673,-2.2178,-2.2539,-2.2579,-2.2627,-2.2432,-2.1826,-2.1183,-2.0707,-2.0035,-1.9557,-1.9373,-1.9461,-1.9542,-1.9644,-1.9739,-1.9766,-1.9793,-1.9786,-1.978,-1.9773,-1.9773,-2.0262,-2.0765,-2.1527,-2.2283,-2.3047,-2.3592,-2.3885,-2.3926,-2.3959,-2.4007,-2.4056,-2.4113,-2.4178,-2.4251,-2.43,-2.43,-2.4356,-2.443,-2.4446,-2.4405,-2.4397,-2.4421,-2.4438,-2.4462,-0.6463,-0.6463,-0.6463,-0.6463,-0.6463,-0.6463,-0.6463,-0.6463,-0.6463,-0.6463,-0.6463,-0.6463,-0.6469,-0.648,-0.6523,-0.6559,-0.6586,-0.6673,-0.6709,-0.6739,-0.6779,-0.6799,-0.6807,-0.6815,-0.6828,-0.6826,-0.6837,-0.6869,-0.6908,-0.6929,-0.6959,-0.6784,-0.6399,-0.5747,-0.5088,-0.4214,-0.3776,-0.3565,-0.3577,-0.3604,-0.3624,-0.3634,-0.3654,-0.3673,-0.3685,-0.37,-0.3718,-0.3729,-0.3741,-0.3754,-0.3767,-0.424,-0.4477,-0.4713,-0.5186,-0.5673,-0.6418,-0.7146,-0.7635,-0.8391,-0.9125,-1.0062,-1.1873,-1.3445,-1.507,-1.6748,-1.7968,-1.9421,-2.0394,-2.1194,-2.1993,-2.226,-2.2764,-2.2552,-2.2339,-2.1949,-2.1564,-2.0904,-2.0487,-2.0053,-1.9887,-1.9725,-1.98,-1.9895,-1.9936,-2.001,-2.0044,-2.0078,-2.0058,-1.999,-1.999,-2.0237,-2.1,-2.1778,-2.2519,-2.3212,-2.3761,-2.4056,-2.408,-2.4113,-2.4162,-2.4227,-2.4292,-2.4381,-2.4495,-2.4527,-2.4462,-2.4486,-2.4543,-2.4543,-2.4503,-2.4503,-2.4503,-2.4527,-2.4551,-0.6463,-0.6463,-0.6463,-0.6463,-0.6463,-0.6463,-0.6463,-0.6463,-0.6463,-0.6463,-0.6463,-0.6463,-0.6482,-0.6526,-0.6545,-0.6602,-0.666,-0.6714,-0.6752,-0.6785,-0.6807,-0.6815,-0.682,-0.6823,-0.6842,-0.6869,-0.6888,-0.6916,-0.6973,-0.7006,-0.7036,-0.7071,-0.6671,-0.6023,-0.5373,-0.4497,-0.4053,-0.361,-0.3619,-0.3639,-0.3659,-0.3667,-0.3686,-0.3704,-0.3712,-0.3729,-0.3748,-0.3754,-0.3765,-0.3771,-0.3773,-0.4014,-0.404,-0.4516,-0.4995,-0.5747,-0.6243,-0.673,-0.7215,-0.7949,-0.8689,-0.918,-1.0558,-1.2448,-1.4095,-1.5508,-1.6947,-1.8155,-1.9372,-2.0153,-2.0945,-2.1466,-2.1973,-2.2242,-2.205,-2.2165,-2.1767,-2.1328,-2.0672,-2.0262,-2.0093,-1.9929,-2.001,-2.0037,-2.0085,-2.02,-2.0275,-2.0309,-2.0309,-2.0227,-2.0187,-2.0436,-2.1171,-2.2189,-2.2626,-2.3315,-2.3649,-2.4218,-2.4243,-2.4292,-2.4381,-2.4446,-2.4495,-2.4535,-2.4568,-2.4584,-2.4576,-2.4592,-2.46,-2.46,-2.4568,-2.4584,-2.4592,-2.4608,-2.4624,-0.6463,-0.6463,-0.6463,-0.6463,-0.6463,-0.6463,-0.6463,-0.6463,-0.6463,-0.6463,-0.6463,-0.6463,-0.6493,-0.6548,-0.6578,-0.6635,-0.6717,-0.6755,-0.6788,-0.6801,-0.6818,-0.6818,-0.682,-0.6845,-0.6875,-0.6905,-0.6943,-0.6976,-0.7036,-0.7087,-0.7123,-0.7125,-0.6719,-0.6291,-0.5862,-0.5208,-0.4558,-0.4113,-0.3895,-0.3674,-0.3686,-0.37,-0.3718,-0.3737,-0.3742,-0.3754,-0.3768,-0.3772,-0.3778,-0.3787,-0.379,-0.3803,-0.3827,-0.4312,-0.4793,-0.5302,-0.6048,-0.6538,-0.6787,-0.7782,-0.8271,-0.8756,-0.9481,-1.0935,-1.2585,-1.423,-1.5668,-1.7115,-1.809,-1.884,-1.9866,-2.0649,-2.1159,-2.1436,-2.1797,-2.2161,-2.1963,-2.1764,-2.1103,-2.0689,-2.0271,-2.0105,-2.0153,-2.018,-2.0234,-2.0349,-2.0417,-2.0431,-2.0438,-2.0397,-2.0363,-2.0356,-2.1341,-2.2331,-2.2763,-2.3223,-2.4058,-2.4389,-2.4421,-2.4486,-2.4584,-2.4584,-2.456,-2.4568,-2.4584,-2.4608,-2.4641,-2.4608,-2.46,-2.4641,-2.4714,-2.4763,-2.4746,-2.4665,-2.4689,-0.6455,-0.6463,-0.6463,-0.6463,-0.6463,-0.6463,-0.6463,-0.6463,-0.6463,-0.6463,-0.6463,-0.6463,-0.6499,-0.6567,-0.6608,-0.6668,-0.6739,-0.6788,-0.6804,-0.6818,-0.6818,-0.6823,-0.685,-0.688,-0.6916,-0.694,-0.6981,-0.7038,-0.7096,-0.7136,-0.7161,-0.7175,-0.7188,-0.6763,-0.6119,-0.5701,-0.5051,-0.4392,-0.3934,-0.3707,-0.3722,-0.3733,-0.3742,-0.3764,-0.3768,-0.3772,-0.3772,-0.3778,-0.3788,-0.3806,-0.3824,-0.3833,-0.3853,-0.387,-0.4355,-0.4846,-0.536,-0.6099,-0.66,-0.7355,-0.8112,-0.8615,-0.8876,-0.9832,-1.1,-1.2656,-1.4341,-1.5318,-1.63,-1.7532,-1.8313,-1.9118,-1.9651,-2.0422,-2.1002,-2.1579,-2.1868,-2.1697,-2.1057,-2.0637,-2.045,-2.0275,-2.0315,-2.0343,-2.0349,-2.0485,-2.0519,-2.0526,-2.0519,-2.0499,-2.0745,-2.0738,-2.1462,-2.2442,-2.2961,-2.37,-2.4251,-2.4568,-2.4568,-2.4568,-2.4584,-2.4592,-2.46,-2.4641,-2.4698,-2.4698,-2.4706,-2.473,-2.4787,-2.4844,-2.4917,-2.4974,-2.4925,-2.4836,-2.4819,-0.642,-0.6461,-0.6463,-0.6463,-0.6463,-0.6463,-0.6463,-0.6463,-0.6463,-0.6463,-0.6463,-0.6469,-0.6518,-0.6605,-0.6632,-0.6692,-0.6782,-0.6804,-0.6815,-0.6818,-0.6818,-0.6845,-0.6878,-0.6908,-0.6959,-0.7027,-0.7074,-0.7096,-0.7139,-0.7166,-0.7177,-0.7183,-0.721,-0.7025,-0.6379,-0.5966,-0.5329,-0.4895,-0.4207,-0.3741,-0.3753,-0.3759,-0.3767,-0.3772,-0.3772,-0.3773,-0.3779,-0.3795,-0.3805,-0.3817,-0.3839,-0.3862,-0.3891,-0.3914,-0.3925,-0.4174,-0.4912,-0.5407,-0.6148,-0.6899,-0.7645,-0.814,-0.8386,-0.863,-0.9597,-1.1287,-1.2496,-1.3725,-1.472,-1.5961,-1.6977,-1.7543,-1.8347,-1.9383,-2.0436,-2.0986,-2.1778,-2.1398,-2.1013,-2.0567,-2.037,-2.0417,-2.0458,-2.0485,-2.0505,-2.0519,-2.0532,-2.0539,-2.0532,-2.0526,-2.1054,-2.1301,-2.1794,-2.2792,-2.3329,-2.3834,-2.434,-2.4592,-2.4584,-2.4584,-2.46,-2.4673,-2.4738,-2.4779,-2.4819,-2.4836,-2.4892,-2.4998,-2.5055,-2.5071,-2.5096,-2.5136,-2.5161,-2.5087,-2.5071,-0.639,-0.6422,-0.645,-0.6463,-0.6463,-0.6463,-0.6463,-0.6463,-0.6463,-0.6463,-0.6469,-0.6493,-0.6553,-0.6638,-0.6662,-0.6717,-0.6807,-0.6818,-0.6818,-0.6818,-0.6826,-0.6858,-0.6891,-0.6937,-0.7003,-0.7074,-0.7117,-0.7147,-0.7172,-0.7177,-0.7183,-0.721,-0.7254,-0.7067,-0.6649,-0.6028,-0.5597,-0.515,-0.4234,-0.3769,-0.3772,-0.3772,-0.3772,-0.3772,-0.3772,-0.3778,-0.3794,-0.3813,-0.3831,-0.3855,-0.3887,-0.3903,-0.3923,-0.3936,-0.3945,-0.4193,-0.4688,-0.5185,-0.5923,-0.6418,-0.7157,-0.7894,-0.8143,-0.8389,-0.8381,-1.0077,-1.1306,-1.2294,-1.3278,-1.4516,-1.5329,-1.6137,-1.6699,-1.7742,-1.9103,-2.02,-2.102,-2.137,-2.0922,-2.069,-2.0471,-2.0478,-2.0512,-2.0512,-2.0532,-2.0532,-2.0539,-2.056,-2.056,-2.0862,-2.1372,-2.1888,-2.2397,-2.2852,-2.3329,-2.3834,-2.4592,-2.4592,-2.4633,-2.4673,-2.473,-2.4819,-2.4884,-2.4949,-2.4998,-2.5022,-2.5096,-2.5185,-2.5234,-2.5242,-2.5258,-2.529,-2.5307,-2.5339,-2.5339,-0.6368,-0.6387,-0.6442,-0.6463,-0.6463,-0.6463,-0.6463,-0.6463,-0.6463,-0.6469,-0.6488,-0.654,-0.6591,-0.664,-0.67,-0.676,-0.6801,-0.6815,-0.6818,-0.6818,-0.6818,-0.6872,-0.6927,-0.6973,-0.7038,-0.7096,-0.7145,-0.7161,-0.7175,-0.7177,-0.7202,-0.7254,-0.7294,-0.7333,-0.6952,-0.6529,-0.5614,-0.5402,-0.4713,-0.4006,-0.3771,-0.3772,-0.3772,-0.3772,-0.3778,-0.3791,-0.3809,-0.3833,-0.3859,-0.3888,-0.3922,-0.3936,-0.3941,-0.3947,-0.3948,-0.3949,-0.4196,-0.4936,-0.5676,-0.6418,-0.7155,-0.7648,-0.7899,-0.7908,-0.8151,-0.89,-1.0137,-1.1126,-1.2112,-1.3114,-1.3924,-1.4747,-1.5306,-1.6614,-1.824,-1.9613,-2.0198,-2.1033,-2.078,-2.0532,-2.0539,-2.0546,-2.0546,-2.0546,-2.056,-2.056,-2.0573,-2.0587,-2.0621,-2.1221,-2.1783,-2.2295,-2.28,-2.3236,-2.3683,-2.419,-2.4738,-2.4771,-2.4828,-2.4828,-2.486,-2.4941,-2.5039,-2.5144,-2.5185,-2.5209,-2.525,-2.5323,-2.5355,-2.5404,-2.5437,-2.5469,-2.5502,-2.5542,-2.5599,-0.6357,-0.6444,-0.6458,-0.6463,-0.6463,-0.6463,-0.6463,-0.6463,-0.6463,-0.6488,-0.6534,-0.6589,-0.663,-0.664,-0.67,-0.6758,-0.6809,-0.6818,-0.6818,-0.6818,-0.6828,-0.6894,-0.6962,-0.7014,-0.7068,-0.7123,-0.7166,-0.7172,-0.718,-0.718,-0.7207,-0.7267,-0.7327,-0.7376,-0.7207,-0.6779,-0.6108,-0.5655,-0.4947,-0.424,-0.4008,-0.3772,-0.3772,-0.378,-0.3797,-0.3808,-0.3827,-0.3865,-0.3887,-0.3908,-0.393,-0.3945,-0.3949,-0.3949,-0.3949,-0.3949,-0.4196,-0.4941,-0.5682,-0.618,-0.6676,-0.7679,-0.794,-0.7967,-0.823,-0.8505,-0.976,-1.0523,-1.1518,-1.2254,-1.3054,-1.3636,-1.4205,-1.626,-1.7869,-1.8684,-1.9509,-2.0278,-2.0539,-2.0546,-2.056,-2.0566,-2.0573,-2.06,-2.0655,-2.0675,-2.0729,-2.0743,-2.1075,-2.1639,-2.219,-2.2972,-2.3479,-2.4018,-2.4782,-2.4717,-2.499,-2.5006,-2.5022,-2.5039,-2.5063,-2.5079,-2.5177,-2.5315,-2.5372,-2.5404,-2.5445,-2.5461,-2.5518,-2.5567,-2.5607,-2.564,-2.5672,-2.5672,-2.5672]}]]